     2.11           OBSERVATION DATA    G (GPS)             RINEX VERSION / TYPE
teqc 2010Oct21 OPUS Account 20111028 15:35:54UTC            PGM / RUN BY / DATE
E 1527                                                      MARKER NAME
3066                                                        MARKER NUMBER
CSMIDDLETON NGS                                             OBSERVER / AGENCY
4820152812 TRIMBLE R7 2.32                                  REC # / TYPE / VERS
60244996 TRM41249.00 NONE                                   ANT # / TYPE
  -734920.8070 -5584739.5377  2981822.1082                  APPROX POSITION XYZ
        2.0030        0.0000        0.0000                  ANTENNA: DELTA H/E/N
     1     1                                                WAVELENGTH FACT L1/2
     5    L1    L2    C1    P1    P2                        # / TYPES OF OBSERV
    15                                                      LEAP SECONDS
  2011     8    23     0     0   30.0000000     GPS         TIME OF FIRST OBS
                                                            END OF HEADER
 11  8 23  0  0 30.0000000  0  9G10G09G12G17G05G04G25G02G30
  -6972054.02758  -5423144.10556  21005535.0004                   21005532.9414
  11758473.84457   9175462.61754  23546100.6884                   23546101.6884
  -7883378.73858  -6130042.21956  21781611.0084                   21781608.5044
  25279679.04357  19709154.19155  23140948.3524                   23140947.4184
  -7348168.41857  -5713012.09856  22336707.2274                   22336706.1524
   7047496.73458   5507663.85555  21609168.8444                   21609166.7664
   -577326.79756   -437485.05554  24596205.8834                   24596206.4344
  -6011463.10558  -4680362.04756  20762144.9144                   20762140.2154
   -154894.78556   -108368.30553  24437700.3284                   24437699.6024
 11  8 23  0  1  0.0000000  0  9G10G09G12G17G05G04G25G02G30
  -6934979.04748  -5394254.48046  21012590.5084                   21012587.9344
  11878132.41447   9268702.95344  23568872.4844                   23568871.7624
  -7905305.14848  -6147127.72746  21777438.6724                   21777436.0984
  25374357.89147  19782929.86345  23158965.1564                   23158963.8794
  -7396558.12147  -5750718.26646  22327498.8834                   22327497.5784
   7167175.21548   5600919.77746  21631943.1804                   21631941.0394
   -634055.86347   -481689.46544  24585410.3364                   24585411.6644
  -5970611.41048  -4648529.52346  20769918.8834                   20769914.2034
   -213638.42646   -154142.50043  24426522.0394                   24426521.0944
 11  8 23  0  1 30.0000000  0  9G10G09G12G17G05G04G25G02G30
  -6897271.90647  -5364872.27046  21019765.2894                   21019763.3204
  11998018.41047   9362120.49644  23591685.2424                   23591685.4884
  -7926835.83648  -6163904.87946  21773341.3984                   21773339.1994
  25469191.97347  19856826.48845  23177011.7584                   23177010.7584
  -7444675.71547  -5788212.39546  22318342.1094                   22318341.9844
   7287025.02348   5694309.22345  21654749.4534                   21654747.3244
   -690646.69547   -525786.16044  24574641.4924                   24574642.8094
  -5929450.04348  -4616455.71146  20777751.6174                   20777746.8954
   -272181.57046   -199760.51242  24415381.7974                   24415380.3914
 11  8 23  0  2  0.0000000  0  9G10G09G12G17G05G04G25G02G30
  -6858929.53148  -5334995.08246  21027061.8674                   21027059.7894
  12118130.59447   9455714.28544  23614541.8054                   23614543.4884
  -7947965.96148  -6180369.89846  21769320.5164                   21769318.3164
  25564184.84047  19930846.85245  23195087.9144                   23195086.8914
  -7492515.66047  -5825490.17646  22309238.6954                   22309237.3674
   7407046.59448   5787832.51645  21677588.9064                   21677587.0314
   -747094.43747   -569771.34044  24563899.4454                   24563900.9534
  -5887977.53148  -4584139.45346  20785643.6334                   20785638.5704
   -330518.94146   -245218.16042  24404279.8914                   24404279.4534
 11  8 23  0  2 30.0000000  0  9G10G09G12G17G05G04G25G02G30
  -6819958.17248  -5304627.76246  21034477.9384                   21034475.6954
  12238458.89547   9549476.48044  23637438.9774                   23637439.5944
  -7968699.39548  -6196525.81646  21765374.8594                   21765372.1094
  25659330.49647  20004986.27045  23213194.2274                   23213192.8014
  -7540082.08647  -5862554.83646  22300186.7034                   22300185.7814
   7527231.03148   5881482.70745  21700459.3524                   21700457.5594
   -803403.16047   -613648.22744  24553184.0394                   24553185.9614
  -5846201.75048  -4551586.87946  20793593.0784                   20793588.6374
   -388654.62946   -290518.62942  24393217.3914                   24393216.3134
 11  8 23  0  3  0.0000000  0  9G10G09G12G17G05G04G25G02G30
  -8355773.16448  -6501366.69946  20742222.1024                   20742219.7584
  10783586.75846   8415809.78144  23360586.5554                   23360587.5904
  -9564452.06248  -7439969.44146  21461713.3054                   21461711.1334
  24179215.09847  18851649.53145  22931537.0314                   22931536.2154
  -9162790.80947  -7127003.09846  21991395.3444                   21991394.6254
   6072162.70348   4747663.21945  21423569.0164                   21423567.0474
  -2434989.73446  -1885014.32043  24242703.6644                   24242704.9774
  -7379539.91448  -5746395.82446  20501808.5004                   20501803.8874
  -2022005.16846  -1563259.23843  24082401.1094                   24082399.8164
 11  8 23  0  3 30.0000000  0  9G10G09G12G17G05G04G25G02G30
  -8315531.03948  -6470009.19146  20749879.7274                   20749877.5274
  10904348.46946   8509909.67644  23383566.1094                   23383568.2074
  -9584374.58647  -7455493.48046  21457922.1414                   21457919.4454
  24274678.79347  18926036.75044  22949703.4924                   22949702.2114
  -9209790.43747  -7163626.09846  21982451.1564                   21982450.0354
   6192677.59848   4841570.90645  21446502.1644                   21446500.1764
  -2491002.18447  -1928660.34043  24232044.4064                   24232046.5124
  -7337150.04348  -5713364.75046  20509875.4224                   20509870.6214
  -2079717.98446  -1608230.19943  24071419.0864                   24071417.9734
 11  8 23  0  4  0.0000000  0  9G10G09G12G17G05G04G25G02G30
  -8274664.38348  -6438165.02746  20757656.2344                   20757654.1724
  11025310.05147   8604165.35944  23406585.4144                   23406586.3204
  -9603899.24248  -7470707.50046  21454206.4774                   21454204.1564
  24370291.05947  19000539.73845  22967897.8594                   22967896.2544
  -9256513.78947  -7200033.81645  21973560.3204                   21973559.5204
   6313342.80548   4935595.72745  21469464.4224                   21469462.6414
  -2546874.09447  -1972196.85943  24221413.5234                   24221413.9694
  -7294466.43048  -5680104.78546  20517997.3284                   20517992.6844
  -2137226.85546  -1653042.25443  24060475.3204                   24060474.0514
 11  8 23  0  4 30.0000000  0  9G10G09G12G17G05G04G25G02G30
  -8233156.62148  -6405821.30146  20765554.8674                   20765553.1024
  11146484.08947   8698586.58444  23429643.5944                   23429645.2194
  -9623008.22747  -7485597.61346  21450570.4844                   21450567.6844
  24466068.00447  19075171.04745  22986124.1484                   22986122.6604
  -9302942.03947  -7236211.57846  21964725.8444                   21964724.3874
   6434172.25848   5029748.53945  21492457.1254                   21492455.1954
  -2602587.16847  -2015609.62643  24210810.8134                   24210812.5044
  -7251474.14548  -5646604.30546  20526178.5864                   20526173.8984
  -2194513.12146  -1697680.84043  24049573.8674                   24049573.1134
 11  8 23  0  5  0.0000000  0  9G10G09G12G17G05G04G25G02G30
  -8190995.36748  -6372968.35946  20773577.9144                   20773575.5664
  11267879.40247   8793180.22744  23452745.1644                   23452745.7194
  -9641686.46147  -7500152.07446  21447016.1174                   21447013.7774
  24562022.85947  19149941.00844  23004383.3524                   23004381.8914
  -9349059.87947  -7272147.45346  21955949.0084                   21955948.9184
   6555176.25848   5124037.35245  21515483.2734                   21515481.4384
  -2658126.47747  -2058886.99243  24200242.2814                   24200243.3914
  -7208161.91448  -5612854.49646  20534420.5864                   20534416.1374
  -2251561.48846  -1742134.06243  24038717.8284                   24038717.3324
 11  8 23  0  5 30.0000000  0  9G10G09G12G17G05G04G25G02G30
  -8148195.65648  -6339617.91846  20781722.6954                   20781720.5274
  11389476.91047   8887931.43444  23475883.7974                   23475885.5594
  -9659947.35248  -7514381.33646  21443541.5474                   21443538.6094
  24658140.66047  19224837.93444  23022674.1024                   23022672.3134
  -9394880.34447  -7307851.61346  21947230.2344                   21947228.7154
   6676337.12148   5218448.39145  21538539.9224                   21538538.0084
  -2713505.19546  -2102039.18743  24189703.7734                   24189705.1174
  -7164546.55948  -5578868.50446  20542720.4224                   20542716.1844
  -2308384.95747  -1786412.03943  24027905.1564                   24027904.0314
 11  8 23  0  6  0.0000000  0  9G10G09G12G17G05G04G25G02G30
  -8104747.44948  -6305762.14846  20789990.2504                   20789988.4614
  11511282.54747   8982844.82444  23499062.9224                   23499064.7624
  -9677779.02048  -7528276.12946  21440147.9534                   21440145.2974
  24754431.10947  19299869.40644  23040997.5864                   23040995.9344
  -9440390.71947  -7343314.13746  21938569.6334                   21938568.8204
   6797662.15648   5312987.35945  21561627.3914                   21561624.8364
  -2768711.19947  -2145056.81644  24179198.7274                   24179199.3594
  -7120619.84048  -5544639.89546  20551079.2894                   20551074.5554
  -2364971.23446  -1830505.20343  24017136.9694                   24017136.3634
 11  8 23  0  6 30.0000000  0  9G10G09G12G17G05G04G25G02G30
  -8060663.36348  -6271410.89546  20798379.4304                   20798377.4614
  11633280.44547   9077908.01244  23522278.9144                   23522279.1054
  -9695191.95747  -7541844.64146  21436834.2894                   21436831.6454
  24850882.06647  19375025.92645  23059351.4534                   23059350.0354
  -9485601.25047  -7378543.01246  21929965.9224                   21929965.0904
   6919136.55148   5407642.70745  21584742.7344                   21584741.2544
  -2823754.67246  -2187947.79743  24168723.5314                   24168725.1454
  -7076395.89548  -5510179.67246  20559494.9144                   20559490.0234
  -2421330.30146  -1874421.28943  24006412.2814                   24006410.6454
 11  8 23  0  7  0.0000000  0  9G10G09G12G17G05G04G25G02G30
  -8015932.46548  -6236555.62546  20806891.2424                   20806889.0744
  11755477.78546   9173126.61744  23545532.1954                   23545532.4654
  -9712172.85947  -7555076.49246  21433602.9064                   21433600.0824
  24947505.06347  19450316.50045  23077738.9844                   23077736.7074
  -9530498.36347  -7413527.66446  21921422.5554                   21921421.3364
   7040769.12148   5502421.31345  21607888.8444                   21607887.3674
  -2878622.51246  -2230701.90643  24158283.4304                   24158284.1764
  -7031864.84048  -5475480.14146  20567968.4844                   20567964.2154
  -2477448.64846  -1918149.85943  23995732.8914                   23995731.7194
 11  8 23  0  7 30.0000000  0  9G10G09G12G17G05G04G25G02G30
  -7970561.16448  -6201201.34046  20815525.2814                   20815523.1214
  11877864.47347   9268492.78544  23568821.8364                   23568823.3714
  -9728725.90248  -7567974.93446  21430453.0864                   21430450.3244
  25044294.00847  19525736.40244  23096157.2584                   23096155.6334
  -9575085.55147  -7448270.83246  21912937.7664                   21912936.8754
   7162551.23848   5597316.44945  21631063.3984                   21631061.1804
  -2933318.51247  -2273322.13744  24147874.7734                   24147875.5904
  -6987034.37948  -5440547.30946  20576499.5944                   20576495.5004
  -2533329.97746  -1961693.73043  23985099.2274                   23985098.1604
 11  8 23  0  8  0.0000000  0  9G10G09G12G17G05G04G25G02G30
  -7924555.18048  -6165352.50046  20824279.9924                   20824277.8554
  12000430.86347   9363998.95344  23592145.6414                   23592146.5984
  -9744855.09047  -7580543.10546  21427384.0084                   21427381.0944
  25141243.63347  19601281.51245  23114606.1414                   23114604.7234
  -9619365.90647  -7482774.89846  21904511.5474                   21904510.0554
   7284474.79348   5692321.80145  21654264.2814                   21654262.5784
  -2987846.34447  -2315811.37144  24137498.4774                   24137499.4144
  -6941911.94148  -5405386.95746  20585086.1884                   20585081.7384
  -2588977.70346  -2005055.55543  23974509.2424                   23974508.3594
 11  8 23  0  8 30.0000000  0  9G10G09G12G17G05G04G25G02G30
  -7877892.32448  -6128991.80546  20833159.4454                   20833157.3954
  12123195.72347   9459659.80544  23615506.6024                   23615506.8634
  -9760535.63347  -7592761.67646  21424400.1884                   21424396.7894
  25238376.09447  19676969.09045  23133089.6564                   23133088.1524
  -9663314.78947  -7517020.69146  21896148.3524                   21896147.2194
   7406559.53548   5787452.72745  21677496.5554                   21677494.9384
  -3042181.29747  -2358150.28544  24127158.6954                   24127159.5664
  -6896476.33248  -5369982.57846  20593732.7584                   20593728.0274
  -2644366.96146  -2048215.93743  23963969.4924                   23963968.4574
 11  8 23  0  9  0.0000000  0  9G10G09G12G17G05G04G25G02G30
  -7830601.67248  -6092141.92646  20842158.4064                   20842156.6524
  12246126.50847   9555449.93844  23638898.9924                   23638901.7194
  -9775795.03947  -7604652.08246  21421496.3054                   21421493.4774
  25335662.79347  19752776.85945  23151602.4774                   23151601.2154
  -9706958.78147  -7551028.90246  21887842.8594                   21887841.5004
   7528774.40648   5882685.07445  21700752.8834                   21700751.0634
  -3096350.27747  -2400359.85944  24116850.6094                   24116851.6174
  -6850758.13748  -5334358.00446  20602432.3134                   20602427.7624
  -2699524.28946  -2091195.69543  23953473.5164                   23953471.8484
 11  8 23  0  9 30.0000000  0  9G10G09G12G17G05G04G25G02G30
  -7782653.31647  -6054779.55146  20851282.8364                   20851280.5594
  12369249.45747   9651389.78144  23662329.2814                   23662330.9924
  -9790600.90247  -7616189.07846  21418678.7034                   21418675.7624
  25433134.22347  19828728.57044  23170150.7114                   23170149.7384
  -9750264.89547  -7584773.83646  21879601.8444                   21879600.5434
   7651147.21148   5978040.49245  21724039.9064                   21724038.1684
  -3150320.71947  -2442414.76244  24106580.5634                   24106581.5274
  -6804728.86748  -5298491.04346  20611191.4614                   20611186.7894
  -2754417.04346  -2133969.27043  23943027.2114                   23943026.5704
 11  8 23  0 10  0.0000000  0  9G10G09G12G17G05G04G25G02G30
  -7734068.73447  -6016921.41846  20860528.1334                   20860525.9104
  12492539.50047   9747459.84844  23685790.1484                   23685791.9454
  -9804972.60547  -7627387.77046  21415943.7194                   21415940.7894
  25530769.32047  19904807.81644  23188730.4384                   23188729.4344
  -9793252.06247  -7618270.23846  21871421.7894                   21871420.5594
   7773654.12948   6073500.39545  21747352.3444                   21747350.7854
  -3204111.73847  -2484329.80144  24096344.6094                   24096345.7624
  -6758411.49648  -5262399.57046  20620005.2894                   20620000.8324
  -2809064.06246  -2176551.33643  23932628.4384                   23932627.3954
 11  8 23  0 10 30.0000000  0  9G10G09G12G17G05G04G25G02G30
  -7684832.05548  -5978555.15646  20869897.6564                   20869895.3014
  12616008.66847   9843669.51644  23709286.1564                   23709286.4344
  -9818892.53548  -7638234.41846  21413294.4614                   21413292.2624
  25628584.09047  19981027.06644  23207343.5474                   23207342.3954
  -9835902.21947  -7651504.02746  21863305.9064                   21863304.1454
   7896308.65248   6169075.32045  21770692.6024                   21770690.6764
  -3257705.37147  -2526091.03544  24086145.9064                   24086147.1294
  -6711791.46948  -5226072.28146  20628877.1024                   20628872.1914
  -2863447.11746  -2218927.70743  23922279.1024                   23922278.8014
 11  8 23  0 11  0.0000000  0  9G10G09G12G17G05G04G25G02G30
  -7634967.60548  -5939699.71946  20879386.2504                   20879384.2584
  12739629.55947   9939997.37144  23732810.4534                   23732812.4414
  -9832382.32448  -7648745.90646  21410727.8134                   21410724.9574
  25726554.89547  20057367.90244  23225987.1884                   23225986.0204
  -9878236.52747  -7684491.72346  21855249.4224                   21855248.2774
   8019084.99648   6264745.16845  21794056.2194                   21794054.7974
  -3311122.92247  -2567715.05144  24075980.7974                   24075981.8244
  -6664894.00048  -5189528.79346  20637800.8674                   20637796.4024
  -2917587.41846  -2261114.96543  23911977.0944                   23911976.0314
 11  8 23  0 11 30.0000000  0  9G10G09G12G17G05G04G25G02G30
  -7584437.30148  -5900325.44546  20889001.6254                   20888999.9574
  12863436.86747  10036470.48844  23756370.3524                   23756371.6214
  -9845401.11348  -7658890.38746  21408250.0164                   21408247.7504
  25824720.48447  20133860.52344  23244667.4534                   23244666.1484
  -9920213.99647  -7717201.34046  21847261.5394                   21847259.8874
   8142018.95348   6360537.83245  21817449.6334                   21817448.1684
  -3364323.70747  -2609170.14544  24065857.1804                   24065858.4654
  -6617682.30948  -5152740.46146  20646785.2194                   20646780.3794
  -2971443.92646  -2303081.09843  23901728.2504                   23901727.3054
 11  8 23  0 12  0.0000000  0  9G10G09G12G17G05G04G25G02G30
  -7533271.76648  -5860456.18446  20898738.3674                   20898736.1054
  12987396.63747  10133062.44144  23779959.2114                   23779960.3754
  -9857977.98448  -7668690.51246  21405856.8364                   21405854.1454
  25923050.76647  20210481.47744  23263379.1644                   23263377.5744
  -9961862.21948  -7749654.41846  21839336.0314                   21839334.3984
   8265078.19948   6456428.11345  21840867.1804                   21840865.4924
  -3417335.80947  -2650478.21544  24055768.8984                   24055770.3524
  -6570188.10548  -5115731.98046  20655823.2114                   20655818.7894
  -3025044.67647  -2344847.92243  23891528.7734                   23891527.7384
 11  8 23  0 12 30.0000000  0  9G10G09G12G17G05G04G25G02G30
  -7481452.06648  -5820077.18046  20908599.2664                   20908597.3054
  13111524.29747  10229785.17644  23803579.9304                   23803580.8134
  -9870091.85548  -7678129.87546  21403551.5634                   21403549.1644
  26021565.27047  20287245.96144  23282126.2664                   23282124.5554
 -10003160.02747  -7781834.45746  21831477.3204                   21831476.0434
   8388279.32448   6552428.95345  21864311.7034                   21864310.2074
  -3470137.85947  -2691622.63744  24045721.0634                   24045721.9574
  -6522393.93448  -5078489.77046  20664918.3364                   20664912.9384
  -3078367.93046  -2386398.52043  23881381.3674                   23881380.0784
 11  8 23  0 13  0.0000000  0  9G10G09G12G17G05G04G25G02G30
  -7428983.83648  -5779192.83246  20918583.7894                   20918581.9064
  13235810.72747  10326631.61344  23827230.8054                   23827232.9774
  -9881745.81248  -7687210.86346  21401333.9384                   21401331.4924
  26120258.57847  20364149.78144  23300906.5394                   23300905.3284
 -10044109.84047  -7813743.32046  21823685.0004                   21823683.6524
   8511615.12948   6648534.73445  21887781.9064                   21887780.2074
  -3522732.82447  -2732605.65644  24035712.3054                   24035713.5394
  -6474306.66048  -5041019.15246  20674068.7584                   20674064.6414
  -3131416.50047  -2427735.03544  23871286.2894                   23871285.6134
 11  8 23  0 13 30.0000000  0  9G10G09G12G17G05G04G25G02G30
  -7375881.97348  -5737814.74246  20928688.5474                   20928686.4924
  13360237.96147  10423587.78144  23850908.3674                   23850910.2664
  -9892952.44948  -7695943.29346  21399201.5314                   21399198.9344
  26219116.75447  20441182.06344  23319718.1804                   23319717.1844
 -10084723.62947  -7845390.34046  21815955.9064                   21815954.5634
   8635068.66448   6744732.23445  21911274.2034                   21911272.9304
  -3575132.73847  -2773436.69944  24025740.9144                   24025742.3404
  -6425941.82048  -5003332.25446  20683271.9774                   20683267.2304
  -3184202.30946  -2468866.78143  23861242.4384                   23861240.9224
 11  8 23  0 14  0.0000000  0  9G10G09G12G17G05G04G25G02G30
  -7322126.69948  -5695927.50446  20938917.9694                   20938915.9384
  13484822.81347  10520666.79743  23874615.9384                   23874616.7424
  -9903689.14548  -7704309.53946  21397158.5864                   21397156.0554
  26318160.22747  20518358.71944  23338566.3054                   23338564.1644
 -10124978.85947  -7876757.97746  21808295.5004                   21808294.3914
   8758658.36348   6841035.85245  21934792.8364                   21934791.3324
  -3627315.00047  -2814098.14144  24015811.2814                   24015811.8404
  -6377280.70748  -4965414.49246  20692532.2664                   20692527.5984
  -3236702.39846  -2509775.89544  23851251.1254                   23851250.4694
 11  8 23  0 14 30.0000000  0  9G10G09G12G17G05G04G25G02G30
  -7267729.31648  -5653539.91846  20949269.3914                   20949267.1254
  13609550.19146  10617856.85544  23898351.2974                   23898352.7274
  -9913965.80548  -7712317.32846  21395202.8364                   21395200.0984
  26417378.28947  20595671.43444  23357446.0704                   23357445.3324
 -10164884.05948  -7907852.86346  21800701.8674                   21800700.7424
   8882370.57848   6937434.93445  21958334.4844                   21958332.7504
  -3679288.50047  -2854596.91444  24005921.0634                   24005922.1254
  -6328336.25848  -4927275.94546  20701845.9384                   20701841.1484
  -3288925.49646  -2550469.12143  23841313.9454                   23841313.3014
 11  8 23  0 15  0.0000000  0  9G10G09G12G17G05G04G25G02G30
  -7212685.89848  -5610648.92246  20959743.8524                   20959741.8794
  13734420.92246  10715158.57844  23922113.4694                   23922115.6174
  -9923775.34448  -7719961.12146  21393336.0704                   21393333.2344
  26516775.87147  20673124.03944  23376361.3984                   23376360.0164
 -10204431.93448  -7938669.30946  21793176.1024                   21793174.9384
   9006207.80948   7033931.42245  21981900.1724                   21981898.0944
  -3731046.27347  -2894927.59844  23996072.4304                   23996072.6954
  -6279105.03948  -4888913.94146  20711214.2274                   20711209.6684
  -3340864.50847  -2590941.01243  23831430.1254                   23831429.0474
 11  8 23  0 15 30.0000000  0  9G10G09G12G17G05G04G25G02G30
  -7156998.41848  -5567256.07446  20970340.5474                   20970338.6094
  13859429.83246  10812567.99243  23945901.7894                   23945903.3014
  -9933117.84848  -7727241.00046  21391558.2344                   21391555.2774
  26616351.37947  20750715.28144  23395309.9924                   23395309.1174
 -10243621.99248  -7969206.94546  21785718.4774                   21785716.9534
   9130166.16448   7130522.30545  22005488.2504                   22005486.6454
  -3782587.62147  -2935089.63344  23986263.8054                   23986264.5704
  -6229590.27048  -4850330.99246  20720636.8204                   20720631.8014
  -3392518.52047  -2631190.82443  23821600.4224                   23821599.4534
 11  8 23  0 16  0.0000000  0  9G10G09G12G17G05G04G25G02G30
  -7100667.38348  -5523361.74646  20981060.2114                   20981058.4654
  13984573.21947  10910082.23443  23969716.2664                   23969717.3364
  -9941991.08248  -7734155.21546  21389869.6414                   21389866.9924
  26716105.09847  20828445.38344  23414292.9534                   23414291.2424
 -10282451.41848  -7999463.57046  21778329.4534                   21778327.8754
   9254243.71148   7227206.05145  22029099.2424                   22029097.7704
  -3833910.11747  -2975081.12544  23976497.2034                   23976498.4844
  -6179793.32048  -4811528.16046  20730112.7974                   20730108.2344
  -3443884.93047  -2671216.53143  23811825.1804                   23811824.7384
 11  8 23  0 16 30.0000000  0  9G10G09G12G17G05G04G25G02G30
  -7043694.66848  -5478967.41046  20991901.6414                   20991899.4694
  14109845.96547  11007697.23444  23993554.7344                   23993556.9574
  -9950394.39848  -7740703.25446  21388270.6414                   21388267.7074
  26816035.70347  20906313.32044  23433308.9304                   23433307.7074
 -10320919.42648  -8029438.57846  21771009.2664                   21771007.4734
   9378436.84048   7323979.87145  22052732.8754                   22052731.0004
  -3885012.85247  -3014901.40244  23966772.7424                   23966774.0554
  -6129717.32848  -4772507.89846  20739641.5554                   20739636.8134
  -3494962.62947  -2711017.25043  23802106.3054                   23802104.6684
 11  8 23  0 17  0.0000000  0  9G10G09G12G17G05G04G25G02G30
  -6986076.03148  -5434069.77046  21002866.1804                   21002864.2034
  14235249.36346  11105414.03143  24017417.8594                   24017420.0984
  -9958321.59448  -7746880.28946  21386762.2584                   21386759.6484
  26916148.35547  20984323.11744  23452359.6174                   23452358.7114
 -10359018.70348  -8059126.27346  21763759.0474                   21763757.5864
   9502748.12548   7420845.75845  22076388.8524                   22076387.0314
  -3935888.65247  -3054544.83644  23957091.0634                   23957092.5044
  -6079358.79348  -4733267.47346  20749224.5944                   20749219.8484
  -3545744.34047  -2750587.35943  23792442.0004                   23792441.1374
 11  8 23  0 17 30.0000000  0  9G10G09G12G17G05G04G25G02G30
  -6927811.06248  -5388668.48046  21013953.7194                   21013951.5084
  14360780.95746  11203230.73044  24041307.1024                   24041307.8014
  -9965769.42648  -7752683.79346  21385345.0554                   21385341.9774
  27016444.56347  21062475.94144  23471445.5314                   23471444.7344
 -10396745.41848  -8088523.64546  21756579.6414                   21756578.6214
   9627176.76648   7517803.08645  22100066.1254                   22100065.2194
  -3986533.84047  -3094008.57444  23947454.2974                   23947454.8324
  -6028717.99648  -4693807.09846  20758861.2894                   20758856.5944
  -3596226.21947  -2789923.84043  23782835.9614                   23782834.8874
 11  8 23  0 18  0.0000000  0  9G10G09G12G17G05G04G25G02G30
  -6868903.42248  -5342766.41846  21025163.0944                   21025160.8834
  14486433.86347  11301141.96944  24065216.9064                   24065220.1844
  -9972738.99248  -7758114.61746  21384018.6484                   21384015.8594
  27116921.57047  21140769.65644  23490565.7734                   23490564.8874
 -10434100.38348  -8117631.34846  21749471.6564                   21749469.6454
   9751717.49248   7614847.76245  22123765.6484                   22123764.5824
  -4036949.18447  -3133293.20744  23937859.9694                   23937861.0124
  -5977799.41448  -4654130.26246  20768550.5864                   20768546.0594
  -3646408.68047  -2829026.99244  23773286.7504                   23773285.4804
 11  8 23  0 18 30.0000000  0  9G10G09G12G17G05G04G25G02G30
  -6809350.32448  -5296361.41446  21036496.0864                   21036493.8554
  14612208.50046  11399148.01243  24089151.6884                   24089153.2584
  -9979224.91848  -7763168.56646  21382784.3284                   21382781.8524
  27217583.17247  21219207.22345  23509720.9694                   23509719.6994
 -10471077.39148  -8146444.53546  21742434.9454                   21742433.3284
   9876371.91848   7711981.03545  22147486.1884                   22147485.2384
  -4087128.69547  -3172394.06244  23928310.7974                   23928312.5354
  -5926600.73448  -4614235.17646  20778293.0314                   20778288.6954
  -3696285.77047  -2867892.21143  23763794.9614                   23763794.0904
 11  8 23  0 19  0.0000000  0  9G10G09G12G17G05G04G25G02G30
  -6749153.50448  -5249454.79746  21047950.6644                   21047949.0704
  14738099.72747  11497244.99644  24113108.2114                   24113109.6524
  -9985226.61348  -7767845.19946  21381642.3284                   21381639.3754
  27318428.25447  21297787.77044  23528911.5164                   23528910.0004
 -10507675.43448  -8174962.41846  21735470.6484                   21735469.0274
  10001136.44947   7809200.12545  22171228.3984                   22171227.0634
  -4137071.48447  -3211310.45344  23918807.0784                   23918808.3634
  -5875125.21548  -4574124.36746  20788088.8754                   20788084.1954
  -3745856.31247  -2906518.56243  23754361.8914                   23754360.7774
 11  8 23  0 19 30.0000000  0  9G10G09G12G17G05G04G25G02G30
  -6688315.25848  -5202048.39146  21059528.1884                   21059526.1994
  14864102.41447  11595428.77744  24137085.6334                   24137088.4304
  -9990744.07048  -7772144.49646  21380592.1804                   21380589.4614
  27419455.56647  21376510.31344  23548136.2974                   23548135.3794
 -10543893.50448  -8203184.23046  21728578.5944                   21728576.7934
  10126007.55948   7906502.27045  22194991.0084                   22194989.6844
  -4186776.57447  -3250041.64544  23909348.5704                   23909349.8554
  -5823375.53548  -4533799.93046  20797936.3364                   20797931.8834
  -3795119.16047  -2944905.18043  23744988.3754                   23744986.2384
 11  8 23  0 20  0.0000000  0  9G10G09G12G17G05G04G25G02G30
  -8202254.53548  -6381741.34046  20771435.0314                   20771432.6524
  13414796.66847  10466099.47344  23861292.2424                   23861294.6414
 -11571196.03148  -9003665.48846  21079842.4774                   21079839.3404
  25945248.02047  20227777.12944  23267603.5394                   23267602.9574
 -12155151.01247  -9458709.49246  21421966.2664                   21421964.2344
   8675566.84847   6776288.68445  21918981.0784                   21918979.4654
  -5811663.66847  -4516187.40244  23600143.2584                   23600144.4384
  -7346772.33648  -5720862.35946  20508043.7734                   20508039.1484
  -5419493.98447  -4210651.72743  23435879.1954                   23435878.3554
 11  8 23  0 20 30.0000000  0  9G10G09G12G17G05G04G25G02G30
  -8140138.51248  -6333339.25046  20783255.2814                   20783253.4884
  13541008.30146  10564446.07044  23885309.6254                   23885310.9804
 -11575742.21548  -9007207.95346  21078977.2344                   21078974.4844
  26046637.30947  20306781.73444  23286897.7894                   23286896.7464
 -12190605.11748  -9486336.00846  21415219.2974                   21415217.9494
   8800641.84047   6873749.69545  21942782.2584                   21942780.5944
  -5860889.25047  -4554544.96544  23590775.3754                   23590776.3834
  -7294482.34448  -5680116.91046  20517994.1954                   20517989.5744
  -5468136.99647  -4248555.33243  23426623.2194                   23426621.7074
 11  8 23  0 21  0.0000000  0  9G10G09G12G17G05G04G25G02G30
  -8077374.72348  -6284432.40246  20795198.9144                   20795196.5864
  13667329.24646  10662877.80543  23909347.6804                   23909349.2854
 -11579789.76648  -9010361.85946  21078206.8914                   21078204.3134
  26148217.96947  20385935.46944  23306227.6094                   23306227.1374
 -12225663.50848  -9513654.16046  21408548.0234                   21408546.2774
   8925825.93447   6971295.71145  21966604.0554                   21966602.2624
  -5909861.31247  -4592704.98044  23581456.5864                   23581457.8484
  -7241914.11348  -5639154.64846  20527997.6094                   20527992.9024
  -5516456.04747  -4286206.51244  23417427.2584                   23417426.8914
 11  8 23  0 21 30.0000000  0  9G10G09G12G17G05G04G25G02G30
  -8013967.93748  -6235024.51646  20807265.0394                   20807262.7504
  13793752.20346  10761389.07444  23933404.6174                   23933407.6174
 -11583341.03948  -9013129.07446  21077531.2974                   21077528.6134
  26249986.72747  20465235.77044  23325593.5004                   23325592.6174
 -12260327.48448  -9540665.00046  21401951.5164                   21401950.1564
   9051113.32047   7068922.20745  21990445.3134                   21990444.1884
  -5958581.22347  -4630668.50444  23572185.5164                   23572186.2234
  -7189073.12548  -5597979.84846  20538052.8204                   20538048.3134
  -5564452.34047  -4323606.16444  23408294.7504                   23408293.8754
 11  8 23  0 22  0.0000000  0  9G10G09G12G17G05G04G25G02G30
  -7949924.82048  -6185120.78946  20819451.9534                   20819449.4144
  13920267.36347  10859972.16044  23957480.9144                   23957482.7504
 -11586400.12948  -9015512.75446  21076949.3054                   21076946.1564
  26351937.55147  20544677.91844  23344994.4534                   23344993.3054
 -12294600.69548  -9567371.33246  21395429.6334                   21395427.7934
   9176495.74247   7166622.76645  22014305.1564                   22014303.3594
  -6007052.66447  -4668438.41444  23562961.7814                   23562962.7624
  -7135967.00048  -5556598.45746  20548158.6024                   20548154.0124
  -5612129.44147  -4360757.11744  23399222.5314                   23399220.9454
 11  8 23  0 22 30.0000000  0  9G10G09G12G17G05G04G25G02G30
  -7885242.99648  -6134719.36746  20831760.4924                   20831758.6954
  14046874.16846  10958626.64543  23981572.9454                   23981575.3834
 -11588962.37948  -9017509.28946  21076461.3984                   21076458.3914
  26454073.57847  20624264.39844  23364429.9694                   23364429.3094
 -12328478.06247  -9593769.22746  21388982.6174                   21388981.2194
   9301974.27047   7264398.23845  22038182.3444                   22038181.0594
  -6055270.42247  -4706010.64844  23553786.1954                   23553787.0234
  -7082593.79748  -5515008.95346  20558315.3834                   20558310.9534
  -5659482.02747  -4397655.17644  23390210.9924                   23390210.0904
 11  8 23  0 23  0.0000000  0  9G10G09G12G17G05G04G25G02G30
  -7819918.36748  -6083817.05546  20844191.0234                   20844189.0594
  14173574.26246  11057353.84844  24005684.1174                   24005684.8754
 -11591020.99648  -9019113.39546  21076069.5944                   21076066.9614
  26556400.03947  20703999.24644  23383902.5004                   23383901.6054
 -12361952.03548  -9619852.77046  21382612.7974                   21382611.3914
   9427552.15247   7362251.12945  22062079.4384                   22062078.0784
  -6103226.80947  -4743379.23444  23544660.2114                   23544661.2664
  -7028950.16448  -5473208.71946  20568523.5554                   20568518.6414
  -5706502.19947  -4434294.22744  23381263.7734                   23381262.5514
 11  8 23  0 23 30.0000000  0  9G10G09G12G17G05G04G25G02G30
  -7753957.86348  -6032419.26246  20856743.2034                   20856740.9884
  14300358.27747  11156146.43444  24029809.5784                   24029812.7664
 -11592580.03148  -9020328.19946  21075773.1414                   21075770.4224
  26658911.50847  20783878.28544  23403409.5004                   23403408.4064
 -12395026.06648  -9645624.68446  21376319.2034                   21376317.5554
   9553221.40247   7460175.19145  22085993.5314                   22085992.3284
  -6150925.25047  -4780546.81644  23535583.5474                   23535583.6914
  -6975043.33648  -5431203.40246  20578781.7504                   20578776.8324
  -5753193.30947  -4470676.89544  23372378.6174                   23372377.5084
 11  8 23  0 24  0.0000000  0  9G10G09G12G17G05G04G25G02G30
  -7687357.21148  -5980522.65646  20869416.8364                   20869414.7734
  14427228.01646  11255005.73843  24053951.5554                   24053955.1134
 -11593632.00448  -9021147.90646  21075573.0554                   21075569.9494
  26761613.62147  20863905.85244  23422953.3674                   23422952.1334
 -12427692.43748  -9671078.94546  21370102.8524                   21370101.0274
   9678985.47747   7558173.15245  22109924.9694                   22109924.3554
  -6198357.98447  -4817507.37944  23526557.0474                   23526558.1054
  -6920869.57448  -5388990.08646  20589090.2194                   20589085.3984
  -5799547.32447  -4506796.87944  23363557.7894                   23363556.0554
 11  8 23  0 24 30.0000000  0  9G10G09G12G17G05G04G25G02G30
  -7620120.78148  -5928130.64846  20882211.6254                   20882209.5984
  14554176.54746  11353926.51443  24078110.0864                   24078111.5474
 -11594179.25048  -9021574.32046  21075468.3594                   21075465.6994
  26864502.93047  20944079.28544  23442532.5554                   23442531.4924
 -12459951.94548  -9696216.15246  21363964.1174                   21363962.3324
   9804838.84447   7656240.69545  22133874.3984                   22133873.1454
  -6245526.16047  -4854261.77344  23517581.4224                   23517582.2344
  -6866433.76248  -5346572.56646  20599449.1334                   20599444.4104
  -5845565.30147  -4542654.98444  23354800.5164                   23354800.0434
 11  8 23  0 25  0.0000000  0  9G10G09G12G17G05G04G25G02G30
  -7552252.15248  -5875246.02046  20895126.2424                   20895124.3874
  14681197.46946  11452903.68044  24102281.4064                   24102284.0164
 -11594222.66448  -9021608.13346  21075460.3054                   21075457.6254
  26967576.91447  21024396.63344  23462146.4924                   23462146.2304
 -12491805.26648  -9721036.86346  21357902.5704                   21357900.7344
   9930776.99647   7754374.30545  22157839.7424                   22157838.6804
  -6292429.93447  -4890810.13344  23508656.2814                   23508656.8094
  -6811740.05548  -5303954.09046  20609857.1094                   20609851.8714
  -5891247.35947  -4578251.36744  23346107.4064                   23346106.3014
 11  8 23  0 25 30.0000000  0  9G10G09G12G17G05G04G25G02G30
  -7483745.92748  -5821864.54646  20908163.0004                   20908161.1174
  14808293.75346  11551939.55043  24126467.0784                   24126469.6334
 -11593753.76748  -9021242.74146  21075549.7114                   21075546.5124
  27070842.09447  21104862.95344  23481797.3674                   23481796.4534
 -12523243.73848  -9745534.32046  21351919.8594                   21351918.2344
  10056804.43447   7852577.45645  22181822.3204                   22181821.1334
  -6339060.50347  -4927145.60744  23499783.0164                   23499783.8874
  -6756783.49648  -5261130.80146  20620314.9694                   20620310.3134
  -5936584.60947  -4613579.06644  23337480.3914                   23337479.2704
 11  8 23  0 26  0.0000000  0  9G10G09G12G17G05G04G25G02G30
  -7414606.11748  -5767989.36346  20921319.6724                   20921317.3164
  14935458.89546  11651029.14843  24150666.1484                   24150668.2074
 -11592774.46948  -9020479.64146  21075735.9454                   21075732.4264
  27174296.06646  21185476.37544  23501483.6644                   23501483.1524
 -12554267.66448  -9769708.74646  21346016.6024                   21346014.9884
  10182916.13347   7950846.27345  22205820.3984                   22205819.3364
  -6385418.45347  -4963268.65244  23490961.1954                   23490961.6994
  -6701568.31648  -5218105.98446  20630822.1954                   20630817.0204
  -5981577.36347  -4648638.32844  23328918.8054                   23328917.1954
 11  8 23  0 26 30.0000000  0  9G10G09G12G17G05G04G25G02G30
  -7344832.42248  -5713620.23846  20934597.1174                   20934595.1414
  15062690.81346  11750170.73843  24174877.5084                   24174880.4774
 -11591281.60948  -9019316.36346  21076019.8834                   21076017.1644
  27277940.07046  21266237.86744  23521207.1254                   23521205.8914
 -12584873.73848  -9793557.57046  21340191.8284                   21340190.3524
  10309111.52047   8049180.30145  22229834.5784                   22229833.3674
  -6431500.00447  -4999176.33244  23482191.6334                   23482192.7664
  -6646094.85548  -5174879.91446  20641378.4844                   20641373.3014
  -6026221.91447  -4683426.27344  23320422.6484                   23320420.9734
 11  8 23  0 27  0.0000000  0  9G10G09G12G17G05G04G25G02G30
  -7274424.59048  -5658756.98046  20947995.0394                   20947993.3134
  15189987.41446  11849362.70343  24199100.8134                   24199102.8324
 -11589271.93748  -9017750.37546  21076402.4694                   21076399.5554
  27381775.85246  21347148.82444  23540965.8674                   23540964.9574
 -12615058.05548  -9817077.75846  21334448.2424                   21334446.6294
  10435390.14547   8147579.17245  22253864.3594                   22253863.2814
  -6477301.33647  -5034865.66044  23473475.9224                   23473476.4774
  -6590363.01648  -5131452.50446  20651983.6804                   20651978.8794
  -6070514.15246  -4717939.68043  23311993.7424                   23311992.6374
 11  8 23  0 27 30.0000000  0  9G10G09G12G17G05G04G25G02G30
  -7203386.87148  -5603402.89146  20961512.9534                   20961511.3834
  15317341.80947  11948599.73044  24223336.6484                   24223338.5824
 -11586747.44548  -9015783.22346  21076882.9384                   21076879.8984
  27485800.04346  21428206.58244  23560762.1334                   23560760.5164
 -12644821.91848  -9840270.32446  21328784.3444                   21328782.3364
  10561746.58647   8246038.68445  22277909.9384                   22277908.0434
  -6522823.41847  -5070337.38344  23464813.5784                   23464814.3714
  -6534378.21548  -5087827.97746  20662637.3754                   20662632.1914
  -6114455.07447  -4752179.33244  23303632.0164                   23303631.2194
 11  8 23  0 28  0.0000000  0  9G10G09G12G17G05G04G25G02G30
  -7131719.43748  -5547558.11346  20975151.0554                   20975149.3364
  15444751.72746  12047880.01643  24247581.4304                   24247585.0044
 -11583705.25448  -9013412.67246  21077461.8134                   21077458.9924
  27590014.06346  21509412.27044  23580592.8444                   23580591.5394
 -12674161.94948  -9863132.62546  21323200.9614                   21323199.2974
  10688180.51647   8344558.59445  22301969.0314                   22301967.8754
  -6568062.61747  -5105588.65245  23456204.4924                   23456205.2274
  -6478140.35948  -5044006.27046  20673338.9844                   20673334.1054
  -6158040.78547  -4786142.17244  23295338.1724                   23295336.7274
 11  8 23  0 28 30.0000000  0  9G10G09G12G17G05G04G25G02G30
  -7059419.77748  -5491220.69146  20988909.2344                   20988907.1454
  15572217.60546  12147203.92643  24271837.9454                   24271840.4924
 -11580140.00048  -9010634.54746  21078140.1564                   21078137.2934
  27694421.94946  21590769.01244  23600461.4454                   23600460.1684
 -12703071.82048  -9885659.74646  21317699.6884                   21317698.1414
  10814693.68447   8443140.21945  22326044.0394                   22326042.5554
  -6613012.64147  -5140614.60245  23447651.1804                   23447651.6644
  -6421646.95348  -4999985.42246  20684089.5234                   20684084.3244
  -6201264.99647  -4819823.34044  23287113.2734                   23287111.7624
 11  8 23  0 29  0.0000000  0  9G10G09G12G17G05G04G25G02G30
  -6986493.29748  -5434394.84846  21002786.6724                   21002784.5784
  15699731.41046  12246565.20343  24296103.1724                   24296105.3014
 -11576054.17648  -9007450.78546  21078917.6254                   21078914.7424
  27799019.34746  21672273.45244  23620365.1414                   23620364.5394
 -12731553.64848  -9907853.32046  21312279.2894                   21312277.8634
  10941279.87547   8541778.76245  22350132.3914                   22350130.9574
  -6657675.53147  -5175416.80144  23439151.4534                   23439152.8714
  -6364903.95348  -4955770.08646  20694887.1724                   20694882.4694
  -6244129.69947  -4853224.36744  23278955.7114                   23278954.9064
 11  8 23  0 29 30.0000000  0  9G10G09G12G17G05G04G25G02G30
  -6912935.41448  -5377076.99246  21016784.4224                   21016782.3524
  15827295.81646  12345965.89843  24320377.0234                   24320380.4574
 -11571440.45748  -9003855.68046  21079795.7504                   21079792.4494
  27903812.64846  21753930.52344  23640307.0634                   23640305.6254
 -12759599.28148  -9929707.00846  21306942.6254                   21306940.9804
  11067943.22347   8640477.41445  22374235.7504                   22374234.4574
  -6702042.78147  -5209988.62544  23430709.1954                   23430709.5204
  -6307906.95348  -4911356.84046  20705733.2664                   20705728.6054
  -6286626.17247  -4886338.47744  23270869.6174                   23270867.5474
 11  8 23  0 30  0.0000000  0  9G10G09G12G17G05G04G25G02G30
  -6838749.31248  -5319269.60246  21030901.3524                   21030899.1954
  15954905.22346  12445401.70343  24344661.1334                   24344663.4574
 -11566299.70348  -8999849.89546  21080773.8834                   21080770.6094
  28008799.85246  21835738.67244  23660285.0864                   23660284.6454
 -12787208.77348  -9951220.83646  21301688.9064                   21301686.6724
  11194679.59847   8739232.98845  22398352.7814                   22398351.1254
  -6746114.21547  -5244329.95344  23422322.3204                   23422322.9844
  -6250659.44948  -4866748.37946  20716627.1484                   20716622.1334
  -6328754.24246  -4919165.49644  23262852.3594                   23262851.1054
 11  8 23  0 30 30.0000000  0  9G10G09G12G17G05G04G25G02G30
  -6763936.43748  -5260973.82446  21045137.8054                   21045135.8164
  16082556.15646  12544869.85943  24368951.4694                   24368954.9184
 -11560630.33248  -8995432.20346  21081852.4384                   21081849.9064
  28113980.88347  21917697.85544  23680301.1334                   23680299.3714
 -12814379.81248  -9972393.01646  21296518.7344                   21296516.8674
  11321487.52747   8838044.32045  22422483.7034                   22422482.3134
  -6789887.32047  -5278438.80945  23413992.5084                   23413993.1094
  -6193162.71148  -4821945.71546  20727568.4694                   20727563.5864
  -6370511.18446  -4951703.35544  23254906.4224                   23254905.3054
 11  8 23  0 31  0.0000000  0  9G10G09G12G17G05G04G25G02G30
  -6688501.61348  -5202193.42246  21059492.5944                   21059490.5594
  16210241.79746  12644364.99643  24393250.1724                   24393253.0984
 -11554434.07448  -8990603.94546  21083031.6414                   21083028.5434
  28219352.80147  21999805.78144  23700352.4844                   23700351.7734
 -12841113.42248  -9993224.34846  21291430.7584                   21291428.8134
  11448361.69547   8936907.26245  22446627.3594                   22446625.5744
  -6833363.04747  -5312315.94945  23405719.2814                   23405720.2034
  -6135421.87548  -4776952.83646  20738556.2734                   20738551.4024
  -6411897.98447  -4983952.75844  23247030.9774                   23247029.5084
 11  8 23  0 31 30.0000000  0  9G10G09G12G17G05G04G25G02G30
  -6612447.17648  -5142930.19946  21073965.2424                   21073963.2304
  16337957.79346  12743883.87543  24417553.0474                   24417556.0394
 -11547710.11748  -8985364.49246  21084311.3594                   21084308.6644
  28324914.48847  22082061.57044  23720439.8444                   23720439.3054
 -12867408.68448 -10013714.10946  21286427.2584                   21286425.1054
  11575299.24647   9035819.59045  22470782.8524                   22470781.1684
  -6876540.07847  -5345960.32845  23397502.9924                   23397504.1024
  -6077439.35948  -4731771.64146  20749589.9144                   20749585.0594
  -6452913.18446  -5015912.59044  23239225.2814                   23239224.5984
 11  8 23  0 32  0.0000000  0  9G10G09G12G17G05G04G25G02G30
  -6535767.50448  -5083179.79746  21088556.9774                   21088555.1884
  16465707.26646  12843428.82843  24441864.0164                   24441866.1564
 -11540450.99648  -8979708.03946  21085692.5234                   21085689.8634
  28430672.82447  22164470.61344  23740565.4224                   23740564.6914
 -12893256.71548 -10033855.38346  21281508.2734                   21281506.6484
  11702305.02347   9134785.12945  22494950.8834                   22494948.6804
  -6919409.17247  -5379364.75045  23389345.8984                   23389346.4264
  -6019209.95348  -4686398.05946  20760670.3594                   20760666.0554
  -6493547.52746  -5047575.66444  23231493.2734                   23231491.9414
 11  8 23  0 32 30.0000000  0  9G10G09G12G17G05G04G25G02G30
  -6458464.11748  -5022943.37946  21103267.5634                   21103264.8244
  16593486.60546  12942997.02343  24466179.5004                   24466183.0164
 -11532655.06648  -8973633.28546  21087176.3594                   21087173.5434
  28536628.27346  22247033.24644  23760728.4064                   23760727.5704
 -12918655.27348 -10053646.42246  21276674.9844                   21276673.3484
  11829377.23447   9233802.39145  22519132.0394                   22519130.8754
  -6961968.13747  -5412527.52745  23381246.5554                   23381247.5784
  -5960735.26248  -4640833.35246  20771797.7034                   20771793.0004
  -6533798.69947  -5078940.18444  23223833.6884                   23223832.3594
 11  8 23  0 33  0.0000000  0  9G10G09G12G17G05G04G25G02G30
  -6380545.19948  -4962227.33246  21118094.8444                   21118092.6134
  16721286.02346  13042580.89143  24490499.3204                   24490500.9304
 -11524327.70748  -8967144.43746  21088760.7974                   21088758.0314
  28642773.77347  22329743.96944  23780926.9694                   23780926.5784
 -12943609.05548 -10073090.87546  21271926.6094                   21271924.5204
  11956507.27047   9332864.72345  22543324.2664                   22543323.0944
  -7004221.25447  -5445452.00845  23373206.4384                   23373206.6024
  -5902023.29748  -4595083.74646  20782970.5554                   20782965.8054
  -6573670.89847  -5110009.38344  23216246.0394                   23216244.7704
 11  8 23  0 33 30.0000000  0  9G10G09G12G17G05G04G25G02G30
  -6302003.10948  -4901025.69946  21133040.5864                   21133038.5394
  16849110.92646  13142184.65243  24514822.4454                   24514826.1724
 -11515458.12948  -8960233.08246  21090448.5944                   21090445.9104
  28749118.61746  22412610.04344  23801163.5944                   23801162.9304
 -12968106.94148 -10092180.09846  21267264.8204                   21267262.6914
  12083702.62147   9431977.94545  22567528.5394                   22567527.7194
  -7046156.86347  -5478129.06645  23365225.6484                   23365226.2544
  -5843066.57448  -4549143.43446  20794189.5004                   20794184.6134
  -6613152.46546  -5140774.18744  23208732.9694                   23208732.2814
 11  8 23  0 34  0.0000000  0  9G10G09G12G17G05G04G25G02G30
  -6222845.68048  -4839344.58246  21148104.1334                   21148102.2114
  16976951.88346  13241800.82043  24539150.9534                   24539153.9304
 -11506051.28948  -8952903.07846  21092238.6564                   21092236.1724
  28855656.54746  22495626.59044  23821437.6174                   23821436.6524
 -12992152.85948 -10110917.12946  21262688.5474                   21262686.9774
  12210955.32447   9531135.89845  22591744.0394                   22591742.8324
  -7087778.81647  -5510561.70745  23357305.2034                   23357306.0944
  -5783872.73448  -4503018.34446  20805453.4224                   20805449.0784
  -6652247.10247  -5171237.48044  23201293.9224                   23201292.4264
 11  8 23  0 34 30.0000000  0  9G10G09G12G17G05G04G25G02G30
  -6143071.49248  -4777182.87946  21163284.4304                   21163282.4494
  17104808.36346  13341429.13343  24563481.8284                   24563483.2034
 -11496103.03948  -8945151.19146  21094131.8364                   21094128.4924
  28962390.64146  22578795.96944  23841747.3984                   23841747.6454
 -13015741.73448 -10129298.02046  21258199.7344                   21258197.9614
  12338266.33247   9630339.25045  22615970.0634                   22615969.4384
  -7129081.94547  -5542745.93044  23349445.8054                   23349446.2894
  -5724440.27048  -4456707.31646  20816762.9534                   20816758.4694
  -6690949.68747  -5201395.28144  23193928.7894                   23193927.4104
 11  8 23  0 35  0.0000000  0  9G10G09G12G17G05G04G25G02G30
  -6062682.48048  -4714542.09446  21178581.8054                   21178579.9924
  17232676.23446  13441066.37943  24587813.1094                   24587815.5744
 -11485612.46148  -8936976.71546  21096128.2274                   21096125.3444
  29069320.43846  22662117.84444  23862095.7814                   23862095.6524
 -13038872.42248 -10147321.88546  21253798.0084                   21253796.4614
  12465633.48847   9729586.34444  22640207.2504                   22640206.4774
  -7170064.39147  -5574680.27345  23341647.3984                   23341647.3524
  -5664771.28948  -4410211.98846  20828118.0004                   20828113.2234
  -6729258.19547  -5231246.04344  23186638.6484                   23186636.9064
 11  8 23  0 35 30.0000000  0  9G10G09G12G17G05G04G25G02G30
  -5981682.27748  -4651425.05546  21193995.8914                   21193993.7624
  17360550.75046  13540708.65643  24612147.6094                   24612151.4734
 -11474580.19148  -8928380.13746  21098227.5474                   21098224.5044
  29176444.01646  22745590.72744  23882480.4454                   23882480.8524
 -13061544.78148 -10164988.60946  21249483.3984                   21249481.6524
  12593053.28547   9828874.47745  22664454.8834                   22664453.6994
  -7210725.55547  -5606364.27045  23333909.6254                   23333909.7624
  -5604869.37148  -4363535.15246  20839516.8674                   20839512.5434
  -6767172.09847  -5260789.30144  23179423.7344                   23179422.7384
 11  8 23  0 36  0.0000000  0  9G10G09G12G17G05G04G25G02G30
  -5900070.55948  -4587831.51246  21209525.9534                   21209524.4224
  17488429.99246  13640354.69943  24636482.5234                   24636485.3054
 -11463003.17648  -8919359.08246  21100430.7734                   21100427.8244
  29283763.70346  22829216.42644  23902903.1094                   23902902.8954
 -13083754.59848 -10182294.91446  21245257.4064                   21245255.5594
  12720525.63347   9928203.56345  22688711.8594                   22688710.8554
  -7251061.21947  -5637794.62944  23326233.3914                   23326234.0784
  -5544733.75848  -4316676.22746  20850960.0314                   20850955.5864
  -6804687.14147  -5290021.75844  23172285.4534                   23172283.6524
 11  8 23  0 36 30.0000000  0  9G10G09G12G17G05G04G25G02G30
  -5817849.65648  -4523763.28546  21225171.9384                   21225170.0084
  17616309.85646  13740001.26943  24660816.1644                   24660818.9494
 -11450880.92248  -8909913.16046  21102737.0944                   21102734.5004
  29391278.87146  22912994.40644  23923362.5474                   23923362.7234
 -13105500.37548 -10199239.62946  21241119.1094                   21241117.1414
  12848048.39547  10027571.92245  22712978.5784                   22712977.4104
  -7291069.64147  -5668969.98445  23318620.5164                   23318621.1804
  -5484366.73848  -4269636.98046  20862447.4144                   20862443.1334
  -6841801.51647  -5318941.99644  23165222.2424                   23165221.4844
 11  8 23  0 37  0.0000000  0  9G10G09G12G17G05G04G25G02G30
  -7310439.25048  -5686820.12146  20941141.6484                   20941139.3594
  16168770.49646  12612048.34043  24385359.5394                   24385362.7074
 -13013632.43048 -10127641.59846  20805355.7424                   20805352.6414
  27923571.85546  21769326.57044  23644067.0474                   23644067.2894
 -14702201.94148 -11443422.62146  20937276.8284                   20937275.1094
  11400203.20347   8899380.85245  22437463.1174                   22437461.9064
  -8906170.71947  -6927490.27045  23011276.8524                   23011277.6724
  -6999188.68848  -5450017.71146  20574186.8594                   20574181.8014
  -8453935.02347  -6575149.87944  22858443.3984                   22858442.4224
 11  8 23  0 37 30.0000000  0  9G10G09G12G17G05G04G25G02G30
  -7227001.64848  -5621803.81646  20957019.3754                   20957017.9304
  16296644.62946  12711690.37143  24409693.6334                   24409696.6994
 -13000412.53148 -10117340.36346  20807871.0474                   20807868.2544
  28031480.68846  21853411.32444  23664602.5864                   23664601.4694
 -14723011.09848 -11459637.50846  20933317.2734                   20933314.9344
  11527824.44947   8998825.94145  22461748.8364                   22461747.6054
  -8945514.48847  -6958147.71145  23003789.9144                   23003790.4184
  -6938359.99248  -5402618.72746  20585761.8204                   20585757.1604
  -8490237.75047  -6603437.67644  22851535.6024                   22851533.9884
 11  8 23  0 38  0.0000000  0  9G10G09G12G17G05G04G25G02G30
  -7142953.23448  -5556311.55946  20973013.1094                   20973011.1054
  16424516.04746  12811330.26243  24434026.6094                   24434029.8754
 -12986636.97748 -10106606.15646  20810492.4614                   20810489.5314
  28139591.29746  21937653.34044  23685174.7344                   23685174.2114
 -14743343.82248 -11475481.14046  20929448.1024                   20929445.8874
  11655497.43047   9098311.34844  22486043.7584                   22486042.9924
  -8984517.43747  -6988539.58245  22996368.1024                   22996367.9414
  -6877298.07448  -5355038.00446  20597381.5704                   20597376.9924
  -8526126.11347  -6631402.60944  22844706.0004                   22844704.8714
 11  8 23  0 38 30.0000000  0  9G10G09G12G17G05G04G25G02G30
  -7058297.81348  -5490346.30946  20989122.5554                   20989120.4494
  16552379.27046  12910963.77343  24458357.0634                   24458361.9344
 -12972306.30148 -10095439.37946  20813219.5704                   20813216.6374
  28247902.07446  22022051.30544  23705785.7974                   23705784.9024
 -14763200.32048 -11490953.68046  20925669.2194                   20925667.3794
  11783218.29347   9197834.09044  22510348.3754                   22510347.3524
  -9023179.27347  -7018665.65245  22989010.9224                   22989011.2854
  -6816006.15648  -5307278.06646  20609045.0554                   20609040.4734
  -8561599.84047  -6659044.42644  22837955.8444                   22837953.8134
 11  8 23  0 39  0.0000000  0  9G10G09G12G17G05G04G25G02G30
  -6973037.64148  -5423909.80946  21005347.3914                   21005345.1604
  16680230.19946  13010587.66043  24482687.3134                   24482690.2074
 -12957420.44548 -10083840.00446  20816052.5084                   20816049.1254
  28356412.01646  22106604.47344  23726433.9614                   23726433.6294
 -14782579.55548 -11506054.34046  20921981.5944                   20921979.6684
  11910985.04747   9297392.58245  22534661.5864                   22534660.7854
  -9061498.13747  -7048524.45745  22981719.1804                   22981719.7194
  -6754486.10548  -5259340.37546  20620751.8914                   20620747.6174
  -8596657.06247  -6686361.69544  22831284.2894                   22831282.8874
 11  8 23  0 39 30.0000000  0  9G10G09G12G17G05G04G25G02G30
  -6887175.30948  -5357004.10546  21021686.4534                   21021684.2504
  16808064.96546  13110199.05943  24507013.7274                   24507016.7274
 -12941979.25748 -10071807.88846  20818990.6804                   20818987.4844
  28465120.35546  22191312.23044  23747120.8754                   23747120.4734
 -14801480.47748 -11520782.28546  20918384.8914                   20918383.2304
  12038794.85547   9396984.60944  22558982.8984                   22558982.3674
  -9099472.59247  -7078114.89045  22974492.6254                   22974493.0434
  -6692740.59848  -5211226.99646  20632501.4694                   20632497.3164
  -8631296.21547  -6713353.19544  22824692.6414                   22824690.9774
 11  8 23  0 40  0.0000000  0  9G10G09G12G17G05G04G25G02G30
  -6800714.49648  -5289632.04746  21038139.2034                   21038137.2424
  16935878.20346  13209793.54743  24531335.8134                   24531340.5904
 -12925982.96948 -10059343.24246  20822034.5704                   20822031.5044
  28574025.49646  22276173.32844  23767844.6414                   23767843.8984
 -14819902.50848 -11535137.07046  20914879.4614                   20914877.1484
  12166644.55147   9496607.71144  22583311.8914                   22583310.9024
  -9137101.91847  -7107436.39545  22967331.9454                   22967332.6524
  -6630772.82448  -5162940.42646  20644293.6804                   20644289.2464
  -8665516.75847  -6740018.51644  22818180.8594                   22818179.0784
 11  8 23  0 40 30.0000000  0  9G10G09G12G17G05G04G25G02G30
  -6713652.67248  -5221791.66846  21054706.4924                   21054704.7774
  17063670.94546  13309372.07443  24555654.0314                   24555658.5204
 -12909426.14548 -10046441.80946  20825185.6254                   20825182.5044
  28683131.80146  22361191.20344  23788607.0394                   23788606.5824
 -14837839.52348 -11549113.93046  20911465.7424                   20911463.5984
  12294536.81347   9596263.99644  22607649.6254                   22607647.4264
  -9174379.62947  -7136483.91845  22960238.3284                   22960238.5904
  -6568580.03948  -5114478.51646  20656129.0314                   20656124.1214
  -8699312.12947  -6766352.53144  22811749.6024                   22811748.1764
 11  8 23  0 41  0.0000000  0  9G10G09G12G17G05G04G25G02G30
  -6625994.46948  -5153486.59046  21071387.3204                   21071385.3404
  17191437.25446  13408930.12143  24579967.8914                   24579970.0704
 -12892310.94148 -10033105.27746  20828442.1484                   20828439.4454
  28792436.16446  22446363.43044  23809407.1954                   23809406.6564
 -14855292.77048 -11562713.80946  20908144.5234                   20908142.5394
  12422466.80147   9695949.65645  22631993.7274                   22631992.5744
  -9211306.26647  -7165257.88745  22953211.1094                   22953211.7424
  -6506166.39548  -5065844.50846  20668005.8754                   20668001.1134
  -8732682.79747  -6792355.61744  22805398.8984                   22805397.4774
 11  8 23  0 41 30.0000000  0  9G10G09G12G17G05G04G25G02G30
  -6537736.09048  -5084713.84046  21088182.3054                   21088180.3204
  17319179.64846  13508469.43843  24604275.9614                   24604279.4964
 -12874630.35948 -10019328.19146  20831806.6884                   20831803.8954
  28901944.50446  22531694.60944  23830245.8284                   23830244.8594
 -14872254.28948 -11575930.53946  20904916.9614                   20904914.7114
  12550439.15247   9795668.33644  22656345.6094                   22656344.7234
  -9247873.56648  -7193751.85545  22946252.7504                   22946253.1334
  -6443527.36748  -5017034.88346  20679925.3054                   20679921.0784
  -8765620.57847  -6818021.39544  22799131.2664                   22799129.9144
 11  8 23  0 42  0.0000000  0  9G10G09G12G17G05G04G25G02G30
  -6448889.80148  -5015482.97746  21105089.2344                   21105087.1524
  17446883.89846  13607979.05543  24628577.9694                   24628581.9574
 -12856393.50048 -10005117.64846  20835277.0394                   20835273.8014
  29011646.46946  22617176.64144  23851121.4304                   23851120.4264
 -14888732.96948 -11588771.04346  20901781.0234                   20901778.8834
  12678441.66047   9895410.50044  22680703.9384                   22680702.8324
  -9284089.60547  -7221972.10545  22939361.1804                   22939361.6024
  -6380674.96548  -4968058.99246  20691885.7974                   20691881.4224
  -8798133.49247  -6843356.07844  22792944.1954                   22792943.2424
 11  8 23  0 42 30.0000000  0  9G10G09G12G17G05G04G25G02G30
  -6359446.48048  -4945786.89146  21122109.8284                   21122107.7034
  17574558.18046  13707465.18043  24652872.7274                   24652877.5634
 -12837588.78948  -9990464.62146  20838855.2114                   20838852.6484
  29121552.62547  22702817.79344  23872036.2034                   23872034.8674
 -14904716.11748 -11601225.39846  20898739.6724                   20898737.4144
  12806483.51647   9995183.32844  22705069.8364                   22705068.3794
  -9319941.36747  -7249908.51245  22932538.8444                   22932539.5554
  -6317600.03548  -4918909.69546  20703888.6174                   20703884.2154
  -8830208.66047  -6868349.69544  22786840.6644                   22786839.3874
 11  8 23  0 43  0.0000000  0  9G10G09G12G17G05G04G25G02G30
  -6269417.81647  -4875634.69146  21139241.5784                   21139239.2194
  17702189.50446  13806917.97743  24677161.9844                   24677164.3134
 -12818224.50448  -9975375.56246  20842540.3444                   20842537.6644
  29231653.55946  22788610.73443  23892987.0234                   23892986.5274
 -14920211.36348 -11613299.57846  20895790.6564                   20895788.7734
  12934553.65247  10094978.17644  22729440.3444                   22729439.2424
  -9355436.03147  -7277566.67245  22925784.3594                   22925784.6644
  -6254313.31348  -4869595.37546  20715931.3674                   20715927.1644
  -8861853.10947  -6893007.68044  22780819.0944                   22780817.2774
 11  8 23  0 43 30.0000000  0  9G10G09G12G17G05G04G25G02G30
  -6178799.36348  -4805022.91846  21156486.0084                   21156483.9924
  17829781.20746  13906339.92643  24701441.0554                   24701445.1604
 -12798293.43748  -9959844.85246  20846333.1484                   20846330.4264
  29341955.72747  22874560.47344  23913977.4384                   23913976.2194
 -14935210.25848 -11624986.98446  20892936.6024                   20892934.6334
  13062657.02347  10194798.91044  22753817.3524                   22753816.8244
  -9390564.57847  -7304939.55945  22919099.2034                   22919100.1804
  -6190809.78148  -4820112.10546  20728016.1954                   20728012.0704
  -8893058.04347  -6917323.19144  22774881.0164                   22774879.5744
 11  8 23  0 44  0.0000000  0  9G10G09G12G17G05G04G25G02G30
  -6087593.27748  -4733953.25446  21173841.7584                   21173839.9924
  17957329.69146  14005728.12942  24725711.7974                   24725716.2704
 -12777794.83248  -9943871.91046  20850233.6564                   20850230.7504
  29452458.92247  22960666.87143  23935005.2974                   23935004.3204
 -14949711.46548 -11636286.59046  20890177.1414                   20890175.0354
  13190791.96147  10294644.23444  22778201.5554                   22778200.4264
  -9425325.04747  -7332025.62545  22912484.7664                   22912485.1134
  -6127091.28948  -4770461.33246  20740141.3444                   20740136.9614
  -8923821.42647  -6941294.64544  22769027.0864                   22769025.2114
 11  8 23  0 44 30.0000000  0  9G10G09G12G17G05G04G25G02G30
  -5995803.06348  -4662428.41446  21191308.9224                   21191306.9844
  18084830.18446  14105078.97343  24749976.3754                   24749979.3714
 -12756728.73448  -9927456.76246  20854242.8364                   20854239.8484
  29563161.42247  23046928.53543  23956071.3984                   23956070.6484
 -14963714.88748 -11647198.30146  20887512.1724                   20887510.2814
  13318955.35947  10394511.74244  22802589.4614                   22802588.9534
  -9459716.57047  -7358824.21145  22905940.0474                   22905940.5784
  -6063160.44548  -4720645.09046  20752306.9534                   20752302.5634
  -8954142.34047  -6964921.30144  22763256.8754                   22763255.5634
 11  8 23  0 45  0.0000000  0  9G10G09G12G17G05G04G25G02G30
  -5903429.02347  -4590448.65646  21208887.1564                   21208885.0084
  18212280.72746  14204390.80543  24774228.7274                   24774233.1094
 -12735093.73048  -9910598.32046  20858359.3364                   20858356.6844
  29674064.79746  23133346.72743  23977175.6094                   23977174.3054
 -14977217.16848 -11657719.52046  20884943.2194                   20884940.9024
  13447146.95347  10494401.23044  22826983.6254                   22826982.9064
  -9493735.50047  -7385332.46145  22899466.7034                   22899467.2344
  -5999017.63748  -4670663.68046  20764512.8674                   20764508.2274
  -8984017.41447  -6988200.55945  22757572.0554                   22757570.2424
 11  8 23  0 45 30.0000000  0  9G10G09G12G17G05G04G25G02G30
  -5810475.48048  -4518017.33646  21226575.6174                   21226573.5044
  18339676.11346  14303659.66843  24798471.7584                   24798475.9804
 -12712890.65648  -9893297.20746  20862584.8204                   20862581.5634
  29785166.91846  23219919.80543  23998317.6484                   23998316.4454
 -14990218.78148 -11667850.60546  20882468.9304                   20882466.5434
  13575363.34447  10594310.03144  22851382.5004                   22851381.7894
  -9527381.67647  -7411550.27045  22893063.6804                   22893064.1214
  -5934666.36748  -4620519.82846  20776758.5084                   20776754.2504
  -9013446.41847  -7011132.24644  22751971.3204                   22751970.4104
 11  8 23  0 46  0.0000000  0  9G10G09G12G17G05G04G25G02G30
  -5716937.48848  -4445130.58246  21244375.4064                   21244373.3014
  18467020.44146  14402888.96942  24822703.7734                   24822707.6024
 -12690111.39848  -9875547.13346  20866919.4304                   20866916.5704
  29896474.82046  23306653.21143  24019498.3134                   24019498.5984
 -15002710.74248 -11677584.56646  20880091.6094                   20880089.7734
  13703609.85247  10694242.30945  22875786.9064                   22875786.7544
  -9560645.69547  -7437470.30145  22886734.6174                   22886734.3054
  -5870100.62148  -4570208.85246  20789044.9454                   20789040.6254
  -9042419.96947  -7033709.04344  22746458.2584                   22746456.7234
 11  8 23  0 46 30.0000000  0  9G10G09G12G17G05G04G25G02G30
  -5622822.65648  -4371794.35246  21262284.7584                   21262281.9694
  18594304.77746  14502071.28943  24846925.8284                   24846929.9414
 -12666760.62948  -9857351.71946  20871363.1564                   20871360.2384
  30007982.14846  23393542.03943  24040717.8204                   24040717.2424
 -15014697.49248 -11686924.86746  20877810.5944                   20877808.2074
  13831879.35947  10794192.49644  22900196.0314                   22900196.0124
  -9593530.96947  -7463095.18745  22880476.4614                   22880476.7894
  -5805328.13348  -4519736.78146  20801370.6564                   20801366.1724
  -9070941.53147  -7055933.62544  22741030.7894                   22741029.6174
 11  8 23  0 47  0.0000000  0  9G10G09G12G17G05G04G25G02G30
  -5528131.58248  -4298009.10245  21280304.0084                   21280301.7894
  18721527.52046  14601205.61344  24871137.0634                   24871141.2234
 -12642835.77748  -9838708.96946  20875915.8364                   20875912.8204
  30119691.05146  23480587.91443  24061975.5474                   24061975.1454
 -15026175.32848 -11695868.59046  20875626.4774                   20875624.3594
  13960172.21547  10894160.90644  22924609.3284                   22924608.8554
  -9626033.44147  -7488421.78145  22874291.0634                   22874291.9304
  -5740348.20348  -4469103.07046  20813736.2344                   20813731.7074
  -9099007.13347  -7077802.91044  22735689.6334                   22735688.1724
 11  8 23  0 47 30.0000000  0  9G10G09G12G17G05G04G25G02G30
  -5432864.95348  -4223775.36746  21298432.6094                   21298430.6334
  18848686.79746  14700290.47343  24895333.9774                   24895338.5744
 -12618335.39148  -9819617.75446  20880578.0234                   20880574.7154
  30231602.68446  23567791.77743  24083271.0944                   24083270.9884
 -15037141.36348 -11704413.51646  20873539.5634                   20873537.2304
  14088488.35247  10994147.45744  22949027.5084                   22949026.4654
  -9658149.48047  -7513447.26645  22868179.7664                   22868180.0164
  -5675160.91048  -4418307.77746  20826140.6884                   20826136.3444
  -9126613.27047  -7099314.19144  22730436.9304                   22730434.9024
 11  8 23  0 48  0.0000000  0  9G10G09G12G17G05G04G25G02G30
  -5337024.93048  -4149094.82446  21316670.0704                   21316667.9104
  18975779.45346  14799323.43042  24919518.0164                   24919523.3054
 -12593258.59048  -9800077.37146  20885349.8204                   20885347.1414
  30343716.61746  23655153.24243  24104605.4614                   24104605.8634
 -15047594.16048 -11712558.51246  20871550.4614                   20871548.4024
  14216825.71947  11094150.57844  22973449.4304                   22973448.4654
  -9689877.11747  -7538170.09445  22862141.7664                   22862142.4694
  -5609768.04748  -4367352.29746  20838584.4774                   20838580.1174
  -9153757.94947  -7120465.89144  22725271.1334                   22725269.6724
 11  8 23  0 48 30.0000000  0  8G10G12G17G05G04G25G02G30
  -5240613.83648  -4073969.28546  21335016.6724                   21335014.6564
 -12567604.46948  -9780087.13746  20890231.6884                   20890228.9264
  30456033.00846  23742672.49244  24125979.1804                   24125978.5354
 -15057532.06748 -11720302.30446  20869659.3364                   20869656.9734
  14345183.03147  11194169.22744  22997875.5554                   22997874.2854
  -9721214.01647  -7562588.44945  22856178.6804                   22856179.3244
  -5544170.90648  -4316237.64546  20851067.3524                   20851062.7624
  -9180438.87547  -7141256.22744  22720193.9614                   22720192.8444
 11  8 23  0 49  0.0000000  0  8G10G12G17G05G04G25G02G30
  -5143634.35948  -3998400.85246  21353471.2194                   21353469.2584
 -12541372.53948  -9759646.66846  20895223.3444                   20895220.5124
  30568551.41046  23830349.14543  24147390.3444                   24147390.6054
 -15066954.12548 -11727644.12146  20867866.1174                   20867863.9574
  14473558.77747  11294202.25044  23022303.8834                   23022303.1134
  -9752158.13347  -7586700.71945  22850290.6564                   22850291.1024
  -5478370.96948  -4264964.95746  20863588.5634                   20863584.1724
  -9206654.15647  -7161683.69544  22715205.7194                   22715203.8484
 11  8 23  0 49 30.0000000  0  8G10G12G17G05G04G25G02G30
  -5046081.76247  -3922385.82846  21372034.4774                   21372033.0904
 -12514555.46148  -9738750.23446  20900326.4144                   20900323.4884
  30681278.42446  23918188.38344  24168841.8834                   24168841.4774
 -15075851.61348 -11734577.19546  20866173.1414                   20866170.5784
  14601958.29747  11394253.80144  23046738.0164                   23046736.6844
  -9782700.43447  -7610499.89545  22844478.4454                   22844479.1564
  -5412363.24648  -4213530.36746  20876149.9534                   20876145.4024
  -9232394.91047  -7181741.41844  22710307.0314                   22710305.3594
 11  8 23  0 50  0.0000000  0  8G10G12G17G05G04G25G02G30
  -4947958.72747  -3845926.31645  21390706.8984                   21390704.4924
 -12487152.94948  -9717397.62146  20905541.1724                   20905537.9104
  30794213.47346  24006189.69944  24190333.1804                   24190332.2894
 -15084223.50048 -11741100.71546  20864579.9774                   20864577.5394
  14730379.59047  11494322.33644  23071175.5864                   23071174.4884
  -9812839.25047  -7633984.64145  22838743.1884                   22838743.8244
  -5346149.58648  -4161935.30546  20888749.3134                   20888745.1294
  -9257659.46147  -7201428.07044  22705499.1564                   22705498.1254
 11  8 23  0 50 30.0000000  0  8G10G12G17G05G04G25G02G30
  -4849266.47747  -3769023.25445  21409487.3444                   21409485.6454
 -12459163.61748  -9695587.73846  20910867.4924                   20910864.4414
  30907357.48046  24094353.87944  24211863.3754                   24211862.6564
 -15092067.48848 -11747212.87546  20863087.3754                   20863085.1414
  14858821.94947  11594407.30144  23095616.9694                   23095615.9964
  -9842571.48847  -7657152.59845  22833085.6024                   22833085.9024
  -5279730.36348  -4110180.06646  20901388.6254                   20901384.2854
  -9282444.82047  -7220741.32445  22700782.7734                   22700781.4024
 11  8 23  0 51  0.0000000  0  8G10G12G17G05G04G25G02G30
  -4750010.33647  -3691680.79346  21428375.1094                   21428372.9534
 -12430589.45748  -9673322.15246  20916304.6724                   20916302.0984
  31020706.73047  24182678.00044  24233433.0164                   24233432.1604
 -15099385.09848 -11752914.86346  20861694.9144                   20861692.8794
  14987281.10947  11694505.37144  23120061.9144                   23120061.0434
  -9871897.86747  -7680004.27045  22827504.7664                   22827505.1644
  -5213110.07848  -4058268.14846  20914066.0634                   20914061.5744
  -9306751.81647  -7239681.80945  22696157.4064                   22696156.0514
 11  8 23  0 51 30.0000000  0  8G10G12G17G05G04G25G02G30
  -4650196.78948  -3613903.98046  21447369.2034                   21447367.0514
 -12401434.34448  -9650603.87946  20921852.8674                   20921849.6564
  31134257.46947  24271159.11344  24255041.1254                   24255040.5554
 -15106178.73448 -11758208.56646  20860402.0394                   20860399.7194
  15115751.65247  11794612.28944  23144509.3984                   23144508.1334
  -9900820.24647  -7702541.14545  22822000.7894                   22822001.3754
  -5146294.00448  -4006203.66846  20926780.7274                   20926776.2664
  -9330582.44947  -7258251.10244  22691622.6094                   22691621.3954
 11  8 23  0 52  0.0000000  0  8G10G12G17G05G04G25G02G30
  -4549827.15248  -3535693.85946  21466468.6804                   21466466.8244
 -12371696.21148  -9627431.30146  20927511.7974                   20927508.9844
  31248010.41847  24359797.78144  24276687.5944                   24276687.1214
 -15112446.06248 -11763092.16446  20859209.2664                   20859206.9454
  15244233.26647  11894727.84044  23168958.1804                   23168957.5594
  -9929335.39547  -7724760.66445  22816574.5084                   22816575.1884
  -5079282.80948  -3953987.14146  20939532.3524                   20939527.9844
  -9353933.53547  -7276446.71145  22687178.6174                   22687177.6094
 11  8 23  0 52 30.0000000  0  8G10G12G17G05G04G25G02G30
  -4448899.59048  -3457048.99646  21485674.5164                   21485672.6214
 -12341370.61748  -9603800.96546  20933282.6094                   20933279.6604
  31361969.53147  24448597.11344  24298373.7194                   24298372.9144
 -15118181.46548 -11767561.26246  20858117.9924                   20858115.5044
  15372728.54347  11994854.02044  23193410.0394                   23193409.4304
  -9957436.90247  -7746657.90245  22811226.9694                   22811227.3714
  -5012073.23848  -3901616.03146  20952321.8524                   20952317.1094
  -9376798.81647  -7294263.78945  22682827.8674                   22682826.2734
 11  8 23  0 53  0.0000000  0  8G10G12G17G05G04G25G02G30
  -4347419.22348  -3377973.38345  21504985.8834                   21504983.9304
 -12310459.92648  -9579714.71946  20939164.7814                   20939161.7974
  31476131.98047  24537554.87944  24320097.6254                   24320097.4694
 -15123386.34048 -11771616.97746  20857127.1644                   20857124.8404
  15501233.44547  12094987.71944  23217864.0084                   23217863.1914
  -9985125.46947  -7768233.34045  22805958.1484                   22805958.6764
  -4944670.04748  -3849094.05546  20965148.4304                   20965143.7034
  -9399179.13747  -7311702.96145  22678568.9144                   22678567.4844
 11  8 23  0 53 30.0000000  0  8G10G12G17G05G04G25G02G30
  -4245387.84448  -3298468.41445  21524401.6644                   21524399.2194
 -12278963.14848  -9555171.77346  20945158.2584                   20945155.5704
  31590497.55946  24626670.91843  24341860.7734                   24341860.0824
 -15128059.06648 -11775258.02346  20856238.1644                   20856236.1214
  15629746.81347  12195128.00844  23242319.1334                   23242318.2814
 -10012398.67647  -7789485.12145  22800767.7034                   22800768.6954
  -4877074.28948  -3796422.02346  20978011.6954                   20978007.3754
  -9421072.10947  -7328762.35545  22674402.9064                   22674401.5314
 11  8 23  0 54  0.0000000  0  8G10G12G17G05G04G25G02G30
  -5718225.41048  -4446134.04345  21244130.1414                   21244128.2814
 -13822299.94948 -10757771.88746  20651470.9304                   20651467.9734
  30129649.42647  23488347.70344  24063870.6174                   24063869.7704
 -16707619.20348 -13006084.07046  20555657.8444                   20555655.5554
  14182850.87947  11067676.64544  22966984.3674                   22966983.5474
 -11614675.96547  -9038012.80945  22495864.8444                   22495864.8834
  -6384705.59448  -4971199.66446  20691118.9924                   20691114.5004
 -11017897.19147  -8573041.59845  22370537.2424                   22370535.2704
 11  8 23  0 54 30.0000000  0  8G10G12G17G05G04G25G02G30
  -5615105.99248  -4365781.25046  21263753.1724                   21263750.7274
 -13789636.11348 -10732319.54746  20657686.8524                   20657684.3284
  30244415.10946  23577775.50843  24085709.1804                   24085708.9184
 -16711229.12948 -13008896.95746  20554971.0314                   20554968.6524
  14311371.27047  11167822.42644  22991440.6564                   22991439.4104
 -11641117.87147  -9058616.83645  22490833.0554                   22490833.4774
  -6316734.56648  -4918235.21546  20704053.2114                   20704048.9924
 -11038815.48047  -8589341.52045  22366556.5864                   22366555.0274
 11  8 23  0 55  0.0000000  0  8G10G12G17G05G04G25G02G30
  -5511440.46147  -4285002.92645  21283479.8914                   21283477.9774
 -13756382.41048 -10706407.57446  20664014.9384                   20664012.2894
  30359385.79746  23667363.04344  24107588.0554                   24107587.2194
 -16714300.78948 -13011290.41046  20554386.3054                   20554383.9734
  14439898.47747  11267973.52744  23015899.0784                   23015897.4414
 -11667135.49247  -9078890.22745  22485881.2814                   22485882.3524
  -6248572.44948  -4865121.87546  20717024.0554                   20717019.8324
 -11059237.93747  -8605255.06645  22362670.2894                   22362668.7584
 11  8 23  0 55 30.0000000  0  8G10G12G17G05G04G25G02G30
  -5407236.67248  -4203805.17245  21303309.4224                   21303307.5744
 -13722543.76248 -10680039.79746  20670453.7814                   20670450.9344
  30474556.28546  23757106.28543  24129504.1094                   24129503.3634
 -16716837.76648 -13013267.23846  20553903.6884                   20553901.2234
  14568426.01647  11368124.86744  23040356.1724                   23040355.3594
 -11692731.92247  -9098835.44145  22481010.8984                   22481011.6024
  -6180226.00448  -4811864.90246  20730029.9534                   20730025.4694
 -11079167.79947  -8620784.75845  22358877.9694                   22358876.0514
 11  8 23  0 56  0.0000000  0  8G10G12G17G05G04G25G02G30
  -5302493.00048  -4122186.72745  21323241.2814                   21323239.4144
 -13688115.62548 -10653212.69146  20677005.5474                   20677002.9144
  30589930.00446  23847007.87543  24151459.1024                   24151458.5664
 -16718834.52748 -13014823.12146  20553523.5944                   20553520.9104
  14696956.75047  11468278.70744  23064815.9924                   23064814.6844
 -11717901.03548  -9118447.66845  22476221.4844                   22476222.0904
  -6111692.54748  -4758462.20346  20743071.5864                   20743067.3134
 -11098599.14147  -8635926.00445  22355180.1954                   22355178.2034
 11  8 23  0 56 30.0000000  0  8G10G12G17G05G04G25G02G30
  -5197209.16848  -4040147.38745  21343276.0864                   21343274.5474
 -13653095.04748 -10625923.93446  20683669.5314                   20683667.0234
  30705509.59046  23937069.89843  24173452.5554                   24173452.4384
 -16720287.32448 -13015955.13347  20553246.8204                   20553244.6884
  14825491.79347  11568435.90644  23089274.9304                   23089274.0204
 -11742638.03547  -9137723.21145  22471513.5784                   22471514.3284
  -6042970.84848  -4704912.82446  20756148.8674                   20756144.2774
 -11117527.28547  -8650675.14545  22351577.6564                   22351576.3244
 11  8 23  0 57  0.0000000  0  8G10G12G17G05G04G25G02G30
  -5091393.09048  -3957693.30145  21363412.0554                   21363410.0234
 -13617487.23848 -10598177.59046  20690445.6174                   20690442.4574
  30821289.48446  24027287.98443  24195484.9224                   24195484.4844
 -16721200.37148 -13016666.57047  20553073.4774                   20553070.9534
  14954024.78547  11668591.50444  23113734.0474                   23113732.6254
 -11766946.08247  -9156664.48845  22466888.6174                   22466888.8524
  -5974067.42648  -4651221.84846  20769260.5634                   20769256.1174
 -11135955.60247  -8665034.82045  22348071.4304                   22348069.8014
 11  8 23  0 57 30.0000000  0  8G10G12G17G05G04G25G02G30
  -4985049.08248  -3874827.84846  21383648.7034                   21383646.8714
 -13581293.20748 -10569974.46146  20697333.6174                   20697330.5234
  30937267.80146  24117660.68443  24217554.9924                   24217554.1134
 -16721573.93748 -13016957.62146  20553002.2424                   20552999.7234
  15082552.60547  11768743.06344  23138191.7194                   23138190.8134
 -11790824.80947  -9175271.25445  22462344.4694                   22462344.8794
  -5904985.19948  -4597391.54746  20782406.7114                   20782402.2624
 -11153883.82447  -8679004.79745  22344659.5234                   22344657.5314
 11  8 23  0 58  0.0000000  0  8G10G12G17G05G04G25G02G30
  -4878174.75048  -3791549.14845  21403986.8834                   21403984.4694
 -13544508.03948 -10541310.69946  20704333.4384                   20704330.2344
  31053449.19546  24208191.66043  24239662.9304                   24239662.9024
 -16721401.88348 -13016823.51246  20553034.8134                   20553032.9224
  15211079.03547  11868893.53944  23162649.9064                   23162648.1334
 -11814267.21147  -9193538.02045  22457883.5474                   22457883.6804
  -5835720.99248  -4543419.43746  20795587.1254                   20795582.8054
 -11171305.19947  -8692579.83245  22341344.1254                   22341342.3324
 11  8 23  0 58 30.0000000  0  8G10G12G17G05G04G25G02G30
  -4770769.04748  -3707856.40245  21424425.7814                   21424423.1484
 -13507127.92248 -10512183.34446  20711446.4384                   20711443.6454
  31169836.93846  24298883.41843  24261811.0944                   24261811.0784
 -16720679.66848 -13016260.71146  20553172.0944                   20553170.2234
  15339606.24247  11969044.64844  23187107.1564                   23187106.4494
 -11837267.71547  -9211460.46945  22453506.6484                   22453506.7274
  -5766272.40648  -4489303.66046  20808802.9384                   20808798.0704
 -11188214.26247  -8705755.67245  22338126.4614                   22338124.7664
 11  8 23  0 59  0.0000000  0  8G10G12G17G05G04G25G02G30
  -4662841.87947  -3623757.31645  21444962.8594                   21444961.2114
 -13469159.50448 -10482597.56646  20718671.5554                   20718668.4264
  31286423.28546  24389729.89142  24283996.9384                   24283996.2734
 -16719413.50448 -13015274.04746  20553413.1644                   20553410.9654
  15468125.62147  12069189.64144  23211563.7734                   23211562.4064
 -11859831.50047  -9229042.60945  22449212.4454                   22449212.5864
  -5696647.96148  -4435050.84446  20822052.0004                   20822047.2624
 -11204616.44947  -8718536.55945  22335005.2114                   22335003.7974
 11  8 23  0 59 30.0000000  0  9G10G29G12G17G05G04G25G02G30
  -4554398.39147  -3539255.89845  21465598.9844                   21465596.8134
  -6336631.86756  -4929735.64553  24602092.4224                   24602092.5664
 -13430605.93048 -10452555.82046  20726008.2974                   20726005.0824
  31403205.19546  24480728.75843  24306219.1414                   24306218.9264
 -16717604.85548 -13013864.68047  20553757.3524                   20553755.3954
  15596633.22747  12169325.44944  23236017.8364                   23236016.7234
 -11881959.32447  -9246285.06245  22445001.7814                   22445002.2664
  -5626852.02348  -4380664.40246  20835333.6094                   20835329.2154
 -11220512.68447  -8730923.19945  22331980.5784                   22331978.7154
 11  8 23  1  0  0.0000000  0  9G10G29G12G17G05G04G25G02G30
  -4445427.98048  -3454343.89545  21486335.3674                   21486333.5314
  -6369308.31646  -4955197.71143  24595874.3524                   24595873.8404
 -13391453.40648 -10422047.36346  20733458.7034                   20733455.9534
  31520195.75846  24571890.23043  24328482.6484                   24328481.7704
 -16715239.05148 -13012021.16046  20554207.7664                   20554204.9884
  15725141.38647  12269461.67344  23260472.3834                   23260470.9654
 -11903635.70347  -9263175.73845  22440877.3594                   22440877.2304
  -5556872.52348  -4326134.92246  20848650.3284                   20848645.7154
 -11235887.72747  -8742903.70745  22329054.0864                   22329052.5704
 11  8 23  1  0 30.0000000  0  9G10G29G12G17G05G04G25G02G30
  -4335944.84047  -3369032.36745  21507168.8134                   21507167.4884
  -6402058.49646  -4980717.28143  24589641.9694                   24589641.1804
 -13351713.34848 -10391081.07846  20741020.7894                   20741018.0234
  31637383.29346  24663205.19543  24350782.4304                   24350782.0314
 -16712326.95348 -13009751.96147  20554761.5004                   20554759.6214
  15853637.10946  12369588.21144  23284924.0944                   23284923.2734
 -11924870.35947  -9279722.23045  22436836.3204                   22436836.1994
  -5486722.19948  -4271472.33246  20861999.2034                   20861994.8524
 -11250751.37147  -8754485.75045  22326225.9224                   22326224.1294
 11  8 23  1  1  0.0000000  0  9G10G29G12G17G05G04G25G02G30
  -4225948.12947  -3283320.65645  21528100.7894                   21528099.1294
  -6434878.67247  -5006291.39543  24583397.4064                   24583396.2274
 -13311382.07848 -10359654.10546  20748695.3524                   20748692.8404
  31754770.63346  24754675.86343  24373120.8204                   24373120.3444
 -16708863.95348 -13007053.48047  20555420.6564                   20555418.3054
  15982122.72746  12469706.84044  23309373.9534                   23309373.3484
 -11945657.69147  -9295920.16445  22432881.0004                   22432880.7704
  -5416398.85548  -4216674.92646  20875381.2504                   20875376.4734
 -11265098.29347  -8765665.16445  22323496.0784                   22323493.9184
 11  8 23  1  1 30.0000000  0  9G10G29G12G17G05G04G25G02G30
  -4115438.79348  -3197209.48445  21549130.2424                   21549128.4614
  -6467766.36347  -5031918.09843  24577138.7034                   24577138.3404
 -13270457.86348 -10327765.09846  20756483.3594                   20756480.2974
  31872359.72347  24846303.73043  24395497.8134                   24395496.6564
 -16704846.57448 -13003923.01246  20556185.2274                   20556182.6294
  16110599.01246  12569818.24243  23333821.6254                   23333821.2464
 -11965993.70347  -9311766.41045  22429010.8284                   22429011.1134
  -5345902.21948  -4161742.46946  20888796.6484                   20888791.8754
 -11278924.73447  -8776438.98445  22320864.6174                   22320862.7464
 11  8 23  1  2  0.0000000  0  9G10G29G12G17G05G04G25G02G30
  -4004424.12547  -3110704.55945  21570255.3674                   21570253.7114
  -6500726.28547  -5057601.11344  24570866.6954                   24570865.8594
 -13228945.16448 -10295417.53146  20764383.1094                   20764379.6804
  31990145.04747  24938084.51644  24417910.7584                   24417910.8364
 -16700279.18748 -13000363.97346  20557054.0704                   20557051.9454
  16239059.77046  12669917.50844  23358266.9454                   23358266.3984
 -11985881.35247  -9327263.29345  22425226.3284                   22425226.4064
  -5275238.16048  -4106679.56646  20902243.1024                   20902239.0474
 -11292233.89547  -8786809.76245  22318332.2194                   22318330.3444
 11  8 23  1  2 30.0000000  0  9G10G29G12G17G05G04G25G02G30
  -3892905.67648  -3023807.07445  21591476.9844                   21591475.0554
  -6533757.13346  -5083339.37143  24564581.4924                   24564580.5554
 -13186842.53948 -10262610.27746  20772394.8914                   20772391.8674
  32108127.25447  25030018.73044  24440362.6024                   24440362.1374
 -16695159.86748 -12996374.85947  20558028.3054                   20558025.9064
  16367505.04746  12770004.73044  23382710.2194                   23382708.6134
 -12005317.59047  -9342408.43745  22421527.7114                   22421527.9964
  -5204406.95748  -4051486.42246  20915722.0634                   20915717.6414
 -11305022.87147  -8796775.21545  22315898.3444                   22315896.6254
 11  8 23  1  3  0.0000000  0  9G10G29G12G17G05G04G25G02G30
  -3780882.77748  -2936516.50845  21612793.7894                   21612792.2774
  -6566855.20346  -5109130.05943  24558282.3364                   24558282.0824
 -13144147.23848 -10229341.20346  20780519.2344                   20780516.2704
  32226309.66047  25122108.90244  24462851.6024                   24462851.7814
 -16689484.26248 -12991952.27746  20559107.9774                   20559105.7814
  16495936.70746  12870081.32444  23407149.4694                   23407148.6484
 -12024297.19147  -9357197.76245  22417916.1884                   22417916.2854
  -5133406.87148  -3996161.67646  20929232.8834                   20929228.6764
 -11317286.69147  -8806331.44945  22313564.7734                   22313563.3014
 11  8 23  1  3 30.0000000  0  9G10G29G12G17G05G04G25G02G30
  -3668355.39548  -2848832.82645  21634207.4614                   21634205.3954
  -6600017.75046  -5134970.94943  24551972.5704                   24551971.6374
 -13100856.26948 -10195607.97046  20788757.3054                   20788754.4654
  32344694.49647  25214356.80944  24485380.0554                   24485379.2894
 -16683248.62248 -12987093.29947  20560295.2114                   20560292.7544
  16624356.56446  12970148.71144  23431587.5164                   23431586.1954
 -12042815.47747  -9371627.61345  22414392.1024                   22414392.3594
  -5062236.39148  -3940704.14846  20942776.1724                   20942771.8284
 -11329020.93747  -8815475.03145  22311331.6644                   22311330.3484
 11  8 23  1  4  0.0000000  0  9G10G29G12G17G05G04G25G02G30
  -3555327.54048  -2760759.19045  21655715.8444                   21655714.3054
  -6633245.16246  -5160862.41943  24545648.9614                   24545648.2114
 -13056971.23848 -10161411.83246  20797108.3134                   20797105.3594
  32463280.49247  25306761.48244  24507945.8674                   24507945.5904
 -16676452.98548 -12981797.96746  20561588.1174                   20561585.6024
  16752762.50446  13070205.29743  23456021.9064                   23456020.6484
 -12060871.33048  -9385697.13145  22410956.3984                   22410956.7274
  -4990897.63348  -3885115.50446  20956351.5704                   20956346.8794
 -11340224.72747  -8824205.28545  22309199.7424                   22309198.1644
 11  8 23  1  4 30.0000000  0  9G10G29G12G17G05G04G25G02G30
  -3441801.28948  -2672297.17645  21677319.1804                   21677316.9884
  -6666536.37146  -5186803.56243  24539314.7194                   24539313.4964
 -13012490.96948 -10126751.86746  20805572.8364                   20805569.7664
  32582067.80547  25399323.03944  24530549.8674                   24530549.9884
 -16669095.78948 -12976065.05146  20562988.0554                   20562985.5864
  16881153.96947  13170250.57443  23480454.4304                   23480452.3674
 -12078462.27047  -9399404.36745  22407609.0004                   22407609.2774
  -4919391.37148  -3829396.33246  20969958.9224                   20969954.1294
 -11350895.82447  -8832520.44145  22307169.3524                   22307167.6724
 11  8 23  1  5  0.0000000  0  9G10G29G12G17G05G04G25G02G30
  -3327784.71948  -2583453.09045  21699015.5634                   21699013.8284
  -6699896.83246  -5212798.69143  24532965.3834                   24532965.1914
 -12967421.52748 -10091632.82446  20814149.1094                   20814146.2544
  32701050.31346  25492036.67644  24553191.6564                   24553191.6334
 -16661181.57448 -12969898.09846  20564494.0004                   20564491.5394
  17009524.16847  13270279.28544  23504882.3364                   23504880.9844
 -12095592.06647  -9412752.26645  22404349.3054                   22404349.2814
  -4847724.30948  -3773551.87546  20983596.6644                   20983591.9654
 -11361038.23847  -8840423.64145  22305238.9774                   22305237.5984
 11  8 23  1  5 30.0000000  0  8G10G29G12G05G04G25G02G30
  -3213274.14848  -2494224.07045  21720807.0944                   21720804.8444
  -6733319.31246  -5238842.17643  24526605.7194                   24526604.9494
 -12921756.09048 -10056049.36346  20822838.8674                   20822835.6994
 -16652703.26248 -12963291.59446  20566107.3204                   20566104.7704
  17137878.75047  13370295.81344  23529307.6024                   23529306.5204
 -12112252.09447  -9425734.10245  22401178.7504                   22401179.0664
  -4775891.36348  -3717578.14846  20997265.8594                   20997261.0664
 -11370643.54347  -8847908.30545  22303411.2114                   22303409.7074
 11  8 23  1  6  0.0000000  0  8G10G29G12G05G04G25G02G30
  -3098278.17648  -2404616.80945  21742689.4454                   21742687.7544
  -6766809.53946  -5264938.41043  24520232.0944                   24520231.8674
 -12875500.80148 -10020006.27746  20831641.0554                   20831638.4694
 -16643665.74648 -12956249.33647  20567827.0634                   20567824.6134
  17266210.48847  13470294.54344  23553727.9384                   23553727.5124
 -12128446.46147  -9438353.08645  22398096.8444                   22398097.5744
  -4703899.77748  -3661480.81646  21010965.3914                   21010961.0274
 -11379716.26247  -8854977.96945  22301684.6414                   22301683.0664
 11  8 23  1  6 30.0000000  0  8G10G29G12G05G04G25G02G30
  -2982783.68748  -2314621.09845  21764667.1724                   21764665.7074
  -6800351.05946  -5291074.61343  24513849.6484                   24513848.9844
 -12828639.59048  -9983491.05146  20840558.3284                   20840555.5944
 -16634051.85548 -12948757.96547  20569656.5084                   20569653.8874
  17394534.46146  13570287.21544  23578147.3444                   23578146.3204
 -12144157.23447  -9450595.22745  22395107.4614                   22395107.5004
  -4631734.66048  -3605248.25846  21024697.9694                   21024693.5744
 -11388238.48447  -8861618.66445  22300063.1644                   22300061.6804
 11  8 23  1  7  0.0000000  0  8G10G29G12G05G04G25G02G30
  -2866808.02347  -2224250.44545  21786737.0864                   21786734.6054
  -6833958.30146  -5317262.02743  24507454.7504                   24507453.7074
 -12781187.46548  -9946515.36746  20849588.4384                   20849585.5354
 -16623876.25448 -12940828.88746  20571592.8834                   20571590.6174
  17522834.77347  13670261.48844  23602562.0944                   23602561.3204
 -12159397.30947  -9462470.59845  22392207.0704                   22392207.5204
  -4559412.09848  -3548893.01646  21038460.6804                   21038456.0704
 -11396223.52347  -8867840.77745  22298543.7114                   22298542.0394
 11  8 23  1  7 30.0000000  0  8G10G29G12G05G04G25G02G30
  -2750347.78547  -2133502.20345  21808898.5704                   21808896.6844
  -6867624.60546  -5343495.46943  24501047.9224                   24501047.1294
 -12733138.11748  -9909074.33246  20858731.5004                   20858728.6454
 -16613131.69948 -12932456.47347  20573637.7034                   20573634.8204
  17651116.54347  13770221.25444  23626973.4384                   23626973.0744
 -12174158.53547  -9473972.81645  22389398.4224                   22389398.5124
  -4486926.80148  -3492410.96546  21052253.8364                   21052249.3324
 -11403663.54747  -8873638.19945  22297127.7344                   22297125.9344
 11  8 23  1  8  0.0000000  0  8G10G29G12G05G04G25G02G30
  -2633407.06248  -2042379.55545  21831151.6334                   21831149.3444
  -6901350.12546  -5369775.04343  24494630.0084                   24494629.5354
 -12684493.52748  -9871169.46146  20867988.4924                   20867985.5664
 -16601818.41448 -12923640.88746  20575790.3444                   20575787.8594
  17779377.55547  13870164.85244  23651380.4454                   23651379.9184
 -12188440.23447  -9485101.37945  22386680.8364                   22386681.0354
  -4414281.47348  -3435804.21546  21066078.1024                   21066073.8524
 -11410558.11747  -8879010.57845  22295816.1954                   22295813.9574
 11  8 23  1  8 30.0000000  0  8G10G29G12G05G04G25G02G30
  -2515992.82047  -1950887.93045  21853494.3524                   21853492.6844
  -6935139.30146  -5396104.15243  24488200.7424                   24488199.8554
 -12635258.04748  -9832804.16446  20877358.0004                   20877354.8134
 -16589940.05148 -12914384.98846  20578050.7034                   20578048.3134
  17907612.65247  13970088.23444  23675782.8984                   23675781.8054
 -12202244.91047  -9495858.22346  22384053.7504                   22384053.7154
  -4341481.66448  -3379077.10246  21079931.0784                   21079926.6174
 -11416910.00447  -8883960.09445  22294607.3364                   22294605.0744
 11  8 23  1  9  0.0000000  0  8G10G29G12G05G04G25G02G30
  -2398110.70348  -1859031.71945  21875926.7114                   21875924.6484
  -6968994.58246  -5422484.81643  24481757.5004                   24481757.2114
 -12585434.53148  -9793980.66046  20886839.0314                   20886835.7734
 -16577498.72348 -12904690.40647  20580418.1024                   20580415.5124
  18035817.93046  14069988.39144  23700179.4224                   23700179.0594
 -12215573.59447  -9506244.16445  22381517.5704                   22381517.5164
  -4268531.30948  -3322232.66446  21093813.4614                   21093808.8954
 -11422720.50847  -8888487.72745  22293501.3524                   22293500.1564
 11  8 23  1  9 30.0000000  0  8G10G29G12G05G04G25G02G30
  -2279757.65247  -1766808.56245  21898449.0474                   21898446.3134
  -7002909.18446  -5448911.69943  24475303.7424                   24475302.7704
 -12535017.41448  -9754694.60946  20896433.0634                   20896429.8984
 -16564487.72748 -12894551.93446  20582894.0944                   20582891.4414
  18163998.45347  14169869.27343  23724570.9304                   23724570.7584
 -12228418.41448  -9516253.06246  22379073.2504                   22379073.4224
  -4195425.46148  -3265267.07446  21107724.8754                   21107720.6214
 -11427982.10947  -8892587.66045  22292500.2344                   22292498.3554
 11  8 23  1 10  0.0000000  0  8G10G29G12G05G04G25G02G30
  -2160937.34047  -1674221.27745  21921059.4384                   21921057.6524
  -7036883.57046  -5475385.15243  24468838.3984                   24468837.5904
 -12484007.78148  -9714946.86746  20906139.7504                   20906136.8484
 -16550907.21148 -12883969.68446  20585478.0004                   20585475.9184
  18292152.29747  14269729.35244  23748958.0944                   23748958.2154
 -12240778.37148  -9525884.14145  22376721.1094                   22376721.3794
  -4122166.28548  -3208182.00446  21121665.6334                   21121661.4384
 -11432694.12947  -8896259.34845  22291603.4144                   22291601.1604
 11  8 23  1 10 30.0000000  0  8G10G29G12G05G04G25G02G30
  -2041649.94547  -1581270.06245  21943758.8834                   21943757.2974
  -7070914.86346  -5501902.98044  24462362.9614                   24462362.4454
 -12432403.55948  -9674735.79746  20915959.8284                   20915956.7194
 -16536753.88348 -12872941.07447  20588171.2584                   20588169.0784
  18420281.09447  14369569.91444  23773340.6724                   23773340.0354
 -12252649.11748  -9535134.01246  22374462.1414                   22374462.1764
  -4048752.32848  -3150976.32046  21135635.5944                   21135631.0004
 -11436852.47347  -8899499.57845  22290811.9614                   22290810.1954
 11  8 23  1 11  0.0000000  0  8G10G29G12G05G04G25G02G30
  -3497317.23847  -2715556.25445  21666754.4774                   21666752.4964
  -8680426.48046  -6756067.79744  24156083.0164                   24156081.6254
 -13955626.41848 -10861662.72746  20626099.8914                   20626097.0434
 -18097449.86748 -14089067.78547  20291181.0084                   20291178.7584
  16972965.17646  13241791.25844  23497925.5704                   23497925.1954
 -13839452.17248 -10771603.87145  22072503.3364                   22072503.4654
  -5550605.41048  -4321251.45346  20849842.8444                   20849838.4064
 -13015878.71147 -10129909.59445  21990334.0314                   21990331.7194
 11  8 23  1 11 30.0000000  0  8G10G29G12G05G04G25G02G30
  -3377110.23447  -2621888.45745  21689629.3284                   21689627.8984
  -8714575.89146  -6782677.64844  24149584.6334                   24149583.5044
 -13902840.01248 -10820530.48046  20636145.1954                   20636142.3594
 -18082155.44948 -14077150.02047  20294091.0784                   20294088.9694
  17101034.71947  13341585.64843  23522296.5314                   23522295.4064
 -13850345.37948 -10780092.02346  22070430.2114                   22070430.7504
  -5476892.02348  -4263812.44946  20863869.5394                   20863865.6374
 -13018931.50447 -10132288.35245  21989752.5084                   21989750.9734
 11  8 23  1 12  0.0000000  0  8G10G29G12G05G04G25G02G30
  -3256452.17247  -2527869.18445  21712590.0474                   21712587.8204
  -8748787.68046  -6809336.13744  24143074.0084                   24143072.8524
 -13849467.29348 -10778941.35946  20646301.3834                   20646298.3874
 -18066293.83248 -14064790.28547  20297109.6644                   20297107.3364
  17229069.20347  13441352.71544  23546660.8204                   23546660.1914
 -13860751.32847 -10788200.48446  22068450.0394                   22068450.6564
  -5403034.68448  -4206261.27046  20877924.6804                   20877920.2074
 -13021433.59047 -10134237.97745  21989276.4774                   21989274.1724
 11  8 23  1 12 30.0000000  0  8G10G29G12G05G04G25G02G30
  -3135333.05548  -2433490.64845  21735638.3364                   21735636.4344
  -8783048.59446  -6836032.89144  24136554.0634                   24136553.3554
 -13795495.84048 -10736885.69146  20656571.8914                   20656568.9534
 -18049851.82448 -14051978.28947  20300238.2114                   20300235.8594
  17357080.20347  13541101.47344  23571020.3594                   23571020.1564
 -13870655.58248 -10795918.02746  22066565.4694                   22066565.4414
  -5329021.85248  -4148588.92246  20892008.8364                   20892004.1914
 -13023370.80947 -10135747.45345  21988907.4534                   21988905.9024
 11  8 23  1 13  0.0000000  0  8G10G29G12G05G04G25G02G30
  -3013775.78948  -2338770.70345  21758769.7424                   21758768.0004
  -8817377.90246  -6862782.95744  24130021.1254                   24130020.9224
 -13740946.10248 -10694379.41446  20666952.3754                   20666949.1524
 -18032848.68448 -14038729.06246  20303474.0784                   20303471.7344
  17485046.82447  13640815.66044  23595372.1094                   23595371.2114
 -13880076.45347 -10803258.91845  22064772.5394                   22064773.2074
  -5254874.52048  -4090811.77346  20906118.5554                   20906114.1134
 -13024761.78547 -10136831.28545  21988642.8754                   21988640.9184
 11  8 23  1 13 30.0000000  0  8G10G29G12G05G04G25G02G30
  -2891768.00047  -2243699.69945  21781987.2584                   21781984.6604
  -8851759.96146  -6889574.13344  24123478.7814                   24123477.9614
 -13685803.48048 -10651411.15646  20677445.6884                   20677442.8094
 -18015268.68748 -14025030.32847  20306819.3054                   20306817.1914
  17612983.83247  13740506.79743  23619717.3524                   23619716.1254
 -13888996.68748 -10810209.69145  22063074.9694                   22063075.5004
  -5180578.44548  -4032918.72346  20920256.3284                   20920251.9774
 -13025589.60248 -10137476.28145  21988485.3674                   21988483.4654
 11  8 23  1 14  0.0000000  0  8G10G29G12G05G04G25G02G30
  -2769317.44948  -2148283.69145  21805288.6254                   21805286.8244
  -8886199.24246  -6916409.91844  24116925.5314                   24116924.5944
 -13630073.24648 -10607985.00046  20688050.8914                   20688048.0434
 -17997116.06248 -14010885.38347  20310273.2114                   20310271.3404
  17740885.02347  13840170.02743  23644055.5084                   23644055.2544
 -13897419.76648 -10816773.07845  22061472.0234                   22061472.5744
  -5106139.62548  -3974914.43046  20934421.9304                   20934417.0704
 -13025858.18047 -10137685.52745  21988434.4304                   21988432.0664
 11  8 23  1 14 30.0000000  0  8G10G29G12G05G04G25G02G30
  -2646432.41047  -2052529.12945  21828672.9694                   21828671.4184
  -8920700.48046  -6943293.98844  24110359.7894                   24110358.7704
 -13573761.17648 -10564105.47746  20698766.4614                   20698763.5164
 -17978395.82048 -13996298.15647  20313835.6094                   20313833.3914
  17868743.95347  13939800.31643  23668387.3754                   23668385.4104
 -13905349.43748 -10822952.00445  22059962.9454                   22059963.0204
  -5031565.35548  -3916804.59846  20948612.9774                   20948608.2384
 -13025571.48047 -10137462.07045  21988488.4534                   21988486.8094
 11  8 23  1 15  0.0000000  0  8G10G29G12G05G04G25G02G30
  -2523098.28147  -1956424.61345  21852142.6334                   21852140.7894
  -8955245.11346  -6970211.86344  24103785.9774                   24103785.0784
 -13516850.54748 -10519759.53146  20709596.2584                   20709593.5664
 -17959090.18448 -13981254.76647  20317509.8054                   20317507.3134
  17996577.60547  14039410.92243  23692712.5784                   23692712.0004
 -13912766.34848 -10828731.37546  22058551.6564                   22058552.1334
  -4956838.56348  -3858575.91446  20962832.9304                   20962828.6684
 -13024710.61347 -10136791.21545  21988652.4844                   21988650.5164
 11  8 23  1 15 30.0000000  0  8G10G29G12G05G04G25G02G30
  -2399332.28947  -1859983.58645  21875694.2894                   21875692.8404
  -8989847.04346  -6997174.39544  24097201.7974                   24097200.6054
 -13459355.70748 -10474958.36346  20720537.2734                   20720534.2544
 -17939212.80148 -13965765.86347  20321292.3204                   20321289.8094
  18124371.18447  14138990.25844  23717031.9384                   23717030.4104
 -13919682.92648 -10834120.87945  22057236.0164                   22057235.7274
  -4881974.68848  -3800240.41046  20977079.0004                   20977074.5084
 -13023288.36347 -10135682.92645  21988922.7504                   21988921.2074
 11  8 23  1 16  0.0000000  0  8G10G29G12G05G04G25G02G30
  -2275136.33247  -1763207.53145  21899328.2274                   21899325.8634
  -9024504.30146  -7024180.07044  24090606.4454                   24090605.9964
 -13401276.47748 -10429701.81646  20731589.3834                   20731586.7814
 -17918762.14548 -13949830.25447  20325183.7034                   20325181.6764
  18252124.65247  14238538.37543  23741342.1884                   23741341.3324
 -13926096.55947 -10839118.48046  22056015.3594                   22056015.1214
  -4806973.52748  -3741797.93446  20991351.4384                   20991346.4454
 -13021302.46548 -10134135.42645  21989301.0164                   21989299.0704
 11  8 23  1 16 30.0000000  0  8G10G29G12G05G04G25G02G30
  -2150508.95347  -1666095.29745  21923044.0314                   21923042.2504
  -9059212.28146  -7051225.23044  24084001.5634                   24084001.2814
 -13342609.23048 -10383987.07846  20742753.3204                   20742750.6884
 -17897733.58248 -13933444.32847  20329185.4614                   20329182.9694
  18379841.45747  14338057.94543  23765646.1884                   23765645.2464
 -13932001.39147 -10843719.63346  22054891.2584                   22054891.6524
  -4731832.26248  -3683246.28546  21005650.1094                   21005645.3364
 -13018747.38747 -10132144.42245  21989787.1644                   21989785.1484
 11  8 23  1 17  0.0000000  0  8G10G29G12G05G04G25G02G30
  -2025452.70347  -1568648.87945  21946841.4534                   21946839.5904
  -9093970.02046  -7078309.16044  24077387.6644                   24077387.3284
 -13283354.33648 -10337814.43446  20754029.1094                   20754026.4184
 -17876126.66048 -13916607.73447  20333296.7664                   20333294.3794
  18507520.96547  14437548.46143  23789941.8054                   23789940.4734
 -13937395.59848 -10847922.89146  22053864.8754                   22053865.0664
  -4656551.45348  -3624585.90646  21019975.8134                   21019971.3094
 -13015621.77047 -10129708.84845  21990381.9534                   21990380.2894
 11  8 23  1 17 30.0000000  0  8G10G29G12G05G04G25G02G30
  -1899977.97347  -1470876.36345  21970718.3364                   21970716.7074
  -9128784.16846  -7105437.05143  24070762.8834                   24070762.0354
 -13223519.64148 -10291189.99246  20765415.1884                   20765412.7074
 -17853948.25048 -13899325.82047  20337517.4774                   20337515.1564
  18635154.91447  14537003.47343  23814230.1334                   23814229.1604
 -13942285.00048 -10851732.79746  22052934.3984                   22052934.8674
  -4581139.56348  -3565823.39846  21034325.9224                   21034321.2074
 -13011931.77747 -10126833.49245  21991083.8984                   21991082.1374
 11  8 23  1 18  0.0000000  0  8G10G29G12G05G04G25G02G30
  -1774078.40647  -1372772.82045  21994676.0554                   21994674.4694
  -9163644.38746  -7132600.82843  24064129.2424                   24064128.2384
 -13163096.52748 -10244107.04346  20776913.4844                   20776910.8484
 -17831188.70348 -13881591.07447  20341848.3834                   20341846.0634
  18762751.85946  14636429.63143  23838511.3054                   23838510.1524
 -13946658.57848 -10855140.77346  22052102.2664                   22052101.8754
  -4505588.44948  -3506952.39546  21048702.9144                   21048697.8524
 -13007666.82447 -10123510.12145  21991895.8134                   21991893.6914
 11  8 23  1 18 30.0000000  0  8G10G29G12G05G04G25G02G30
  -1647758.62947  -1274341.82045  22018714.0314                   22018712.3364
  -9198552.11346  -7159801.62144  24057486.1094                   24057485.4654
 -13102087.86348 -10196567.82046  20788522.9304                   20788520.5634
 -17807849.43448 -13863404.60547  20346289.9534                   20346287.2274
  18890309.73046  14735825.36743  23862784.0314                   23862783.5204
 -13950516.49248 -10858146.93446  22051368.1334                   22051368.3754
  -4429900.88348  -3447975.07846  21063105.7194                   21063101.4964
 -13002827.42247 -10119739.13345  21992816.5164                   21992814.5824
 11  8 23  1 19  0.0000000  0  8G10G29G12G05G04G25G02G30
  -1521027.34447  -1175590.16445  22042830.4384                   22042828.4304
  -9233512.24246  -7187043.23844  24050833.9384                   24050832.3404
 -13040499.80948 -10148577.11746  20800242.6804                   20800240.1724
 -17783935.82048 -13844770.58647  20350840.7114                   20350837.6684
  19017821.57846  14835185.25043  23887049.3364                   23887049.0164
 -13953862.92648 -10860754.53146  22050731.1954                   22050731.2664
  -4354083.62548  -3388896.69946  21077533.3364                   21077528.8364
 -12997418.11747 -10115524.07045  21993845.5634                   21993843.8524
 11  8 23  1 19 30.0000000  0  8G10G29G12G05G04G25G02G30
  -1393881.97347  -1076515.86345  22067025.1804                   22067022.9384
  -9268518.53146  -7214320.80944  24044172.5004                   24044171.2074
 -12978327.47348 -10100131.14546  20812073.9454                   20812071.0554
 -17759442.65248 -13825684.96947  20355501.0234                   20355498.5514
  19145292.08246  14934512.91443  23911305.4924                   23911305.1644
 -13956690.97348 -10862958.21146  22050193.2034                   22050192.8954
  -4278132.19948  -3329713.77046  21091986.2034                   21091981.8754
 -12991432.48047 -10110859.92245  21994984.5474                   21994983.1914
 11  8 23  1 20  0.0000000  0  8G10G29G12G05G04G25G02G30
  -1266324.91847   -977120.75845  22091298.6334                   22091296.4414
  -9303569.69947  -7241633.32044  24037502.1484                   24037501.0594
 -12915570.83248 -10051229.86346  20824016.0004                   20824012.9844
 -17734368.56648 -13806146.68747  20360272.8204                   20360270.4104
  19272721.48046  15033808.56643  23935554.5474                   23935554.5594
 -13958998.15648 -10864756.00846  22049754.0474                   22049754.5434
  -4202046.68448  -3270426.35946  21106465.0314                   21106460.5704
 -12984868.39547 -10105745.02345  21996234.2504                   21996232.5904
 11  8 23  1 20 30.0000000  0  8G10G29G12G05G04G25G02G30
  -1138368.53547   -877414.46945  22115647.5864                   22115645.7154
  -9338674.02046  -7268987.28944  24030821.5554                   24030820.8094
 -12852240.46948 -10001881.52346  20836067.4144                   20836064.6644
 -17708722.69548 -13786162.85947  20365152.8364                   20365150.0744
  19400099.89846  15133064.45743  23959794.2274                   23959793.7234
 -13960792.37548 -10866154.09046  22049412.8054                   22049413.1604
  -4125837.23048  -3211042.37946  21120967.1804                   21120962.5664
 -12977734.21547 -10100185.91445  21997591.5234                   21997590.0164
 11  8 23  1 21  0.0000000  0  8G10G29G12G05G04G25G02G30
  -1010001.34447   -777388.09845  22140075.0084                   22140073.7074
  -9373816.55146  -7296371.01244  24024134.1024                   24024133.7934
 -12788322.69548  -9952075.46546  20848230.7584                   20848228.0784
 -17682490.52348 -13765722.17647  20370144.5084                   20370142.0824
  19527440.29746  15232290.72743  23984026.3524                   23984025.9844
 -13962057.91048 -10867140.21946  22049171.7974                   22049171.6764
  -4049491.08248  -3151551.86746  21135495.1414                   21135490.6134
 -12970014.56647 -10094170.59045  21999060.5864                   21999058.7234
 11  8 23  1 21 30.0000000  0  8G10G29G12G05G04G25G02G30
   -881230.69947   -677047.31645  22164579.8284                   22164577.1884
  -9409000.87946  -7323787.28944  24017439.0394                   24017438.0904
 -12723822.67248  -9901815.71146  20860504.5944                   20860501.7894
 -17655676.39548 -13744828.01247  20375247.0004                   20375244.5784
  19654738.28546  15331483.99243  24008250.7344                   24008249.9184
 -13962797.61348 -10867716.61746  22049031.1564                   22049031.1994
  -3973013.45348  -3091958.90246  21150048.5634                   21150044.0204
 -12961712.82047 -10087701.68045  22000640.4774                   22000638.5474
 11  8 23  1 22  0.0000000  0  8G10G29G12G05G04G25G02G30
   -752067.09847   -576400.33245  22189158.8594                   22189156.9064
  -9444233.17246  -7351240.94544  24010734.6174                   24010733.8714
 -12658748.36748  -9851108.46146  20872887.7114                   20872885.0314
 -17628287.54348 -13723486.01247  20380459.0634                   20380456.5824
  19781985.42246  15430637.68844  24032464.3834                   24032464.1094
 -13963017.46548 -10867887.91446  22048988.9844                   22048989.3204
  -3896412.80548  -3032270.07046  21164625.1884                   21164620.5554
 -12952835.35247 -10080784.16045  22002329.6804                   22002327.6724
 11  8 23  1 22 30.0000000  0  8G10G29G12G05G04G25G02G30
   -622505.78547   -475443.46945  22213813.1484                   22213811.0904
  -9479505.44947  -7378725.75844  24004023.0944                   24004021.2074
 -12593093.30148  -9799948.68046  20885381.5234                   20885378.9534
 -17600316.07848 -13701690.02747  20385781.9224                   20385779.3404
  19909188.57846  15529757.08244  24056671.2734                   24056670.6214
 -13962708.20748 -10867646.92646  22049048.1884                   22049048.1134
  -3819682.07848  -2972479.87546  21179226.5704                   21179221.7624
 -12943373.32047 -10073411.14545  22004130.2734                   22004128.2894
 11  8 23  1 23  0.0000000  0  8G10G29G12G05G04G25G02G30
   -492556.28947   -374184.10945  22238542.1024                   22238540.0084
  -9514823.64847  -7406246.37544  23997301.4774                   23997299.9924
 -12526865.23848  -9748342.41046  20897984.6564                   20897981.6804
 -17571768.92248 -13679445.45747  20391214.0084                   20391211.4264
  20036340.44547  15628836.48444  24080867.5554                   24080866.7584
 -13961875.30548 -10866997.90246  22049206.3134                   22049206.3674
  -3742829.16048  -2912594.46946  21193850.9384                   21193846.6994
 -12933332.63347 -10065587.22745  22006040.7814                   22006039.0354
 11  8 23  1 23 30.0000000  0  8G10G29G12G05G04G25G02G30
   -362220.27747   -272623.56245  22263344.0314                   22263341.6564
  -9550185.43447  -7433800.94544  23990572.1954                   23990571.1294
 -12460063.21548  -9696288.88746  20910696.3284                   20910693.7194
 -17542644.25848 -13656750.87547  20396755.9064                   20396753.5904
  20163441.89846  15727876.62144  24105053.2114                   24105052.8014
 -13960515.83648 -10865938.57046  22049465.3364                   22049465.2274
  -3665853.63348  -2852613.51646  21208498.7274                   21208494.2854
 -12922710.81647 -10057310.47345  22008061.7504                   22008060.3404
 11  8 23  1 24  0.0000000  0  8G10G29G12G05G04G25G02G30
   -231488.06647   -170754.30145  22288221.3834                   22288219.8954
  -9585577.24647  -7461378.92644  23983837.0554                   23983836.6174
 -12392676.06648  -9643779.43446  20923519.8594                   20923516.8874
 -17512929.34848 -13633596.37147  20402410.7344                   20402408.4884
  20290504.85947  15826886.75043  24129232.7194                   24129232.3094
 -13958615.87148 -10864458.06646  22049826.7814                   22049826.6454
  -3588743.71548  -2792527.84446  21223172.5554                   21223168.2934
 -12911494.46947 -10048570.46145  22010196.1024                   22010194.8094
 11  8 23  1 24 30.0000000  0  8G10G29G12G05G04G25G02G30
   -100374.14547    -68587.60545  22313171.5164                   22313169.0554
  -9621009.80147  -7488988.62544  23977094.6954                   23977093.8164
 -12324716.20748  -9590823.70746  20936451.9924                   20936449.5594
 -17482635.66048 -13609990.87147  20408175.3674                   20408172.8244
  20417517.27347  15925857.50444  24153403.0164                   24153401.7734
 -13956185.35548 -10862564.14546  22050289.1564                   22050289.5554
  -3511511.56648  -2732346.92646  21237869.1804                   21237864.8554
 -12899693.87147 -10039375.19545  22012441.8914                   22012440.2074
 11  8 23  1 25  0.0000000  0  8G10G29G12G05G04G25G02G30
     31119.86347     33875.27045  22338193.9924                   22338191.8874
  -9656480.67247  -7516628.19544  23970344.1884                   23970344.1024
 -12256182.97748  -9537421.19946  20949493.5394                   20949490.4774
 -17451762.32448 -13585933.69147  20414050.5004                   20414048.1294
  20544479.90647  16024789.49244  24177562.6644                   24177561.8134
 -13953221.52348 -10860254.66446  22050853.3984                   22050853.4104
  -3434156.92648  -2672070.55146  21252589.4064                   21252584.5314
 -12887306.73047 -10029722.87545  22014799.6254                   22014797.5314
 11  8 23  1 25 30.0000000  0  8G10G29G12G05G04G25G02G30
    162975.24647    136619.71145  22363284.9144                   22363284.1054
  -9692004.50847  -7544309.00044  23963584.5784                   23963583.5784
 -12187093.14548  -9483584.96946  20962640.7974                   20962637.9614
 -17420324.64848 -13561436.77347  20420032.6334                   20420030.0744
  20671376.57046  16123670.06643  24201710.0164                   24201708.9534
 -13949738.73448 -10857540.79346  22051516.4304                   22051515.8554
  -3356696.67648  -2611711.88746  21267329.7504                   21267324.9494
 -12874347.79747 -10019625.00045  22017265.0004                   22017263.4574
 11  8 23  1 26  0.0000000  0  8G10G29G12G05G04G25G02G30
    295203.02347    239654.35945  22388447.1884                   22388445.8284
  -9727566.63747  -7572019.68744  23956816.7584                   23956816.3954
 -12117433.68448  -9429304.88746  20975896.3984                   20975893.9384
 -17388308.38748 -13536489.01247  20426125.3284                   20426122.6914
  20798220.54346  16222509.58243  24225847.7894                   24225847.1094
 -13945721.67648 -10854410.60946  22052281.0164                   22052280.3364
  -3279117.10948  -2551260.25446  21282092.6024                   21282087.9534
 -12860802.40247 -10009070.15245  22019843.0004                   22019840.9924
 11  8 23  1 26 30.0000000  0  8G10G29G12G05G04G25G02G30
    427803.41847    342979.35545  22413680.0084                   22413678.4614
  -9763162.90247  -7599756.94144  23950043.1254                   23950042.5944
 -12047202.75848  -9374579.50446  20989260.9224                   20989258.2464
 -17355710.76248 -13511088.23447  20432328.5554                   20432325.8714
  20925014.29346  16321309.93843  24249976.0314                   24249975.4344
 -13941166.06648 -10850860.77746  22053147.4534                   22053147.1954
  -3201416.37948  -2490714.20346  21296878.1564                   21296873.6724
 -12846666.63347  -9998055.27045  22022532.9304                   22022530.8094
 11  8 23  1 27  0.0000000  0  8G10G29G12G05G04G25G02G30
    560788.06647    446603.75045  22438986.2424                   22438984.8554
  -9798778.01647  -7627508.87944  23943266.0394                   23943264.9414
 -11976386.56648  -9319398.06646  21002736.7894                   21002734.3364
 -17322517.21148 -13485223.10547  20438645.1484                   20438642.3014
  21051771.94146  16420082.13743  24274096.9064                   24274096.0744
 -13936055.86348 -10846878.80146  22054119.8204                   22054119.8014
  -3123580.41848  -2430062.78946  21311689.8754                   21311685.5904
 -12831925.00847  -9986568.29345  22025338.0164                   22025336.1844
 11  8 23  1 27 30.0000000  0  8G10G29G12G05G04G25G02G30
   -881281.37547   -677086.71944  22164569.8594                   22164567.7384
 -11409851.46547  -8882890.71544  23636689.2114                   23636687.8284
 -13480423.66048 -10491375.04346  20716527.8594                   20716525.5944
 -18864166.60248 -14686508.32447  20145278.7894                   20145276.1604
  19603057.45746  15291213.70743  23998415.9224                   23998415.6914
 -15505829.30148 -12070078.87546  21755401.7734                   21755401.6724
  -4621047.48848  -3596920.22346  21026731.6564                   21026726.9344
 -14392015.81347 -11202223.46945  21728462.6094                   21728460.5434
 11  8 23  1 28  0.0000000  0  8G10G29G12G05G04G25G02G30
   -747579.45347   -572903.39545  22190012.2344                   22190010.3914
 -11445543.00847  -8910702.23844  23629897.0704                   23629895.5354
 -13408482.76648 -10435317.21546  20730217.9924                   20730215.6134
 -18829823.84448 -14659747.70347  20151814.1414   20151811.0204   19729699.11746
  15389895.50443                  24022514.9534                   24022513.6804
 -15499648.22348 -12065262.45346  21756578.2274                   21756577.9144
  -4542986.38748  -3536093.38346  21041586.2034                   21041581.5124
 -14376102.04747 -11189823.12545  21731491.1644                   21731489.3324
 11  8 23  1 28 30.0000000  0  8G10G29G12G05G04G25G02G30
   -613517.59047   -468439.60244  22215523.9774                   22215521.3954
 -11481265.34047  -8938537.76244  23623099.3134                   23623098.2774
 -13335975.15648 -10378817.80146  20744015.9924                   20744013.2074
 -18794900.62148 -14632534.78947  20158459.7034   20158457.0634   19856287.98046
  15488536.19543                  24046603.6334                   24046603.2034
 -15492923.89548 -12060022.71146  21757857.3364                   21757857.8284
  -4464808.03948  -3475175.17246  21056462.8984                   21056458.4654
 -14359595.15647 -11176960.62545  21734632.2274                   21734630.3204
 11  8 23  1 29  0.0000000  0  8G10G29G12G05G04G25G02G30
   -479097.10547   -363696.36744  22241102.8594                   22241101.0434
 -11517016.30947  -8966395.60244  23616296.1254                   23616295.3794
 -13262900.86748 -10321876.80146  20757921.2894                   20757918.6644
 -18759395.78548 -14604868.65647  20165215.7504   20165213.3554   19982824.80946
  15587136.33243                  24070682.8054                   24070682.0474
 -15485653.78148 -12054357.69946  21759241.1564                   21759241.0514
  -4386511.86348  -3414165.15246  21071362.2344                   21071357.8594
 -14342493.16047 -11163634.39145  21737886.4844                   21737884.6804
 11  8 23  1 29 30.0000000  0  8G10G29G12G05G04G25G02G30
   -344322.39547   -258677.11344  22266749.9534                   22266747.6374
 -11552795.96547  -8994275.78544  23609487.1644                   23609486.2934
 -13189262.01248 -10264495.89146  20771934.6174                   20771931.6644
 -18723310.77348 -14576750.44547  20172082.4534   20172079.4694   20109307.94946
  15685694.66842                  24094751.3914                   24094750.7974
 -15477837.78548 -12048267.30946  21760728.2344                   21760728.3244
  -4308099.53148  -3353064.62146  21086283.6094                   21086279.1484
 -14324796.34847 -11149844.66445  21741254.2734                   21741251.8674
 11  8 23  1 30  0.0000000  0  8G10G29G12G05G04G25G02G30
   -209213.60247   -153397.52345  22292459.8754                   22292458.3984
 -11588620.55947  -9022191.00844  23602669.9774                   23602668.9964
 -13115077.00448 -10206689.41046  20786051.2664                   20786048.6884
 -18686663.18048 -14548193.84847  20179056.3284   20179053.5474   20235719.85246
  15784197.47742                  24118806.9454                   24118806.2074
 -15469492.02348 -12041764.12546  21762316.6954                   21762316.3834
  -4229589.36348  -3291887.85546  21101223.4384                   21101219.0594
 -14306521.45347 -11135604.48845  21744731.9694                   21744729.6254
 11  8 23  1 30 30.0000000  0  9G10G29G12G26G05G04G25G02G30
    -73738.66847    -47832.63744  22318240.1334                   22318238.1994
 -11624453.97347  -9050113.11344  23595851.4224                   23595849.9024
 -13040312.27748 -10148431.19546  20800278.9384                   20800276.2304
  -9518315.07456  -7407334.14853  24731565.6644                   24731566.2344
 -18649418.11748 -14519171.69547  20186143.9384   20186141.1994   20362094.59846
  15882671.29343                  24142854.9144                   24142855.0394
 -15460580.28948 -12034819.91846  21764012.6174                   21764012.3244
  -4150947.01248  -3230608.09446  21116188.7734                   21116184.3014
 -14287632.72747 -11120885.99245  21748325.9144                   21748324.2384
 11  8 23  1 31  0.0000000  0  9G10G29G12G26G05G04G25G02G30
     62075.99647     57996.98445  22344084.9844                   22344082.8404
 -11660318.62547  -9078059.55944  23589026.5394                   23589025.5044
 -12964992.25047 -10089740.28146  20814611.5164                   20814609.1094
  -9562544.22346  -7441798.34443  24723149.3054                   24723150.3954
 -18611599.00848 -14489702.23047  20193340.5784   20193338.2234   20488408.68046
  15981097.87543                  24166892.3284                   24166891.5704
 -15451124.75848 -12027451.96546  21765811.4614                   21765811.4064
  -4072196.66047  -3169244.17646  21131174.2584                   21131169.8674
 -14268152.80947 -11105706.83645  21752032.8914                   21752030.9654
 11  8 23  1 31 30.0000000  0  9G10G29G12G26G05G04G25G02G30
    198238.53947    164097.66845  22369995.3284                   22369994.3444
 -11696202.32047  -9106020.85544  23582198.0474                   23582197.1604
 -12889107.52348 -10030609.33646  20829052.0084                   20829049.5434
  -9606902.70746  -7476363.30142  24714707.9774                   24714709.1374
 -18573195.30548 -14459777.24247  20200648.8754   20200645.9964   20614672.72346
  16079485.47743                  24190919.5084                   24190918.8364
 -15441113.32448 -12019650.85246  21767716.6954                   21767716.7344
  -3993328.34448  -3107788.34046  21146182.6094                   21146178.3444
 -14248070.17647 -11090058.02345  21755854.5784                   21755852.6954
 11  8 23  1 32  0.0000000  0  9G10G29G12G26G05G04G25G02G30
    334738.88347    270461.57845  22395970.8674                   22395968.5824
 -11732110.68047  -9134001.40644  23575364.8754                   23575363.5594
 -12812665.91048  -9971044.46146  20843598.5784                   20843595.6764
  -9651394.31346  -7511031.98442  24706241.5004                   24706242.4144
 -18534214.02748 -14429402.19947  20208066.5554   20208063.9104   20740879.36746
  16177828.34043                  24214936.1484                   24214934.5394
 -15430551.71948 -12011421.02746  21769726.3284                   21769726.6254
  -3914349.49248  -3046246.37146  21161211.5784                   21161207.3634
 -14227391.05147 -11073944.41445  21759789.5314                   21759788.0164
 11  8 23  1 32 30.0000000  0  9G10G29G12G26G05G04G25G02G30
    471564.03947    377078.59444  22422007.9844                   22422006.0594
 -11768052.91447  -9162008.34444  23568525.1174                   23568523.5434
 -12735678.85548  -9911054.55546  20858248.6954                   20858246.1174
  -9696026.28546  -7545810.03543  24697748.7194                   24697749.3444
 -18494665.49248 -14398585.12147  20215592.4224   20215589.8134   20867018.10947
  16276118.30143                  24238939.3984                   24238938.8984
 -15419448.83248 -12002769.41446  21771839.4774                   21771839.4534
  -3835270.94548  -2984626.72346  21176259.8914                   21176255.0164
 -14206124.87147 -11057373.36345  21763836.5784                   21763834.3014
 11  8 23  1 33  0.0000000  0  9G10G29G12G26G05G04G25G02G30
    608731.55547    483962.35945  22448109.8444                   22448108.3594
 -11804007.73047  -9190025.07444  23561682.8914                   23561681.6294
 -12658127.19148  -9850624.70346  20873006.1254                   20873003.7114
  -9740775.90246  -7580679.78943  24689232.6724                   24689233.5354
 -18454529.80548 -14367310.53147  20223230.0004   20223227.0164   20993108.90247
  16374370.88343                  24262933.2664                   24262932.6564
 -15407783.23048 -11993679.33646  21774059.3524                   21774059.1094
  -3756072.75048  -2922913.83246  21191330.5784                   21191326.1764
 -14184250.79347 -11040328.61745  21767999.3524                   21767997.0514
 11  8 23  1 33 30.0000000  0  9G10G29G12G26G05G04G25G02G30
    746215.00847    591092.32044  22474271.9224                   22474270.2704
 -11839996.87147  -9218068.57044  23554835.0634                   23554833.3444
 -12580036.03148  -9789774.46146  20887866.3914                   20887863.7814
  -9785663.57046  -7615657.11343  24680691.2114                   24680691.3794
 -18413830.96548 -14335597.12947  20230974.3364   20230971.9574   21119128.02347
  16472567.61343                  24286914.1954                   24286912.8674
 -15395577.32848 -11984168.22746  21776381.7584                   21776382.0824
  -3676779.10248  -2861126.56346  21206419.8524                   21206415.3714
 -14161791.60947 -11022827.94945  21772272.8134                   21772271.0594
 11  8 23  1 34  0.0000000  0  9G10G29G12G26G05G04G25G02G30
    884023.94547    698475.91044  22500495.8134                   22500494.4454
 -11876006.80947  -9246128.26244  23547982.5944                   23547981.1684
 -12501394.04348  -9728494.99646  20902831.5864                   20902828.9534
  -9830673.94146  -7650730.05943  24672126.1174                   24672126.0204
 -18372556.48848 -14303435.16447  20238828.8444   20238825.8754   21245087.41447
  16570717.80543                  24310883.1724                   24310882.6884
 -15382817.43848 -11974225.44546  21778810.2504                   21778810.0514
  -3597378.28948  -2799255.78546  21221529.0394                   21221524.9614
 -14138734.32447 -11004861.21545  21776660.2424                   21776659.0204
 11  8 23  1 34 30.0000000  0  9G10G29G12G26G05G04G25G02G30
   1022175.38747    806126.37945  22526785.8594                   22526783.9184
 -11912016.54747  -9274187.78544  23541130.2114                   23541128.4574
 -12422182.33248  -9666771.59846  20917904.9144                   20917902.5784
  -9875784.30146  -7685880.86343  24663541.0554                   24663541.3714
 -18330686.69948 -14270809.33247  20246796.3444   20246793.4264   21371006.87947
  16668836.89544                  24334845.4224                   24334844.4774
 -15369482.55148 -11963834.61346  21781347.5634                   21781347.4344
  -3517851.13748  -2737286.57046  21236662.6884                   21236658.0704
 -14115058.43048 -10986412.45745  21781165.7664                   21781163.8874
 11  8 23  1 35  0.0000000  0  9G10G29G12G26G05G04G25G02G30
   1160645.15647    914024.89144  22553135.4304                   22553133.5354
 -11948046.14847  -9302262.80144  23534274.1484                   23534272.6844
 -12342423.96548  -9604622.24246  20933082.8754                   20933079.4964
  -9921013.25846  -7721124.13543  24654934.8204                   24654935.2934
 -18288243.35948 -14237736.57047  20254872.8054   20254870.2894   21496864.60247
  16766907.83644                  24358794.6884                   24358794.1374
 -15355593.03948 -11953011.60546  21783990.9384                   21783990.9924
  -3438219.66048  -2675236.05546  21251816.2114                   21251811.0124
 -14090784.74248 -10967497.89845  21785784.7034                   21785783.0164
 11  8 23  1 35 30.0000000  0  9G10G29G12G26G05G04G25G02G30
   1299422.76247   1022163.27744  22579544.1954                   22579542.0744
 -11984101.85547  -9330358.11344  23527412.6254                   23527411.2704
 -12262127.78548  -9542053.80546  20948362.4144                   20948359.8284
  -9966365.27346  -7756463.30543  24646305.1334                   24646304.6214
 -18245234.41448 -14204223.07847  20263057.3284   20263054.4384   21622653.02747
  16864924.82044                  24382731.7664                   24382731.5354
 -15341155.29748 -11941761.39846  21786737.9454                   21786738.5124
  -3358491.79348  -2613110.43046  21266987.8444                   21266983.0864
 -14065920.34448 -10948123.03145  21790516.3984                   21790514.5004
 11  8 23  1 36  0.0000000  0  9G10G29G12G26G05G04G25G02G30
   1438516.32847   1130547.89845  22606013.0944                   22606010.8834
 -12020171.30546  -9358464.12544  23520548.8134                   23520547.6994
 -12181283.96548  -9479058.62946  20963746.2734                   20963743.5634
 -10011826.49646  -7791887.48443  24637652.8754                   24637653.7154
 -18201649.60248 -14170260.86747  20271351.2974   20271348.4574   21748382.57047
  16962895.91044                  24406658.0944                   24406656.6684
 -15326157.27348 -11930074.61346  21789591.9384                   21789592.1454
  -3278656.99648  -2550901.48446  21282179.5474                   21282175.6484
 -14040453.70748 -10928278.89545  21795362.6024                   21795360.5084
 11  8 23  1 36 30.0000000  0  9G10G29G12G26G05G04G25G02G30
   1577925.76247   1239178.60544  22632541.6724                   22632539.5234
 -12056250.67646  -9386577.85944  23513682.6174                   23513681.6334
 -12099891.38348  -9415635.85946  20979234.9064                   20979232.0744
 -10057391.58646  -7827392.66043  24628982.4454                   24628983.0944
 -18157486.16048 -14135847.77047  20279755.1414   20279752.8324   21874055.71947
  17060823.04743                  24430572.3754                   24430571.3794
 -15310595.45348 -11917948.49646  21792553.5704                   21792553.7274
  -3198713.56648  -2488607.88746  21297392.4304                   21297388.1644
 -14014381.85948 -10907963.15645  21800323.7894                   21800322.2814
 11  8 23  1 37  0.0000000  0  9G10G29G12G26G05G04G25G02G30
   1717656.18447   1348059.46144  22659131.7584                   22659129.0394
 -12092330.36346  -9414691.84044  23506817.4144                   23506816.0044
 -12017943.12948  -9351780.08246  20994829.1254                   20994826.6604
 -10103048.87946  -7862969.66043  24620293.7974                   24620294.8524
 -18112736.65248 -14100978.00447  20288270.7974   20288267.7814   21999680.44146
  17158712.44143                  24454477.6564                   24454476.6094
 -15294460.45748 -11905375.75846  21795623.7274                   21795623.8634
  -3118653.76248  -2426223.60546  21312627.2814                   21312622.5904
 -13987696.00448 -10887168.97346  21805401.9534                   21805399.9534
 11  8 23  1 37 30.0000000  0  9G10G29G12G26G05G04G25G02G30
   1857686.73447   1457174.18444  22685777.8284                   22685776.0204
 -12128426.98446  -9442818.98444  23499947.6254                   23499946.8324
 -11935458.19148  -9287506.11346  21010525.4694                   21010522.7854
 -10148813.75046  -7898630.46943  24611585.4774                   24611585.5234
 -18067419.19148 -14065665.67647  20296894.4304   20296891.8554   22125238.94146
  17256550.19943                  24478370.7974                   24478369.4264
 -15277769.11747 -11892369.50446  21798799.9774                   21798800.1414
  -3038495.66448  -2363762.74246  21327880.9614                   21327876.1564
 -13960413.47348 -10865909.84845  21810593.4144                   21810591.6764
 11  8 23  1 38  0.0000000  0  9G10G29G12G26G05G04G25G02G30
   1998016.29747   1566521.88344  22712481.8594                   22712479.7734
 -12164537.99647  -9470957.33644  23493076.1024                   23493074.7664
 -11852437.44948  -9222814.64546  21026323.9384                   21026321.3364
 -10194681.56346  -7934371.52043  24602857.0084                   24602857.6374
 -18021533.14148 -14029910.29747  20305626.4774   20305623.4494   22250732.01246
  17354336.99643                  24502251.4304                   24502249.7464
 -15260519.33648 -11878928.10246  21802082.7424                   21802082.9144
  -2958238.82447  -2301224.93846  21343153.2274                   21343148.6644
 -13932532.76648 -10844184.63345  21815899.6094                   21815897.6994
 11  8 23  1 38 30.0000000  0  9G10G29G12G26G05G04G25G02G30
   2138632.48447   1676092.94944  22739240.1414                   22739238.4304
 -12200671.11347  -9499112.94944  23486200.5704                   23486199.2194
 -11768891.19148  -9157713.68046  21042222.1724                   21042219.5744
 -10240658.51646  -7970197.59043  24594107.2194                   24594108.6054
 -17975087.73448 -13993719.05147  20314464.4224   20314461.5784   22376150.35246
  17452065.58243                  24526117.4774                   24526116.2344
 -15242719.14548 -11865057.80146  21805469.8134                   21805469.9964
  -2877892.68048  -2238617.53546  21358442.5234                   21358438.0824
 -13904062.53948 -10822000.02745  21821317.0784                   21821315.1094
 11  8 23  1 39  0.0000000  0  9G10G29G12G26G05G04G25G02G30
   2279557.92647   1785904.98044  22766057.5554                   22766055.3594
 -12236799.71547  -9527265.00444  23479325.6334                   23479324.4654
 -11684795.87948  -9092184.87146  21058225.1024                   21058222.2304
 -10286716.53546  -8006086.82843  24585343.1804                   24585343.6094
 -17928058.82848 -13957073.13747  20323413.8134   20323411.1254   22501519.08646
  17549755.46943                  24549974.3914                   24549974.1174
 -15224342.59048 -11850738.39846  21808966.7034                   21808966.8054
  -2797432.82447  -2175921.53546  21373753.4694                   21373748.7464
 -13874977.38748 -10799336.25845  21826851.7194                   21826849.7774
 11  8 23  1 39 30.0000000  0  9G10G29G12G26G05G04G25G02G30
   2420778.05546   1895946.62144  22792930.8834                   22792929.1094
 -12272933.93847  -9555421.44944  23472449.2584                   23472448.1414
 -11600164.12548  -9026238.06246  21074330.0394                   21074327.4614
 -10332863.84846  -8042045.67243  24576561.3284                   24576562.2344
 -17880457.92648 -13919981.50847  20332472.0004   20332468.9024   22626826.24646
  17647397.40643                  24573818.8284                   24573819.1724
 -15205400.02348 -11835977.94546  21812571.5164                   21812571.3874
  -2716870.91447  -2113146.01646  21389084.2034                   21389079.2424
 -13845288.19148 -10776201.82445  21832501.4454                   21832498.8444
 11  8 23  1 40  0.0000000  0  9G10G29G12G26G05G04G25G02G30
   2562287.78947   2006213.96544  22819859.1484                   22819856.7274
 -12309074.53947  -9583582.88744  23465571.7814                   23465570.5394
 -11514999.66848  -8959876.15646  21090536.3754                   21090533.7344
 -10379099.78946  -8078073.55943  24567763.2894                   24567763.4884
 -17832287.98048 -13882446.46947  20341638.3134   20341635.3674   22752070.01246
  17744989.87142                  24597652.0234                   24597652.1294
 -15185892.83648 -11820777.53546  21816283.6414                   21816283.1174
  -2636209.71948  -2050293.12546  21404433.2274                   21404428.8164
 -13814996.93848 -10752598.25445  21838265.6174                   21838263.8874
 11  8 23  1 40 30.0000000  0  9G10G29G12G26G05G04G25G02G30
   2704094.35246   2116712.59044  22846843.3364                   22846842.0354
 -12345210.20746  -9611740.47744  23458694.8134                   23458693.8244
 -11429294.06648  -8893092.58246  21106845.2894                   21106842.5704
 -10425411.55946  -8114160.55943  24558949.4924                   24558950.4224
 -17783539.57048 -13844460.68447  20350914.8054   20350912.0634   22877258.71156
  17842539.23852                  24621475.5314                   24621475.4534
 -15165810.23048 -11805128.73846  21820104.9304                   21820104.9574
  -2555439.94948  -1987355.62546  21419803.5634                   21419798.6884
 -13784093.43848 -10728517.60545  21844146.3674                   21844144.6374
 11  8 23  1 41  0.0000000  0  9G10G29G12G26G05G04G25G02G30
   2846177.29346   2227426.55544  22873881.9064                   22873879.8674
 -12381356.87947  -9639906.65244  23451816.8984                   23451815.4264
 -11343066.55548  -8825902.32046  21123254.0944                   21123251.2304
 -10471813.15646  -8150317.55143  24550119.3594                   24550120.4694
 -17734230.59848 -13806038.08247  20360298.0704   20360295.3364   23002377.160 6
                                  24645284.258
 -15145168.70748 -11789044.42646  21824033.1254                   21824033.3794
  -2474579.17248  -1924347.22746  21435190.3984                   21435185.8834
 -13752594.78148 -10703973.18445  21850140.5634                   21850138.5944
 11  8 23  1 41 30.0000000  0  9G10G29G12G26G05G04G25G02G30
   2988549.51247   2338365.94544  22900973.8834                   22900972.9454
 -12417497.84447  -9668068.41444  23444939.3134                   23444938.1374
 -11256303.11748  -8758294.46146  21139764.5554                   21139762.0474
 -10518286.20346  -8186530.27043  24541276.6024                   24541276.3244
 -17684346.30548 -13767167.18047  20369790.7194   20369788.0744   23127439.273 6
                                  24669082.891
 -15123952.13348 -11772512.02346  21828070.5784                   21828070.4654
  -2393612.75048  -1861256.50446  21450598.1724                   21450593.3554
 -13720485.44548 -10678952.92645  21856250.5234                   21856248.4694
 11  8 23  1 42  0.0000000  0  9G10G29G12G26G05G04G25G02G30
   3131189.41847   2449513.89844  22928117.6334                   22928115.7704
 -12453649.98047  -9696238.87544  23438059.7344                   23438058.1764
 -11169023.94548  -8690284.72346  21156373.2424                   21156370.5514
 -10564846.08646  -8222810.61743  24532415.4924                   24532416.8014
 -17633906.10948 -13727863.10947  20379389.1804   20379386.3014   23252426.33246
  17961412.41852                  24692867.2894                   24692867.1994
 -15102178.34448 -11755545.42246  21832213.7344                   21832213.6024
  -2312559.79348  -1798098.34846  21466021.8134                   21466017.2854
 -13687783.89148 -10653471.19945  21862473.5234                   21862471.7584
 11  8 23  1 42 30.0000000  0  9G10G29G12G26G05G04G25G02G30
   3274110.41347   2560880.91244  22955314.7894                   22955312.9614
 -12489795.72347  -9724404.37144  23431181.7194                   23431179.7464
 -11081214.29348  -8621861.63346  21173082.8984                   21173080.3954
 -10611473.32446  -8259143.40643  24523543.0004                   24523543.6174
 -17582894.13348 -13688113.49647  20389096.1954   20389093.3284   23377354.94546
  18058759.51642                  24716641.0164                   24716640.2424
 -15079830.01648 -11738131.14146  21836466.7194                   21836466.6334
  -2231404.32048  -1734860.30946  21481465.5784                   21481460.4534
 -13654473.30148 -10627514.90245  21868812.1094                   21868809.9224
 11  8 23  1 43  0.0000000  0  9G10G29G12G26G05G04G25G02G30
   3417304.94947   2672461.08644  22982564.4304                   22982562.0824
 -12525938.46147  -9752567.54744  23424303.7894                   23424302.4184
 -10992881.16048  -8553030.62146  21189891.9924                   21189889.2504
 -10658169.96146  -8295530.30143  24514657.3914                   24514657.5704
 -17531316.09448 -13647922.78947  20398911.0634   20398908.4844   23502219.93046
  18156056.89142                  24740401.8054                   24740401.0084
 -15056911.48848 -11720272.53546  21840827.6884                   21840827.8484
  -2150151.52047  -1671546.43046  21496927.2974                   21496922.7034
 -13620558.64148 -10601087.88345  21875265.8284                   21875264.3794
 11  8 23  1 43 30.0000000  0  9G10G29G12G26G05G04G25G02G30
   3560779.35547   2784259.32044  23009865.9774                   23009864.2344
 -12562067.88847  -9780720.34444  23417428.8364                   23417427.4844
 -10904016.57848  -8483785.50046  21206802.4304                   21206800.1604
 -10704923.67247  -8331961.64843  24505760.5004                   24505760.3794
 -17479163.60248 -13607284.44947  20408835.5634   20408832.9414   23627030.02747
  18253311.50443                  24764151.8054                   24764151.3714
 -15033412.93448 -11701961.96146  21845299.3594                   21845299.2974
  -2068792.64847  -1608149.89546  21512409.2344                   21512404.6914
 -13586030.71948 -10574183.00846  21881836.3594                   21881834.8364
 11  8 23  1 44  0.0000000  0  9G10G29G12G26G05G04G25G02G30
   2129102.97347   1668667.32845  22737427.0004                   22737424.9964
 -14173615.72347 -11036471.89544  23110761.2424                   23110760.0784
 -12390051.97348  -9641735.16046  20924019.4694                   20924016.6454
 -12327165.11747  -9596045.79343  24197057.4144                   24197057.9924
 -19001867.89548 -14793807.25047  20119074.2274   20119071.4774   22176357.10947
  17122916.93443                  24488098.5864                   24488097.8324
 -16584765.15648 -12910807.82446  21550087.1644                   21550087.2234
  -3562757.69947  -2772278.49246  21228117.2584                   21228112.3404
 -15126320.62948 -11774408.90646  21588729.3754                   21588727.4184
 11  8 23  1 44 30.0000000  0  9G10G29G12G26G05G04G25G02G30
   2273100.79747   1780873.44144  22764829.0164                   22764826.9804
 -14209740.61747 -11064621.17644  23103886.8444                   23103885.2074
 -12300157.50848  -9571687.53146  20941125.7424                   20941123.4264
 -12374050.92646  -9632580.07043  24188135.2894                   24188135.2934
 -18948596.01648 -14752296.66047  20129211.8524   20129209.1094   22301030.03946
  17220064.66443                  24511822.8444                   24511822.6094
 -16560131.73448 -12891612.93846  21554774.7344                   21554774.5864
  -3481215.56648  -2708739.15646  21243634.0084                   21243629.6254
 -15090593.20748 -11746569.36746  21595527.8204                   21595525.7894
 11  8 23  1 45  0.0000000  0  9G10G29G12G26G05G04G25G02G30
   2417369.68747   1893290.72744  22792282.1954                   22792280.8524
 -14245847.51647 -11092756.43044  23097015.8284                   23097014.0984
 -12209736.99648  -9501230.00446  20958332.4534                   20958329.7774
 -12420984.42246  -9669151.49643  24179204.0164                   24179203.7304
 -18894752.09048 -14710340.32447  20139457.6484   20139454.9694   22425647.95346
  17317169.46543                  24535537.5944                   24535536.2624
 -16534916.30548 -12871964.53946  21559572.9614                   21559572.5664
  -3399568.94948  -2645118.40646  21259170.9224                   21259166.6094
 -15054252.43048 -11718251.86745  21602443.1024                   21602440.8674
 11  8 23  1 45 30.0000000  0  9G10G29G12G26G05G04G25G02G30
   2561881.78947   2005897.57444  22819782.1414                   22819779.9614
 -14281960.18847 -11120896.19944  23090143.7664                   23090142.4024
 -12118817.10248  -9430383.34046  20975633.6724                   20975631.1094
 -12467987.50846  -9705777.17243  24170259.8984                   24170259.1214
 -18840361.87548 -14667958.30947  20149808.0234   20149805.2854   22550185.71546
  17414211.83243                  24559236.5554                   24559235.5274
 -16509143.40248 -12851881.73846  21564477.4614                   21564477.6954
  -3317843.24248  -2581436.03546  21274722.7344                   21274718.5394
 -15017323.34048 -11689475.95745  21609470.3834                   21609468.3634
 11  8 23  1 46  0.0000000  0  8G10G29G12G26G05G25G02G30
   2706664.11746   2118714.98044  22847332.6884                   22847331.7624
 -14318047.27747 -11149016.02044  23083276.8834                   23083275.4964
 -12027369.62548  -9359125.57446  20993035.7504                   20993032.8524
 -12515027.11746  -9742431.24243  24161307.8674                   24161308.3054
 -18785396.32848 -14625127.98447  20160267.4064   20160264.6214
 -16482782.50448 -12831340.75846  21569493.6484                   21569493.9964
  -3236009.41448  -2517669.41046  21290295.2274                   21290290.2154
 -14979776.11748 -11660218.37545  21616615.5314                   21616613.8984
 11  8 23  1 46 30.0000000  0  8G10G29G12G26G05G25G02G30
   2851698.32446   2231728.65644  22874932.6954                   22874930.0314
 -14354122.62947 -11177126.69144  23076411.7664                   23076410.4884
 -11935412.90248  -9287470.99246  21010534.2894                   21010531.6994
 -12562116.15647  -9779123.87143  24152347.4924                   24152347.1294
 -18729872.10248 -14581862.32047  20170833.4454   20170830.6954
 -16455848.90648 -12810353.52046  21574618.8054                   21574618.6604
  -3154082.65648  -2453830.37546  21305885.3054                   21305881.0704
 -14941626.64548 -11630491.50045  21623875.1174                   21623872.8444
 11  8 23  1 47  0.0000000  0  8G10G29G12G26G05G25G02G30
   2996980.91446   2344935.88344  22902578.1644                   22902576.9654
 -14390185.42247 -11205227.55945  23069549.5944                   23069548.0744
 -11842948.64848  -9215420.93046  21028129.4924                   21028127.2504
 -12609251.57046  -9815852.63343  24143377.7114                   24143377.8984
 -18673790.50048 -14538162.34047  20181505.5554   20181502.6024
 -16428342.49248 -12788919.94146  21579853.0704                   21579853.0554
  -3072064.28148  -2389919.94946  21321492.7584                   21321488.6294
 -14902875.35948 -11600295.69545  21631249.3054                   21631247.4534
 11  8 23  1 47 30.0000000  0  8G10G29G12G26G05G25G02G30
   3142517.56246   2458341.08644  22930273.0164                   22930271.0664
 -14426225.39847 -11233310.63745  23062691.7114                   23062689.4964
 -11749970.45748  -9142970.39546  21045822.6804                   21045820.4964
 -12656421.41846  -9852608.21943  24134400.8364                   24134401.8444
 -18617144.04748 -14494022.21547  20192284.8054   20192282.1054
 -16400254.00448 -12767032.78546  21585198.4224                   21585198.4224
  -2989946.03148  -2325931.71546  21337119.3204                   21337115.1094
 -14863513.80548 -11569624.34045  21638739.4844                   21638737.4224
 11  8 23  1 48  0.0000000  0  8G10G29G12G26G05G25G02G30
   3288296.58246   2571935.11744  22958013.8674                   22958012.1764
 -14462249.73847 -11261381.52045  23055836.2894                   23055834.7194
 -11656488.35248  -9070127.20346  21063611.9774                   21063609.2704
 -12703631.64146  -9889395.27343  24125417.2114                   24125417.8324
 -18559942.28148 -14449449.38347  20203169.9224   20203167.1294
 -16371591.93048 -12744698.69146  21590652.5474                   21590652.5004
  -2907737.19148  -2261872.87146  21352763.1484                   21352758.7344
 -14823550.93448 -11538484.42245  21646344.1644                   21646342.4224
 11  8 23  1 48 30.0000000  0  8G10G29G12G26G05G25G02G30
   3434318.07047   2685718.09444  22985801.0164                   22985798.9414
 -14498254.02747 -11289436.78144  23048984.4694                   23048982.8874
 -11562501.81348  -8996890.94146  21081497.0634                   21081494.1174
 -12750876.05146  -9926208.97743  24116427.2274                   24116427.4454
 -18502183.12948 -14404442.21547  20214161.1254   20214158.4534
 -16342352.80548 -12721914.94146  21596216.6484                   21596216.2344
  -2825435.02348  -2197741.30546  21368424.9064                   21368420.2664
 -14782983.98848 -11506873.80946  21654063.9224                   21654061.7704
 11  8 23  1 49  0.0000000  0  8G10G29G12G26G05G25G02G30
   3580583.43047   2799691.11744  23013634.3984                   23013632.9184
 -14534232.72747 -11317472.09045  23042138.1414                   23042136.2424
 -11468008.73848  -8923259.97746  21099478.5944                   21099475.9384
 -12798147.23046  -9963043.53943  24107431.3984                   24107431.8524
 -18443863.85948 -14358998.60247  20225258.9304   20225256.2544
 -16312532.17648 -12698678.08246  21601891.3134                   21601890.8054
  -2743036.31348  -2133534.50046  21384104.9144                   21384100.3364
 -14741809.15248 -11474789.52345  21661898.9844                   21661896.7504
 11  8 23  1 49 30.0000000  0  8G10G29G12G26G05G25G02G30
   3727080.55946   2913844.71944  23041511.7664                   23041509.5234
 -14570193.42647 -11345493.35245  23035294.7034                   23035293.3594
 -11373019.77348  -8849242.59846  21117554.5314                   21117551.3914
 -12845451.14846  -9999903.59043  24098430.4614                   24098430.2274
 -18384994.32848 -14313126.22347  20236461.2664   20236458.6024
 -16282138.88748 -12674995.00046  21607674.7344                   21607674.5394
  -2660550.24248  -2069259.63746  21399801.4534                   21399796.7814
 -14700035.91848 -11442238.94146  21669848.2584                   21669846.5004
 11  8 23  1 50  0.0000000  0  8G10G29G12G26G05G25G02G30
   3873804.24247   3028174.87144  23069432.7734                   23069430.8754
 -14606136.78947 -11373501.12145  23028454.9454                   23028453.2074
 -11277539.75448  -8774842.58646  21135723.5314                   21135720.7424
 -12892787.12146 -10036788.61343  24089421.4844                   24089421.7974
 -18325578.07448 -14266827.81647  20247767.9384   20247765.1454
 -16251174.98448 -12650867.28146  21613566.8674                   21613566.7774
  -2577979.81648  -2004919.04346  21415513.8834                   21415509.4414
 -14657666.97348 -11409224.18045  21677910.9534                   21677908.9104
 11  8 23  1 50 30.0000000  0  8G10G29G12G26G05G25G02G30
   4020771.62947   3142694.94144  23097399.7274                   23097397.9304
 -14642041.63347 -11401478.85545  23021622.4454                   23021621.4534
 -11181550.98848  -8700046.14546  21153989.2344                   21153986.8404
 -12940131.88746 -10073680.52343  24080412.0784                   24080412.4454
 -18265596.20748 -14220088.67247  20259182.1564   20259179.7034
 -16219620.25048 -12626279.17646  21619571.7424                   21619571.5704
  -2495305.04748  -1940497.14546  21431246.5474                   21431242.0354
 -14614682.72748 -11375729.94145  21686090.4384                   21686088.3834
 11  8 23  1 51  0.0000000  0  8G10G29G12G26G05G25G02G30
   4167960.01247   3257387.18044  23125408.6094                   23125406.9654
 -14677926.04347 -11429440.66445  23014793.7344                   23014792.8094
 -11085074.69548  -8624869.81346  21172348.2344                   21172345.3874
 -12987502.09846 -10110592.24643  24071398.1024                   24071398.4494
 -18205070.06648 -14172925.42647  20270699.9614   20270697.1454
 -16187494.05548 -12601245.78546  21625685.1564                   21625685.0554
  -2412546.34448  -1876009.83246  21446994.9454                   21446990.4614
 -14571103.14848 -11341771.84045  21694383.1804                   21694381.2704
 11  8 23  1 51 30.0000000  0  8G10G29G12G26G05G25G02G30
   4315372.97347   3372254.42244  23153460.4454                   23153458.2734
 -14713781.87947 -11457380.21145  23007970.9534                   23007969.4024
 -10988106.82848  -8549310.43846  21190800.7424                   21190798.0594
 -13034888.15646 -10147516.33243  24062380.8524                   24062381.1054
 -18143993.89148 -14125333.57847  20282322.4454   20282319.2304
 -16154789.87548 -12575762.00846  21631908.1254                   21631908.3794
  -2329697.72748  -1811452.46146  21462760.4614                   21462755.9884
 -14526922.43048 -11307345.30145  21702790.7894                   21702788.7344
 11  8 23  1 52  0.0000000  0  8G10G29G12G26G05G25G02G30
   4463013.92647   3487299.35544  23181555.5784                   23181553.5204
 -14749601.16847 -11485291.27045  23001154.4694                   23001153.0354
 -10890642.55948  -8473364.25446  21209347.3364                   21209345.0004
 -13082280.32846 -10184445.19543  24053362.3984                   24053362.3834
 -18082362.48048 -14077309.08247  20294050.1724   20294047.2664
 -16121500.96148 -12549822.60246  21638242.9144                   21638242.9844
  -2246752.95748  -1746820.16846  21478544.3594                   21478539.9734
 -14482134.39548 -11272445.53945  21711313.6414                   21711311.3874
 11  8 23  1 52 30.0000000  0  8G10G29G12G26G05G25G02G30
   4610860.57447   3602504.52044  23209689.4534                   23209687.6484
 -14785402.32847 -11513188.21545  22994341.3834                   22994340.1564
 -10792704.36748  -8397048.77746  21227984.5394                   21227982.0594
 -13129695.05946 -10221391.64543  24044339.4844                   24044339.9144
 -18020196.74248 -14028868.22747  20305879.7894   20305877.4574
 -16087646.97748 -12523442.89146  21644685.3444                   21644685.1484
  -2163732.46148  -1682128.87546  21494342.8834                   21494338.3164
 -14436759.41448 -11237088.42645  21719948.0314                   21719946.0634
 11  8 23  1 53  0.0000000  0  8G10G29G12G26G05G25G02G30
   4758917.38747   3717873.47744  23237863.9694                   23237862.1804
 -14821175.99647 -11541063.72345  22987533.9304                   22987532.6684
 -10694286.85248  -8320359.80946  21246712.9614                   21246710.5204
 -13177121.68046 -10258347.31343  24035314.7504                   24035314.2854
 -17957490.45748 -13980006.16447  20317812.6884   20317810.0314
 -16053220.30548 -12496616.91846  21651236.4534                   21651236.6684
  -2080628.93048  -1617372.87946  21510156.7814                   21510152.0744
 -14390790.47748 -11201268.49245  21728695.4924                   21728693.9304
 11  8 23  1 53 30.0000000  0  8G10G29G12G26G05G25G02G30
   4907191.27747   3833411.57444  23266079.5234                   23266077.8594
 -14856910.43447 -11568908.67645  22980734.2584                   22980732.2934
 -10595381.80148  -8243290.93846  21265533.7344                   21265531.2894
 -13224546.81646 -10295301.87543  24026289.4064                   24026289.4064
 -17894234.71948 -13930715.96147  20329849.8054   20329846.8444
 -16018210.49248 -12469336.56346  21657898.7114                   21657898.9654
  -1997432.67248  -1552544.60946  21525988.5084                   21525984.0594
 -14344217.92648 -11164978.21145  21737558.1484                   21737556.1724
 11  8 23  1 54  0.0000000  0  8G10G29G12G26G05G25G02G30
   5055680.77747   3949117.67644  23294336.0084                   23294334.5084
 -14892603.49647 -11596721.38745  22973941.9384                   22973940.3914
 -10495990.20348  -8165842.93846  21284447.6094                   21284444.7894
 -13271965.91846 -10332251.70743  24017266.3134                   24017266.2034
 -17830429.62148 -13880997.68447  20341991.4304   20341988.4224
 -15982616.40248 -12441600.91846  21664672.0944                   21664671.7704
  -1914142.44548  -1487643.11746  21541838.1484                   21541833.7854
 -14297041.10248 -11128217.06645  21746535.9924                   21746533.6564
 11  8 23  1 54 30.0000000  0  8G10G29G12G26G05G25G02G30
   5204365.91047   4064976.21943  23322629.8204                   23322627.5084
 -14928270.38747 -11624513.70345  22967154.5784                   22967152.9184
 -10396132.13348  -8088031.45346  21303449.4614                   21303447.2584
 -13319393.50446 -10369208.18044  24008240.6024                   24008241.0204
 -17766094.14848 -13830866.12947  20354233.9454   20354231.1174
 -15946455.55948 -12413423.65646  21671553.2974                   21671553.5514
  -1830776.45748  -1422682.59446  21557702.2504                   21557697.5164
 -14249278.27348 -11090999.29345  21755624.3914                   21755622.5124
 11  8 23  1 55  0.0000000  0  8G10G29G12G26G05G25G02G30
   5353257.58247   4180995.72744  23350963.1024                   23350961.1024
 -14963895.45747 -11652273.43445  22960375.5164                   22960373.9884
 -10295795.25848  -8009846.87546  21322543.3134                   21322540.9344
 -13366811.98846 -10406157.54344  23999217.7894                   23999217.4454
 -17701215.18448 -13780311.06347  20366579.9454   20366577.0944
 -15909713.53948 -12384793.52046  21678545.0234                   21678545.0904
  -1747320.75848  -1357652.16846  21573583.3984                   21573578.5314
 -14200915.71148 -11053314.18845  21764828.0084                   21764826.1684
 11  8 23  1 55 30.0000000  0  8G10G29G12G26G05G25G02G30
   5502353.76647   4297174.61344  23379335.3834                   23379333.1174
 -14999476.44147 -11679998.81645  22953604.6884                   22953602.8954
 -10194981.08648  -7931290.38746  21341727.7114                   21341724.7814
 -13414217.30946 -10443096.67243  23990196.4304                   23990196.2344
 -17635793.35248 -13729332.99647  20379029.3364   20379026.7734
 -15872389.70348 -12355710.02346  21685647.7114                   21685646.9774
  -1663774.93448  -1292551.51646  21589481.5784                   21589477.0664
 -14151953.24647 -11015161.64845  21774145.0784                   21774142.8204
 11  8 23  1 56  0.0000000  0  8G10G29G12G26G05G25G02G30
   5651655.60547   4413513.69943  23407745.8204                   23407744.3484
 -15035007.54347 -11707685.31645  22946843.1954                   22946841.7544
 -10093687.64848  -7852360.43046  21361003.2664                   21361000.2304
 -13461602.03546 -10480019.71943  23981179.2194                   23981178.9384
 -17569825.85948 -13677929.73047  20391582.7274   20391579.6134
 -15834479.92248 -12326169.94546  21692861.1564                   21692861.3834
  -1580135.36748  -1227377.80546  21605397.4384                   21605392.9144
 -14102387.62548 -10976539.09445  21783576.9844                   21783574.9064
 11  8 23  1 56 30.0000000  0  8G10G29G12G26G05G25G02G30
   5801154.61747   4530006.46944  23436195.3594                   23436192.7194
 -15070492.73847 -11735336.06645  22940090.5394                   22940088.9384
  -9991923.02748  -7773063.31646  21380368.3364                   21380365.8094
 -13508968.70346 -10516928.73443  23972165.5554                   23972164.8404
 -17503320.09048 -13626107.03947  20404238.1254   20404235.5124
 -15795989.96948 -12296177.76646  21700185.9454                   21700186.1954
  -1496408.00448  -1162135.69146  21621330.5634                   21621325.4064
 -14052225.15248 -10937451.46545  21793122.5394                   21793121.0944
 11  8 23  1 57  0.0000000  0  8G10G29G12G26G05G25G02G30
   5950845.39147   4646648.69144  23464680.7504                   23464677.6604
 -15105933.27747 -11762952.00445  22933346.1484                   22933344.4264
  -9889692.17248  -7693402.90646  21399822.0554                   21399819.5634
 -13556316.66046 -10553823.13743  23963155.2894                   23963155.0634
 -17436280.08248 -13573868.04347  20416995.4304   20416992.4774
 -15756922.67648 -12265735.72346  21707620.0394                   21707619.7734
  -1412596.04748  -1096827.65246  21637279.2424                   21637274.6174
 -14001469.37948 -10897901.52745  21802781.1334                   21802778.7664
 11  8 23  1 57 30.0000000  0  8G10G29G12G26G05G25G02G30
   6100718.53147   4763432.95744  23493199.9144                   23493198.4224
 -15141334.21547 -11790537.09045  22926609.6884                   22926608.0354
  -9787004.40648  -7613386.47346  21419362.7274                   21419360.7624
 -13603649.51246 -10590705.77743  23954148.4694                   23954148.0514
 -17368713.78948 -13521218.96947  20429852.9534   20429850.1024
 -15717284.94148 -12234849.17246  21715162.8754                   21715162.9304
  -1328706.45748  -1031459.11746  21653242.6724                   21653238.1094
 -13950127.83648 -10857895.12145  21812550.6024                   21812548.8524
 11  8 23  1 58  0.0000000  0  8G10G29G12G26G05G25G02G30
   6250781.86347   4880365.44144  23521756.0634                   23521753.8524
 -15176683.36347 -11818081.82045  22919882.7814                   22919880.9654
  -9683851.46548  -7533007.55946  21438991.9454                   21438989.8984
 -13650953.02346 -10627565.56643  23945146.6644                   23945146.0234
 -17300612.00448 -13468152.62547  20442812.1174   20442809.3714
 -15677066.07448 -12203509.78946  21722816.6174                   21722816.1454
  -1244728.79748   -966021.96146  21669222.9144                   21669218.6884
 -13898190.55548 -10817424.52345  21822433.9614                   21822432.1604
 11  8 23  1 58 30.0000000  0  8G10G29G12G26G05G25G02G30
   6401028.28547   4997440.57044  23550347.2194                   23550345.3674
 -15211982.66447 -11845587.70345  22913165.9304                   22913163.9964
  -9580239.41048  -7452270.89546  21458709.0314                   21458706.1914
 -13698227.92246 -10664403.06343  23936150.2814                   23936149.7424
 -17231980.17248 -13414673.26247  20455872.4924   20455869.4614
 -15636270.25848 -12171720.82046  21730579.6484                   21730579.5704
  -1160667.35548   -900519.52346  21685219.7504                   21685214.8754
 -13845662.37548 -10776493.46145  21832430.5004                   21832428.1564
 11  8 23  1 59  0.0000000  0  8G10G29G12G26G05G25G02G30
   6551449.42647   5114651.85944  23578971.8444                   23578969.6884
 -15247236.10947 -11873057.86345  22906456.8204                   22906455.4414
  -9476175.96148  -7371182.50446  21478511.5314                   21478509.2464
 -13745476.37146 -10701219.96143  23927159.1564                   23927158.4574
 -17162825.37948 -13360786.39147  20469032.2194   20469029.2464
 -15594903.14548 -12139486.71146  21738451.5004                   21738451.5354
  -1076528.09848   -834956.44546  21701231.0634                   21701225.9734
 -13792549.52347 -10735106.80945  21842537.2734                   21842535.3014
 11  8 23  1 59 30.0000000  0  8G10G29G12G26G05G25G02G30
   6702061.99647   5232012.33244  23607631.4614                   23607629.8244
 -15282422.12947 -11900475.48045  22899761.0164                   22899759.8754
  -9371643.94948  -7289728.99246  21498403.2584                   21498401.1054
 -13792675.57446 -10737998.46543  23918177.5084                   23918176.5594
 -17093129.69148 -13306478.05147  20482294.9844   20482291.8364
 -15552945.44948 -12106792.37146  21746435.7504                   21746435.4494
   -992291.34048   -769317.39546  21717260.5784                   21717255.7584
 -13738833.48448 -10693250.14145  21852758.6414                   21852756.7934
 11  8 23  2  0  0.0000000  0  8G10G29G12G26G05G25G02G30
   6852851.84047   5349510.89143  23636326.2194                   23636324.2274
 -15317551.22747 -11927848.75845  22893076.4534                   22893074.5044
  -9266657.79348  -7207921.61346  21518381.5084                   21518379.2664
 -13839833.89846 -10774745.13343  23909203.7344                   23909202.8364
 -17022905.96548 -13251758.25047  20495657.9924   20495654.8984
 -15510409.10248 -12073647.14546  21754529.8984                   21754530.0784
   -907969.16048   -703611.78546  21733306.3364                   21733301.4494
 -13684526.79348 -10650933.21145  21863093.3134                   21863091.2464
 11  8 23  2  0 30.0000000  0  8G10G29G12G26G05G25G02G30
   5428407.02347   4239553.85944  23365263.7664                   23365261.6024
 -16928036.63747 -13182772.41045  22586610.9924                   22586609.6564
 -10736630.05547  -8353354.55546  21238655.3054                   21238652.6564
 -15462363.39546 -12039053.70743  23600446.1334                   23600445.5234
 -18527567.55548 -14424221.80947  20209330.3204   20209327.4534
 -17042706.83648 -13267645.35946  21462943.4224                   21462943.2114
  -2398973.27748  -1865433.16046  21449577.6644                   21449573.2034
 -15205042.52048 -11835750.63745  21573748.4454                   21573746.7384
 11  8 23  2  1  0.0000000  0  8G10G29G12G26G05G25G02G30
   5579536.24647   4357316.88343  23394022.3444                   23394020.4344
 -16963052.43047 -13210057.40645  22579947.9924                   22579945.7774
 -10630748.71947  -8270849.62546  21258803.8134                   21258801.4384
 -15509435.89146 -12075733.51643  23591489.1334                   23591487.7344
 -18456298.96548 -14368687.83647  20222892.4454   20222889.6524
 -16999020.19948 -13233603.80146  21471256.5314                   21471256.7194
  -2314487.80148  -1799600.30546  21465654.7894                   21465650.3554
 -15149563.58648 -11792520.27345  21584305.7114                   21584303.9694
 11  8 23  2  1 30.0000000  0  8G10G29G12G26G05G25G02G30
   5730835.40646   4475212.30143  23422813.3984                   23422811.6174
 -16998005.11747 -13237293.23445  22573296.4534                   22573295.5044
 -10524419.31248  -8187995.55946  21279037.6804                   21279035.2774
 -15556456.44746 -12112372.82144  23582541.0474                   23582540.3594
 -18384506.05948 -14312745.30147  20236554.2734   20236550.8634
 -16954754.60948 -13199111.11746  21479680.2504                   21479680.2624
  -2229916.66447  -1733700.69946  21481748.1954                   21481743.2584
 -15093495.74247 -11748831.02345  21594975.2504                   21594973.5944
 11  8 23  2  2  0.0000000  0  9G10G29G12G26G05G25G02G15G30
   5882314.65247   4593248.05243  23451639.2664                   23451637.2664
 -17032879.44947 -13264468.00445  22566659.7974                   22566658.6914
 -10417630.93448  -8104783.84446  21299358.3364                   21299356.1844
 -15603408.33646 -12148958.62943  23573605.9384                   23573605.6414
 -18312177.36348 -14256385.27047  20250317.4924   20250314.3444
 -16909897.41448 -13164157.44546  21488216.3524                   21488216.1684
  -2145247.06647  -1667724.37546  21497859.9774                   21497855.4144
 -12685789.98455  -9874940.41453  24478861.0784                   24478861.8054
 -15036826.99647 -11704673.53945  21605759.1024                   21605757.1994
 11  8 23  2  2 30.0000000  0  9G10G29G12G26G05G25G02G15G30
   6033945.94547   4711402.30144  23480493.7894                   23480491.8954
 -17067698.86747 -13291599.98445  22560034.0944                   22560032.5394
 -10310411.49648  -8021236.24646  21319762.0634                   21319759.3364
 -15650313.43046 -12185507.96944  23564681.4384                   23564680.0084
 -18239339.69548 -14199628.63347  20264177.9384   20264175.2544
 -16864474.04348 -13128762.60246  21496860.2274                   21496860.1804
  -2060504.34448  -1601691.07446  21513986.0314                   21513981.2894
 -12731326.94146  -9910423.55143  24470196.2194                   24470196.1254
 -14979583.41848 -11660068.13345  21616651.7664                   21616650.0634
 11  8 23  2  3  0.0000000  0  9G10G29G12G26G05G25G02G15G30
   6185734.30547   4829678.91443  23509378.7424                   23509376.2544
 -17102453.97747 -13318681.84845  22553420.7974                   22553418.6994
 -10202755.57848  -7937348.53146  21340248.1094                   21340245.7384
 -15697160.53947 -12222012.07844  23555765.8834                   23555765.2194
 -18165986.91448 -14142470.60547  20278136.5554   20278133.8164
 -16818477.30548 -13092920.98446  21505612.7344                   21505612.7814
  -1975681.38748  -1535595.25045  21530127.4774                   21530122.8634
 -12776996.49646  -9946010.06643  24461504.5474                   24461505.3954
 -14921758.54748 -11615009.77345  21627655.6724                   21627653.7934
 11  8 23  2  3 30.0000000  0  9G10G29G12G26G05G25G02G15G30
   6337684.03147   4948081.28143  23538292.8914                   23538290.6484
 -17137136.41847 -13345707.11345  22546820.5164                   22546818.7384
 -10094658.65648  -7853117.18046  21360818.2274                   21360816.0164
 -15743939.62146 -12258463.24644  23546863.5394                   23546862.9884
 -18092114.01248 -14084907.29747  20292194.2034   20292191.5274
 -16771900.79748 -13056627.59846  21514476.1484                   21514476.1644
  -1890771.25448  -1469431.50446  21546285.0634                   21546280.3914
 -12822789.08246  -9981692.37943  24452791.0234                   24452791.0944
 -14863346.60948 -11569493.96545  21638771.2114                   21638769.5434
 11  8 23  2  4  0.0000000  0  9G10G29G12G26G05G25G02G15G30
   6489777.15247   5066595.40643  23567235.7974                   23567232.6844
 -17171758.94547 -13372685.68445  22540232.0784                   22540230.0084
  -9986138.88748  -7768556.33646  21381468.9144                   21381466.5474
 -15790661.91047 -12294870.13744  23537972.4844                   23537971.8204
 -18017737.53148 -14026951.59447  20306347.7274   20306344.9144
 -16724759.74248 -13019894.30946  21523446.6254                   21523446.9184
  -1805789.10548  -1403211.62946  21562456.7734                   21562452.2384
 -12868717.29746 -10017480.42643  24444050.8984                   24444051.1764
 -14804363.51248 -11523533.10545  21649995.3364                   21649993.3754
 11  8 23  2  4 30.0000000  0  9G10G29G12G26G05G25G02G15G30
   6642007.79347   5185216.69143  23596203.9454                   23596201.6174
 -17206323.30947 -13399618.93045  22533654.9144                   22533653.4414
  -9877201.75847  -7683670.27046  21402199.1174                   21402196.5514
 -15837327.45747 -12331232.80944  23529092.6414                   23529091.4024
 -17942862.06248 -13968607.06247  20320595.8054   20320592.8364
 -16677058.02048 -12982724.13746  21532523.9924                   21532524.1994
  -1720738.53548  -1336938.44946  21578641.5704                   21578636.4964
 -12914781.69146 -10053374.60243  24435285.5944                   24435285.5704
 -14744813.82048 -11477130.74245  21661327.1884                   21661325.6524
 11  8 23  2  5  0.0000000  0  9G10G29G12G26G05G25G02G15G30
   6794403.45347   5303966.52043  23625204.2344                   23625202.0004
 -17240796.88747 -13426481.42645  22527094.6174                   22527092.8674
  -9767818.95747  -7598436.93746  21423013.7814                   21423011.5434
 -15883902.34847 -12367524.86744  23520229.5234                   23520228.4734
 -17867458.95348 -13909851.38747  20334944.8754   20334941.5234
 -16628765.37148 -12945093.51646  21541714.0004                   21541714.0514
  -1635588.84048  -1270588.02346  21594844.7504                   21594840.0084
 -12960949.49246 -10089349.28943  24426498.6334                   24426500.3714
 -14684668.08648 -11430263.94145  21672772.3364                   21672770.7814
 11  8 23  2  5 30.0000000  0  9G10G29G12G26G05G25G02G15G30
   6946934.17647   5422821.61743  23654229.7274                   23654227.3984
 -17275205.49247 -13453293.29345  22520547.2194                   22520545.1644
  -9658020.86348  -7512880.00046  21443907.9614                   21443905.0634
 -15930410.46147 -12403764.87144  23511379.7344                   23511378.6684
 -17791557.53948 -13850707.41847  20349388.2274   20349385.4964
 -16579909.99248 -12907024.39146  21551010.8984                   21551010.8984
  -1550368.00048  -1204182.17246  21611061.8834                   21611057.3594
 -13007245.54746 -10125424.02743  24417689.1254                   24417689.3164
 -14623954.92648 -11382954.99245  21684325.6564                   21684323.5434
 11  8 23  2  6  0.0000000  0  9G10G29G12G26G05G25G02G15G30
   7099613.27347   5541792.30943  23683283.5554                   23683281.0474
 -17309531.34847 -13480040.66445  22514014.7894                   22514013.1644
  -9547793.86348  -7426988.84446  21464883.2504                   21464880.8794
 -15976832.48447 -12439937.78144  23502545.2664                   23502544.6254
 -17715143.60548 -13791164.08647  20363929.2194   20363925.9884
 -16530476.42648 -12868504.73846  21560417.8984                   21560417.6884
  -1465060.27048  -1137708.60246  21627295.1804                   21627290.8834
 -13053651.52346 -10161584.35243  24408858.9064                   24408859.0044
 -14562659.64548 -11335192.44945  21695989.9694                   21695987.9024
 11  8 23  2  6 30.0000000  0  9G10G29G12G26G05G25G02G15G30
   7252443.96546   5660881.16843  23712366.6954                   23712363.8874
 -17343766.60247 -13506717.44545  22507499.9454                   22507498.5744
  -9437134.53548  -7340760.81646  21485941.1094                   21485938.3484
 -16023158.96147 -12476036.25444  23493729.8984                   23493729.0744
 -17638212.95348 -13731218.11347  20378568.7814   20378565.6024
 -16480459.30548 -12829530.35546  21569935.8594                   21569935.6254
  -1379659.84448  -1071162.80146  21643546.1804                   21643541.7074
 -13100159.36746 -10197824.06243  24400008.1174                   24400008.0164
 -14500777.56248 -11286972.64145  21707765.7274                   21707763.7894
 11  8 23  2  7  0.0000000  0  9G10G29G12G26G05G25G02G15G30
   7405406.67247   5780072.90243  23741474.7344                   23741472.8054
 -17377926.41047 -13533335.42645  22500999.6484                   22500997.6994
  -9326062.29348  -7254211.03146  21507077.1024                   21507074.7194
 -16069403.36347 -12512070.75844  23484930.0554                   23484929.0354
 -17560783.91848 -13670883.78547  20393302.8914   20393300.2624
 -16429876.08248 -12790114.84846  21579561.1804                   21579561.6174
  -1294183.81648  -1004558.09446  21659811.9924                   21659807.0234
 -13146783.01646 -10234154.06243  24391135.8834                   24391135.4964
 -14438326.85548 -11238309.77045  21719649.8284                   21719648.0314
 11  8 23  2  7 30.0000000  0  9G10G29G12G26G05G25G02G15G30
   7558513.89146   5899377.19543  23770608.7504                   23770607.7894
 -17411993.30547 -13559881.01645  22494517.1954                   22494515.1254
  -9214564.61348  -7167329.73046  21528294.5554                   21528292.6294
 -16115546.60947 -12548026.46944  23476148.7814                   23476147.6604
 -17482842.89848 -13610150.50847  20408134.5944   20408131.6334
 -16378711.82848 -12750246.60546  21589297.6254                   21589297.0514
  -1208616.68048   -937882.39846  21676094.6484                   21676090.4224
 -13193504.28946 -10270560.03543  24382244.2814                   24382245.0084
 -14375293.24648 -11189192.68745  21731644.9534                   21731643.0434
 11  8 23  2  8  0.0000000  0  9G10G29G12G26G05G25G02G15G30
   7711750.82046   6018782.54343  23799769.0554                   23799768.1644
 -17445977.87147 -13586362.43445  22488049.6484                   22488047.9144
  -9102656.40248  -7080128.55146  21549590.3754                   21549588.1374
 -16161597.84047 -12583910.46943  23467385.4614                   23467384.8134
 -17404404.29748 -13549029.50847  20423061.0554   20423057.9774
 -16326979.69548 -12709935.84446  21599141.9614                   21599141.6254
  -1122970.96947   -871145.47346  21692392.3834                   21692388.3594
 -13240333.44146 -10307050.15243  24373333.3914                   24373333.7704
 -14311690.51648 -11139632.12145  21743747.8284                   21743745.9494
 11  8 23  2  8 30.0000000  0  9G10G29G12G26G05G25G02G15G30
   7865113.04746   6138285.52744  23828953.1884                   23828951.8404
 -17479879.91047 -13612779.55545  22481598.7274                   22481596.5904
  -8990341.82447  -6992610.71146  21570962.7114                   21570960.4614
 -16207555.08247 -12619721.21144  23458639.5234                   23458638.3524
 -17325471.77048 -13487523.62946  20438081.2504   20438078.4224
 -16274681.93448 -12669184.33646  21609093.5554                   21609093.1684
  -1037248.68447   -804348.87945  21708704.9064                   21708700.6214
 -13287269.56247 -10343623.57843  24364402.2424                   24364401.4064
 -14247521.59448 -11089630.37145  21755958.5704                   21755957.1644
 11  8 23  2  9  0.0000000  0  9G10G29G12G26G05G25G02G15G30
   8018612.82047   6257895.72343  23858163.9614                   23858161.7734
 -17513682.68047 -13639119.30945  22475165.8134                   22475164.0514
  -8877608.67647  -6904766.71546  21592415.4144                   21592412.7584
 -16253399.86747 -12655444.35244  23449916.2424                   23449915.6914
 -17246031.78148 -13425622.32447  20453198.3134   20453195.2974
 -16221804.32848 -12627980.98446  21619155.7504                   21619156.1954
   -951434.99247   -737481.06645  21725034.6954                   21725030.3444
 -13334294.93446 -10380266.55543  24355452.5864                   24355453.3364
 -14182772.93048 -11039176.87146  21768280.0164                   21768278.3054
 11  8 23  2  9 30.0000000  0  9G10G29G12G26G05G25G02G15G30
   8172238.96547   6377604.39843  23887398.0164                   23887395.7934
 -17547392.66447 -13665386.77345  22468751.1024                   22468749.2034
  -8764468.23048  -6816605.34446  21613945.6484                   21613942.6454
 -16299137.26647 -12691083.80944  23441212.1414                   23441211.1684
 -17166095.10948 -13363333.98447  20468409.8444   20468406.8794
 -16168356.17648 -12586333.05546  21629326.6564                   21629326.7704
   -865538.52747   -670548.75446  21741380.7664                   21741376.1024
 -13381415.61346 -10416983.80143  24346485.8134                   24346485.9804
 -14117454.55948 -10988279.43745  21780709.8524                   21780708.6054
 11  8 23  2 10  0.0000000  0  9G10G29G12G26G05G25G02G15G30
   8325990.55146   6497410.82043  23916655.4774                   23916653.3554
 -17581006.37147 -13691579.18445  22462354.5394                   22462352.8524
  -8650921.01647  -6728127.00846  21635552.6884                   21635550.0124
 -16344762.25447 -12726635.68044  23432530.1334                   23432529.0204
 -17085661.42648 -13300658.35947  20483715.6804   20483712.5314
 -16114336.50448 -12544239.78946  21639606.2034                   21639606.0164
   -779557.51247   -603550.56246  21757742.2734                   21757737.1174
 -13428627.59047 -10453772.18043  24337502.5554                   24337502.1414
 -14051566.13748 -10936937.80945  21793248.0864                   21793245.9844
 11  8 23  2 10 30.0000000  0  9G10G29G12G26G05G25G02G15G30
   8479852.73846   6617303.43044  23945934.5784                   23945932.6994
 -17614533.85247 -13717704.41845  22455974.8204                   22455972.6764
  -8536982.13747  -6639343.48046  21657234.2974                   21657231.8834
 -16390283.21547 -12762106.46944  23423867.5474                   23423866.6564
 -17004744.60248 -13237606.27047  20499113.8594   20499110.5124
 -16059758.19948 -12501711.21146  21649992.4614                   21649992.4534
   -693504.23447   -536496.05946  21774117.6094                   21774112.8094
 -13475940.09846 -10490638.89843  24328498.1024                   24328498.7344
 -13985121.12548 -10885162.47345  21805892.1724                   21805890.3714
 11  8 23  2 11  0.0000000  0  9G10G29G12G26G05G25G02G15G30
   8633843.04347   6737295.84444  23975238.6414                   23975236.1454
 -17647953.24247 -13743745.43445  22449614.8834                   22449613.5394
  -8422634.42247  -6550241.38746  21678994.2344                   21678991.6914
 -16435676.40647 -12797477.73844  23415229.8914                   23415229.0124
 -16923326.73448 -13174163.75047  20514607.0864   20514604.4654
 -16004601.84048 -12458732.20746  21660488.0084                   21660488.1054
   -607358.67648   -469369.65246  21790510.5944                   21790505.8554
 -13523330.59447 -10527566.35243  24319479.9304                   24319479.8754
 -13918100.86348 -10832938.87945  21818645.2584                   21818643.3834
 11  8 23  2 11 30.0000000  0  9G10G29G12G26G05G25G02G15G30
   8787938.06347   6857369.86743  24004561.7814                   24004559.4414
 -17681283.05147 -13769716.64545  22443272.4924                   22443270.3364
  -8307900.77347  -6460838.55946  21700827.7274                   21700824.9024
 -16480958.95747 -12832762.75444  23406612.6334                   23406611.6254
 -16841430.57048 -13110348.53547  20530191.2194   20530188.4614
 -15948888.87548 -12415319.48446  21671090.1334                   21671090.1334
   -521141.73847   -402187.63346  21806916.9924                   21806912.1524
 -13570816.95746 -10564568.55543  24310443.4774                   24310443.1644
 -13850527.44148 -10780284.24646  21831504.1094                   21831502.2894
 11  8 23  2 12  0.0000000  0  9G10G29G12G26G05G25G02G15G30
   8942159.16447   6977542.13743  24033908.3134                   24033906.9304
 -17714497.79747 -13795598.18445  22436951.9844                   22436949.7504
  -8192759.96547  -6371118.46546  21722737.9144                   21722735.3014
 -16526103.84847 -12867940.53544  23398022.0084                   23398020.7624
 -16759033.93048 -13046143.33647  20545870.7114   20545867.7734
 -15892596.52348 -12371455.27746  21681801.8364                   21681801.7504
   -434829.61747   -334931.44546  21823341.6724                   21823337.1684
 -13618372.98446 -10601624.98444  24301394.1174                   24301394.3014
 -13782378.75848 -10727181.36345  21844472.3444                   21844470.5514
 11  8 23  2 12 30.0000000  0  9G10G29G12G26G05G25G02G15G30
   9096482.63346   7097794.18043  24063275.0394                   24063273.4884
 -17747616.62547 -13821404.97745  22430649.2894                   22430647.3714
  -8077236.33247  -6281100.07046  21744721.2584                   21744718.9104
 -16571128.46947 -12903024.57444  23389454.0164                   23389452.5394
 -16676159.82848 -12981566.09447  20561641.2734   20561638.0004
 -15835746.87148 -12327156.82846  21692620.1884                   21692620.0164
   -348443.71148   -267617.76646  21839780.5004                   21839775.5514
 -13666017.16046 -10638750.16843  24292327.4924                   24292327.3984
 -13713677.55948 -10673647.94545  21857545.7584                   21857543.9654
 11  8 23  2 13  0.0000000  0  9G10G29G12G26G05G25G02G15G30
   9250907.49246   7218125.26643  24092660.9774                   24092659.4264
 -17780635.55947 -13847133.93745  22424366.0474                   22424364.1684
  -7961330.72747  -6190784.03546  21766777.3204                   21766774.5474
 -16616027.73447 -12938010.95344  23380909.9694                   23380908.6764
 -16592808.75448 -12916617.18046  20577502.2734   20577499.0354
 -15778338.82448 -12282423.25446  21703544.4774                   21703544.5634
   -261981.94548   -200244.96145  21856233.5944                   21856228.4884
 -13713744.94146 -10675940.49643  24283245.0944                   24283244.5394
 -13644423.41448 -10619683.66045  21870724.6024                   21870722.7504
 11  8 23  2 13 30.0000000  0  9G10G29G12G26G05G25G02G15G30
   9405438.68446   7338539.14842  24122067.3914                   24122065.6844
 -17813545.56647 -13872778.01645  22418103.7814                   22418101.2974
  -7845038.50448  -6100166.73046  21788907.2034                   21788904.5704
 -16660790.34447 -12972890.82844  23372391.9924                   23372390.7814
 -16508974.89848 -12851292.09046  20593455.2974   20593452.5234
 -15720366.02048 -12237249.62146  21714576.3284                   21714575.8324
   -175437.21147   -132807.51245  21872702.4384                   21872697.4774
 -13761546.51646 -10713188.33244  24274148.9614                   24274148.1414
 -13574610.59448 -10565284.04345  21884009.3834                   21884007.8554
 11  8 23  2 14  0.0000000  0  9G10G29G12G26G05G25G02G15G30
   9560068.03546   7459029.60243  24151492.4534                   24151490.9344
 -17846349.88747 -13898339.77045  22411860.7424                   22411858.8484
  -7728367.87147  -6009254.56646  21811108.7424                   21811106.8134
 -16705418.35947 -13007665.83244  23363899.2274                   23363898.0234
 -16424665.80548 -12785596.66446  20609498.7424   20609495.7114
 -15661834.75448 -12191640.81646  21725714.3204                   21725714.1254
    -88814.75447    -65309.49245  21889185.9924                   21889181.4614
 -13809424.75446 -10750495.89143  24265037.7734                   24265037.1334
 -13504246.17248 -10510454.59845  21897399.2274                   21897397.1294
 11  8 23  2 14 30.0000000  0  9G10G29G12G26G05G25G02G15G30
   9714801.82046   7579601.37543  24180937.5944                   24180935.3094
 -17879037.43047 -13923810.50445  22405640.7274                   22405638.8754
  -7611312.33248  -5918042.48846  21833383.9694                   21833381.3874
 -16749899.25447 -13042326.18744  23355434.3054                   23355433.1484
 -16339874.83648 -12719525.77747  20625634.0164   20625631.0044
 -15602737.10948 -12145590.68446  21736960.3054                   21736960.3834
     -2106.00447      2255.75045  21905686.5234                   21905681.8364
 -13857367.73447 -10787853.96544  24255914.1644                   24255913.9064
 -13433322.69548 -10455189.52745  21910895.6254                   21910893.8134
 11  8 23  2 15  0.0000000  0  9G10G29G12G26G05G25G02G15G30
   9869631.95746   7700248.17642  24210400.1804                   24210399.2034
 -17911612.07047 -13949193.26645  22399441.6724                   22399439.6134
  -7493880.44547  -5826537.12946  21855730.1414                   21855728.5124
 -16794234.93747 -13076873.39144  23346998.5784                   23346997.0204
 -16254609.12948 -12653084.95346  20641859.6254   20641856.7504
 -15543079.76248 -12099104.41046  21748312.4144                   21748312.2934
     84683.57848     69883.99245  21922201.9064                   21922197.0234
 -13905378.77746 -10825265.04744  24246778.2504                   24246777.6054
 -13361847.62548 -10399494.64545  21924496.4304                   21924494.9964
 11  8 23  2 15 30.0000000  0  9G10G29G12G26G05G25G02G15G30
  10024553.27346   7820966.05143  24239881.8134                   24239879.9734
 -17944074.46947 -13974488.57845  22393264.4144                   22393262.2194
  -7376077.92647  -5734742.98446  21878147.1564                   21878144.9804
 -16838424.70347 -13111306.92244  23338589.0864                   23338587.5234
 -16168873.77048 -12586278.17647  20658174.6644   20658171.1054
 -15482866.37948 -12052184.88346  21759771.0554                   21759770.8674
    171551.08647    137572.94945  21938732.1644                   21938727.4614
 -13953457.55947 -10862728.90644  24237628.7344                   24237628.0004
 -13289825.23448 -10343373.29345  21938202.2504                   21938200.3524
 11  8 23  2 16  0.0000000  0  9G10G29G12G26G05G25G02G15G30
  10179568.80946   7941757.37543  24269380.0394                   24269378.3164
 -17976416.95347 -13999690.45345  22387109.8444                   22387107.5004
  -7257901.79347  -5642657.70746  21900635.8284                   21900633.0944
 -16882459.39547 -13145619.57444  23330209.2974                   23330207.9574
 -16082664.65248 -12519102.22746  20674579.5554   20674576.8014
 -15422092.28148 -12004828.42646  21771335.9614                   21771336.3524
    258502.37547    205327.19945  21955278.6254                   21955273.5784
 -14001595.53147 -10900238.91044  24228468.4064                   24228468.4264
 -13217251.59448 -10286822.37545  21952012.0234                   21952010.3404
 11  8 23  2 16 30.0000000  0  9G10G29G12G26G05G25G02G15G30
  10334679.40246   8062622.80543  24298896.4304                   24298894.5234
 -18008634.23447 -14024794.76645  22380979.0314                   22380977.1844
  -7139351.36747  -5550280.77746  21923194.7974                   21923192.3404
 -16926331.96147 -13179805.91844  23321860.5164                   23321859.1254
 -15995980.84448 -12451556.38746  20691074.9534   20691071.9454
 -15360755.32448 -11957033.37946  21783007.8984                   21783007.9924
    345540.86348    273149.39545  21971841.0474                   21971836.4844
 -14049787.41846 -10937790.87144  24219297.7114                   24219297.1684
 -13144125.14548 -10229840.71545  21965928.3754                   21965926.3754
 11  8 23  2 17  0.0000000  0  9G10G29G12G26G05G25G02G15G30
  10489873.10946   8183552.93443  24328429.1024                   24328426.8404
 -18040733.82447 -14049807.38345  22374870.6724                   22374868.3014
  -7020439.10248  -5457621.88346  21945823.4224                   21945821.1454
 -16970048.30947 -13213870.52744  23313541.4534                   23313540.7934
 -15908833.84848 -12383649.62146  20707658.2114   20707655.3484
 -15298866.09848 -11908807.99246  21794785.1644                   21794785.0274
    432656.45748    341031.69545  21988418.8754                   21988414.1174
 -14098039.65647 -10975389.90644  24210116.3594                   24210115.1414
 -13070457.21547 -10172437.11745  21979946.3054                   21979944.5434
 11  8 23  2 17 30.0000000  0  9G10G29G12G26G05G25G02G15G30
   9069729.78146   7076947.69143  24058184.2664                   24058182.6644
 -19648137.30147 -15302329.52745  22068991.6644                   22068989.5944
  -8476586.53147  -6592282.24246  21668727.4454                   21668725.2384
 -18589029.10547 -14475413.94544  23005459.3834                   23005458.8204
 -17396645.20348 -13542983.13347  20424537.3054   20424534.2894
 -16811846.24248 -13087753.56646  21506874.3834                   21506875.0124
  -1055569.98848   -818625.27045  21705218.8364                   21705214.1214
 -15721773.75446 -12240637.13343  23901128.9064                   23901128.0234
 -14571669.53947 -11342212.94545  21694274.9614                   21694273.5084
 11  8 23  2 18  0.0000000  0  9G10G29G12G26G05G25G02G15G30
   9225093.08246   7198009.98443  24087749.4534                   24087747.8754
 -19679984.21947 -15327145.26245  22062931.6414                   22062929.4614
  -8356947.83247  -6499057.30946  21691494.0084                   21691491.5984
 -18632411.37147 -14509218.22744  22997204.0474                   22997203.2584
 -17308566.85548 -13474350.63347  20441298.1644   20441295.5944
 -16748844.87948 -13038661.59046  21518863.3754                   21518863.2894
   -968288.01247   -750613.31645  21721828.0784                   21721823.5004
 -15770127.53947 -12278315.30543  23891927.9534                   23891926.5394
 -14496912.81648 -11283960.94145  21708501.1254                   21708499.3674
 11  8 23  2 18 30.0000000  0  9G10G29G12G26G05G25G02G15G30
   9380519.21147   7319121.26644  24117326.2034                   24117324.1644
 -19711719.63747 -15351874.11745  22056892.7734                   22056890.5274
  -8236968.60247  -6405567.02346  21714325.1884                   21714323.2544
 -18675639.19947 -14542902.16844  22988977.6644                   22988976.9264
 -17220044.18848 -13405371.91046  20458143.5234   20458140.4774
 -16685307.19148 -12989151.69546  21530954.4614                   21530953.9614
   -880941.23047   -682550.89145  21738449.4534                   21738444.6454
 -15818546.34447 -12316044.09844  23882713.4924                   23882712.8164
 -14421632.37147 -11225300.84845  21722826.7664                   21722824.1564
 11  8 23  2 19  0.0000000  0  9G10G29G12G26G05G25G02G15G30
   9536026.52346   7440295.78144  24146918.4454                   24146916.4454
 -19743320.89147 -15376498.43045  22050879.0394                   22050876.6254
  -8116630.39147  -6311797.00446  21737225.2734                   21737222.7664
 -18718688.10947 -14576446.71144  22980786.4614                   22980784.8284
 -17131058.25048 -13336032.20346  20475076.8834   20475074.0314
 -16621213.66448 -12939208.68046  21543150.5864                   21543150.3834
   -793508.84447   -614421.73845  21755087.0394                   21755082.5594
 -15867006.30546 -12353804.95343  23873491.6564                   23873491.0354
 -14345809.34448 -11166217.97345  21737254.9064                   21737253.3484
 11  8 23  2 19 30.0000000  0  9G10G29G12G26G05G25G02G15G30
   9691607.38747   7561527.62543  24176524.6804                   24176522.1804
 -19774790.84847 -15401020.43845  22044890.6024                   22044887.9804
  -7995941.19947  -6217753.48846  21760191.1254                   21760189.0554
 -18761559.43047 -14609852.86744  22972628.0394                   22972626.4734
 -17041616.21948 -13266337.10246  20492096.9694   20492094.1024
 -16556570.28148 -12888837.22746  21555451.4534                   21555451.9454
   -705995.46147   -546229.48045  21771740.7504                   21771735.4774
 -15915509.46947 -12391599.52744  23864262.2114                   23864261.4144
 -14269450.50047 -11106717.56645  21751785.8444                   21751783.8014
 11  8 23  2 20  0.0000000  0  9G10G29G12G26G05G25G02G15G30
   9847259.77346   7682815.20343  24206143.5084                   24206141.7194
 -19806126.98047 -15425438.17646  22038927.3284                   22038925.0984
  -7874903.59047  -6123438.48846  21783223.9384                   21783221.8164
 -18804249.48047 -14643117.77344  22964504.5084                   22964502.7894
 -16951719.98048 -13196288.06346  20509203.7504   20509200.6604
 -16491378.25048 -12838038.24246  21567857.4064                   21567857.2934
   -618401.19947   -477974.18445  21788409.0944                   21788404.1454
 -15964053.28547 -12429425.75044  23855023.9774                   23855023.1294
 -14192557.60248 -11046801.02045  21766417.8134                   21766415.8594
 11  8 23  2 20 30.0000000  0  9G10G29G12G26G05G25G02G15G30
  10002991.76246   7804164.81643  24235778.1414                   24235776.4534
 -19837316.87947 -15449741.96146  22032992.0164                   22032989.6484
  -7753510.13747  -6028846.21546  21806324.4614                   21806321.8794
 -18846743.84847 -14676230.20744  22956418.1484                   22956415.9144
 -16861361.12548 -13125878.55547  20526398.4384   20526395.6374
 -16425628.18448 -12786804.42246  21580369.0394                   21580369.5514
   -530715.05947   -409647.30945  21805095.2894                   21805090.5784
 -16012624.25447 -12467273.13344  23845781.7114                   23845780.1174
 -14115121.93448 -10986461.53945  21781153.3444                   21781151.3284
 11  8 23  2 21  0.0000000  0  9G10G29G12G26G05G25G02G15G30
  10158788.60546   7925564.94142  24265425.2034                   24265424.0824
 -19868370.57847 -15473939.61346  22027082.8054                   22027080.6724
  -7631775.38348  -5933987.97746  21829489.7584                   21829487.6374
 -18889051.38747 -14709197.04744  22948367.1804                   22948365.6764
 -16770553.99648 -13055119.72346  20543678.7274   20543675.5394
 -16359333.55948 -12735146.28946  21592984.3674                   21592984.6604
   -442949.41448   -341258.48045  21821796.5164                   21821791.8874
 -16061231.66847 -12505148.91844  23836532.4144                   23836530.5984
 -14037157.53148 -10925710.06645  21795989.4694                   21795987.4304
 11  8 23  2 21 30.0000000  0  9G10G29G12G26G05G25G02G15G30
  10314655.77346   8047019.85942  24295086.0864                   24295084.6024
 -19899278.04747 -15498023.32846  22021201.5944                   22021198.8634
  -7509695.02347  -5838860.44146  21852721.0634                   21852718.9494
 -18931160.52047 -14742009.31344  22940354.1174                   22940352.3594
 -16679292.73848 -12984007.04746  20561044.7584   20561041.3014
 -16292487.96148 -12683058.81646  21605705.0084                   21605705.1094
   -355096.49647   -272801.66845  21838514.4384                   21838509.2704
 -16109865.11347 -12543044.98844  23827277.4454                   23827276.3134
 -13958658.72347 -10864542.16445  21810927.3594                   21810925.8134
 11  8 23  2 22  0.0000000  0  9G10G29G12G26G05G25G02G15G30
  10470574.89546   8168515.20342  24324755.8524                   24324755.2464
 -19930053.32447 -15522004.02045  22015345.1024                   22015342.3794
  -7387287.60948  -5743478.04746  21876014.3364                   21876012.1254
 -18973083.48047 -14774676.49644  22932375.8594                   22932374.4454
 -16587595.39848 -12912554.55146  20578494.5704   20578491.4454
 -16225108.47348 -12630555.32046  21618526.8594                   21618526.8554
   -267171.79748   -204288.90245  21855246.1564                   21855240.9574
 -16158537.86346 -12580971.78543  23818014.7424                   23818013.3634
 -13879643.15247 -10802971.60245  21825963.8204                   21825961.8634
 11  8 23  2 22 30.0000000  0  9G10G29G12G26G05G25G02G15G30
  10626556.50845   8290059.32042  24354439.3834                   24354437.3364
 -19960681.30947 -15545869.94946  22009516.0634                   22009514.2304
  -7264542.78548  -5647832.75445  21899371.9774                   21899369.7344
 -19014803.85247 -14807185.85244  22924437.0394                   22924434.9614
 -16495451.62148 -12840754.18846  20596028.3914   20596025.6954
 -16157183.81348 -12577627.02046  21631452.7034                   21631452.5824
   -179162.71548   -135710.39145  21871993.3364                   21871988.4614
 -16207234.22946 -12618916.82444  23808747.8134                   23808746.9924
 -13800100.18047 -10740990.07045  21841100.1884                   21841098.3834
 11  8 23  2 23  0.0000000  0  9G10G29G12G26G05G25G02G15G30
  10782581.83246   8411637.40242  24384128.9384                   24384127.8524
 -19991176.29747 -15569632.23446  22003713.5634                   22003711.0044
  -7141480.69948  -5551940.23846  21922789.8914                   21922787.4964
 -19056334.37147 -14839547.24644  22916534.1724                   22916532.7034
 -16402880.07048 -12768620.49646  20613644.5084   20613641.2344
 -16088731.62548 -12524287.66046  21644478.7274                   21644478.7424
    -91085.22348    -67078.57445  21888754.0474                   21888749.2274
 -16255967.52047 -12656890.68844  23799473.9454                   23799472.8714
 -13720048.02747 -10678611.77045  21856333.1564                   21856331.5904
 11  8 23  2 23 30.0000000  0  9G10G29G12G26G05G25G02G15G30
  10938673.80946   8533267.55942  24413832.9774                   24413830.6214
 -20021510.66447 -15593269.35946  21997940.8364                   21997938.6564
  -7018078.55548  -5455782.74645  21946272.9694                   21946270.3014
 -19097646.03547 -14871738.12944  22908672.6564                   22908671.2504
 -16309857.51248 -12696135.37546  20631346.1414   20631342.9694
 -16019727.96948 -12470518.57846  21657609.3754                   21657609.3444
     -2914.50448      1625.87145  21905532.5234                   21905527.8794
 -16304709.83247 -12694871.62944  23790199.8444                   23790198.1644
 -13639463.48847 -10615818.62945  21871668.0164                   21871666.6334
 11  8 23  2 24  0.0000000  0  9G10G29G12G26G05G25G02G15G30
  11094821.37146   8654941.03143  24443547.3444                   24443545.0864
 -20051690.63347 -15616786.15646  21992197.9924                   21992195.8094
  -6894347.58248  -5359369.02346  21969817.5474                   21969815.3324
 -19138743.57447 -14903762.15644  22900851.6334                   22900850.3674
 -16216394.18048 -12623306.78946  20649131.4144   20649128.2074
 -15950182.68448 -12416327.44946  21670843.7504                   21670843.4024
     85341.73848     70396.94945  21922326.9614                   21922322.6294
 -16353466.64546 -12732863.82044  23780920.5234                   23780919.8984
 -13558357.02747 -10552618.79345  21887102.2664                   21887100.1644
 11  8 23  2 24 30.0000000  0  9G10G29G12G26G05G25G02G15G30
  11251003.43046   8776641.34843  24473267.8364                   24473265.4694
 -20081732.86347 -15640195.61746  21986481.0234                   21986478.6844
  -6770309.61348  -5262716.06345  21993421.3524                   21993419.1454
 -19179642.24247 -14935631.21144  22893068.8204                   22893067.5744
 -16122511.45748 -12550151.40646  20666996.6724   20666993.7504
 -15880116.05548 -12361730.07446  21684176.5084                   21684176.6294
    173664.55948    139219.92645  21939134.6564                   21939129.5474
 -16402253.85947 -12770879.71544  23771637.0474                   23771635.4844
 -13476749.44548 -10489028.46545  21902631.4694                   21902629.7194
 11  8 23  2 25  0.0000000  0  9G10G29G12G26G05G25G02G15G30
  11407233.82046   8898379.31243  24502997.1174                   24502995.3404
 -20111618.87947 -15663483.35546  21980793.7344                   21980791.7584
  -6645950.94948  -5165813.23845  22017086.2584                   22017083.5984
 -19220321.69547 -14967329.44144  22885328.2114                   22885326.6884
 -16028194.84848 -12476657.94146  20684944.8054   20684941.7734
 -15809513.05148 -12306714.74246  21697612.1954                   21697612.2894
    262070.58247    208107.74245  21955957.6884                   21955952.6294
 -16451052.14847 -12808904.23844  23762350.5234                   23762349.3594
 -13394626.43048 -10425036.51245  21918259.0554                   21918257.5744
 11  8 23  2 25 30.0000000  0  9G10G29G12G26G05G25G02G15G30
  11563524.79746   9020164.45743  24532738.2734                   24532735.8364
 -20141332.17648 -15686636.49645  21975139.6254                   21975137.1254
  -6521260.19948  -5068651.62546  22040814.3524                   22040811.9734
 -19260764.17247 -14998843.02044  22877632.3054                   22877631.0124
 -15933432.34048 -12402817.01246  20702977.1884   20702974.0434
 -15738360.86348 -12251271.47346  21711151.9534                   21711152.3404
    350574.25448    277071.64545  21972798.9924                   21972794.3364
 -16499844.71147 -12846924.28944  23753065.4844                   23753064.1254
 -13311975.68448 -10360633.33245  21933987.4304                   21933985.7464
 11  8 23  2 26  0.0000000  0  9G10G29G12G26G05G25G02G15G30
  11719857.79746   9141982.43743  24562487.2194                   24562485.6524
 -20170887.23848 -15709666.33646  21969515.4384                   21969512.9024
  -6396257.10248  -4971246.63746  22064601.5704                   22064599.0784
 -19300982.75447 -15030182.12144  22869978.5004                   22869977.1914
 -15838242.78548 -12328643.31646  20721091.5234   20721088.1724
 -15666677.64848 -12195414.42246  21724792.8834                   21724792.8984
    439158.95348    346098.68045  21989655.9694                   21989651.3524
 -16548644.99247 -12884950.35944  23743779.8364                   23743777.9694
 -13228816.07848 -10295833.65245  21949811.9924                   21949810.0664
 11  8 23  2 26 30.0000000  0  9G10G29G12G26G05G25G02G15G30
  11876233.15246   9263833.44943  24592244.8524                   24592242.1644
 -20200278.91048 -15732568.85946  21963922.0234                   21963919.6254
  -6270941.60548  -4873598.21945  22088448.2664                   22088446.1214
 -19340970.57447 -15061341.41844  22862369.2034                   22862367.9414
 -15742625.55548 -12254136.37946  20739286.8364   20739283.3834
 -15594462.02748 -12139142.50046  21738534.8204                   21738535.1094
    527827.89548    415191.35245  22006529.2504                   22006524.7034
 -16597447.33647 -12922978.02744  23734492.3284                   23734491.6024
 -13145146.78148 -10230636.78545  21965733.4844                   21965732.0124
 11  8 23  2 27  0.0000000  0  8G29G12G26G05G25G02G15G30
 -20229509.18047 -15755345.61746  21958359.5164                   21958357.3954
  -6145320.93448  -4775711.99645  22112353.4694                   22112350.5634
 -19380728.09847 -15092321.25044  22854803.6414                   22854802.6454
 -15646587.02348 -12179301.15646  20757562.2424   20757558.8094
 -15521719.66848 -12082460.13346  21752377.5394                   21752377.5864
    616577.02347    484346.50045  22023417.6804                   22023412.7704
 -16646252.96547 -12961008.32044  23725204.6414                   23725203.5514
 -13060974.09848 -10165047.68045  21981750.7664                   21981749.4184
 11  8 23  2 27 30.0000000  0  9G21G29G12G26G05G25G02G15G30
 -14187756.38356 -11053685.19552  25211950.8444                   25211951.0084
 -20258575.31648 -15777994.47346  21952828.6414                   21952826.5984
  -6019397.22748  -4677589.65245  22136315.4384                   22136312.8014
 -19420251.06647 -15123118.31644  22847282.5164                   22847281.6254
 -15550128.75048 -12104138.85246  20775917.5554   20775914.3054
 -15448451.56648 -12025368.10246  21766319.8054                   21766319.6484
    705407.16447    553564.77045  22040321.5084                   22040316.9734
 -16695058.58647 -12999038.52344  23715917.7274                   23715916.1644
 -12976299.59848 -10099067.53945  21997864.0084                   21997862.3444
 11  8 23  2 28  0.0000000  0  9G21G29G12G26G05G25G02G15G30
 -14195967.40246 -11060083.29343  25210388.3134                   25210387.5274
 -20287475.76248 -15800514.23446  21947328.9534                   21947326.6914
  -5893174.57448  -4579234.35945  22160334.8674                   22160332.3134
 -19459537.09047 -15153730.76644  22839806.3594                   22839805.0984
 -15453254.25048 -12028652.22746  20794352.0634   20794348.8714
 -15374660.27348 -11967868.37946  21780361.9534                   21780362.1054
    794317.28148    622845.37145  22057240.5704                   22057235.7894
 -16743862.09847 -13037067.14144  23706630.8364                   23706628.9924
 -12891126.52048 -10032698.90645  22014072.2114                   22014070.1954
 11  8 23  2 28 30.0000000  0  9G21G29G12G26G05G25G02G15G30
 -14204173.83246 -11066477.82843  25208826.9454                   25208826.7894
 -20316206.42648 -15822901.69946  21941861.3364                   21941859.1604
  -5766653.39148  -4480646.44545  22184410.8914                   22184408.5864
 -19498580.06347 -15184153.80944  22832376.6254                   22832375.4654
 -15355963.35248 -11952841.13346  20812866.0004   20812862.8984
 -15300345.20748 -11909960.52746  21794503.3914                   21794503.3874
    883309.98047    692190.32845  22074175.1094                   22074170.4414
 -16792658.50847 -13075090.19144  23697344.2034                   23697343.5124
 -12805454.79747  -9965941.71145  22030374.9384                   22030372.7854
 11  8 23  2 29  0.0000000  0  9G21G29G12G26G05G25G02G15G30
 -14212378.18046 -11072870.74643  25207265.9694                   25207265.2544
 -20344767.03548 -15845156.64846  21936426.9454                   21936424.2074
  -5639839.17248  -4381830.20345  22208542.8364                   22208540.6054
 -19537378.39147 -15214386.22744  22824993.7424                   22824992.3984
 -15258260.24648 -11876708.84046  20831458.3524   20831455.1994
 -15225510.10248 -11851647.45346  21808743.8674                   21808744.1024
    972383.21947    761598.03945  22091125.1094                   22091120.7774
 -16841446.82446 -13113106.98844  23688059.8134                   23688059.0944
 -12719288.76248  -9898799.32845  22046771.6644                   22046769.9454
 11  8 23  2 29 30.0000000  0  9G21G29G12G26G05G25G02G15G30
 -14220571.18046 -11079254.71543  25205706.3914                   25205706.5434
 -20373145.19548 -15867269.43446  21931026.1804                   21931024.3674
  -5512724.87147  -4282780.12545  22232732.1564                   22232729.7114
 -19575918.33247 -15244417.29744  22817659.8594                   22817658.8134
 -15160137.61348 -11800249.64146  20850130.5314   20850127.2704
 -15150146.58248 -11792922.62546  21823085.4304                   21823085.3754
   1061547.16047    831076.45345  22108092.6644                   22108087.8714
 -16890214.18447 -13151107.45344  23678780.0234                   23678778.8014
 -12632620.69148  -9831265.75845  22063264.1254                   22063262.3324
 11  8 23  2 30  0.0000000  0  9G21G29G12G26G05G25G02G15G30
 -14228765.94546 -11085640.08243  25204146.4694                   25204147.6764
 -20401351.09048 -15889247.99246  21925658.9304                   21925656.1604
  -5385325.78947  -4183508.13345  22256975.4694                   22256973.3794
 -19614208.77047 -15274253.94145  22810373.6254                   22810371.9104
 -15061610.02748 -11723474.89146  20868879.5314   20868876.9304
 -15074268.98848 -11733797.21546  21837524.4534                   21837524.1334
   1150789.31247    900615.79345  22125074.8284                   22125070.1644
 -16938970.52346 -13189099.29744  23669502.0004                   23669500.6954
 -12545465.43047  -9763352.55945  22079849.1804                   22079847.5594
 11  8 23  2 30 30.0000000  0  9G21G29G12G26G05G25G02G15G30
 -14236952.90246 -11092019.43443  25202589.0004                   25202588.6844
 -20429373.36348 -15911083.46546  21920326.6884                   21920324.2774
  -5257635.23047  -4084009.02745  22281273.8524                   22281272.0234
 -19652236.27747 -15303885.71945  22803137.2584                   22803135.5514
 -14962670.18048 -11646378.89846  20887707.2584   20887703.8404
 -14997868.94148 -11674264.70746  21852062.7424                   21852062.5004
   1240120.18747    970224.28145  22142073.8054                   22142069.3364
 -16987702.48447 -13227072.18444  23660228.3444                   23660227.4344
 -12457815.22747  -9695053.68445  22096528.4144                   22096526.3594
 11  8 23  2 31  0.0000000  0  9G21G29G12G26G05G25G02G15G30
 -14245144.00046 -11098401.95743  25201030.7504                   25201029.3554
 -20457219.72348 -15932781.88346  21915027.5784                   21915025.0634
  -5129666.51647  -3984293.14545  22305625.5474                   22305623.3164
 -19690007.55147 -15333317.83644  22795949.6334                   22795947.4694
 -14863330.57848 -11568971.41846  20906610.8284   20906607.5554
 -14920958.83648 -11614334.74246  21866698.4224                   21866698.3954
   1329529.18747   1039893.63345  22159087.9304                   22159083.4844
 -17036418.09847 -13265032.30544  23650958.1644                   23650956.6564
 -12369683.09448  -9626379.29345  22113299.7274                   22113297.7894
 11  8 23  2 31 30.0000000  0  9G21G29G12G26G05G25G02G15G30
 -14253333.42646 -11104783.28542  25199471.1334                   25199470.4304
 -20484882.09047 -15954336.92646  21909763.2344                   21909761.3014
  -5001416.99247  -3884358.46945  22330030.8054                   22330028.5434
 -19727513.07047 -15362542.87144  22788812.6024                   22788810.7034
 -14763587.73048 -11491249.71946  20925591.2814   20925588.0704
 -14843534.58248 -11554004.16446  21881431.5784                   21881431.3524
   1419022.44947   1109628.63345  22176118.1804                   22176113.5594
 -17085108.24647 -13302972.61344  23641692.9694                   23641691.1994
 -12281065.51247  -9557326.62545  22130162.5314                   22130160.9844
 11  8 23  2 32  0.0000000  0  9G21G29G12G26G05G25G02G15G30
 -14261518.78146 -11111161.34043  25197914.7194                   25197913.4344
 -20512355.14548 -15975744.46946  21904535.5554                   21904533.2344
  -4872886.43447  -3784204.81645  22354489.3674                   22354487.0124
 -19764746.04347 -15391555.53144  22781727.2274                   22781725.1454
 -14663441.06348 -11413213.35246  20944648.3754   20944645.2854
 -14765594.85948 -11493271.90646  21896263.3754                   21896263.1454
   1508603.28548   1179431.88345  22193164.6804                   22193159.6564
 -17133767.21947 -13340888.58644  23632432.8834                   23632431.8834
 -12191961.73848  -9487895.10245  22147118.6094                   22147116.2974
 11  8 23  2 32 30.0000000  0  9G21G29G12G26G05G25G02G15G30
 -14269711.10246 -11117544.84843  25196354.8444                   25196355.2504
 -20539647.12948 -15997010.91046  21899342.0234                   21899339.6764
  -4744088.40247  -3683842.74245  22378998.8284                   22378996.4574
 -19801713.48047 -15420361.27345  22774692.3054                   22774690.4064
 -14562903.37548 -11334872.29746  20963780.6024   20963777.1724
 -14687152.08648 -11432147.65646  21911190.4224                   21911190.3284
   1598261.02348   1249295.07445  22210226.1024                   22210220.9614
 -17182402.51247 -13378786.12944  23623177.8984                   23623176.4574
 -12102384.74648  -9418094.82845  22164164.4144                   22164162.7974
 11  8 23  2 33  0.0000000  0  9G21G29G12G26G05G25G02G15G30
 -14277897.47746 -11123923.66443  25194796.3984                   25194797.1564
 -20566742.39848 -16018124.08246  21894185.6024                   21894183.2704
  -4615012.52747  -3583264.17245  22403561.0234                   22403558.6564
 -19838398.07847 -15448946.62144  22767711.4614                   22767709.6844
 -14461963.28548 -11256217.68046  20982988.2664   20982985.4614
 -14608194.28948 -11370622.10546  21926215.5394                   21926215.6844
   1688009.84448   1319229.25045  22227304.3674                   22227299.5784
 -17230997.62947 -13416652.34844  23613930.9144                   23613929.8954
 -12012323.09847  -9347916.91845  22181302.7034                   22181301.6374
 11  8 23  2 33 30.0000000  0  9G21G29G12G26G05G25G02G15G30
 -14286089.01646 -11130306.54343  25193237.5164                   25193237.6214
 -20593648.73048 -16039090.03546  21889065.6644                   21889062.9104
  -4485671.98847  -3482479.35545  22428173.6024                   22428171.5204
 -19874806.55947 -15477316.82044  22760783.3134                   22760781.1414
 -14360633.74648 -11177259.59846  21002270.9064   21002268.0434
 -14528733.81348 -11308704.85546  21941336.3984                   21941336.3874
   1777839.30548   1389226.26245  22244397.9844                   22244393.7974
 -17279559.90247 -13454493.01644  23604689.5314                   23604687.8444
 -11921789.74647  -9277371.44545  22198530.5634                   22198528.5784
 11  8 23  2 34  0.0000000  0  9G21G29G12G26G05G25G02G15G30
 -15869704.34846 -12364292.41043  24891886.3444                   24891885.2304
 -22195782.92647 -17287506.26646  21584189.7974                   21584187.4454
  -5931483.39147  -4609085.67645  22153045.4694                   22153043.2274
 -21486354.35547 -16733068.32045  22454115.8134                   22454114.1684
 -15834331.34848 -12325595.39846  20721835.5554   20721832.6764
 -16024187.70348 -12473993.60246  21656760.9534                   21656760.9384
    292335.00847    231690.44145  21961716.0704                   21961711.6374
 -18903505.66447 -14719905.19944  23295663.2734                   23295661.1684
 -13406201.98048 -10434056.30545  21916056.0084                   21916054.3204
 11  8 23  2 34 30.0000000  0  9G21G29G12G26G05G25G02G15G30
 -15877907.74246 -12370684.55943  24890324.8364                   24890323.6994
 -22222304.64848 -17308172.52746  21579142.7114                   21579140.0784
  -5801622.49247  -4507895.39845  22177757.0554                   22177754.7624
 -21522199.32447 -16760999.42644  22447294.5554                   22447292.8204
 -15732229.38748 -12246035.42646  20741264.9064   20741261.7854
 -15943727.15248 -12411297.07046  21672071.8524                   21672071.8984
    382326.93447    301814.03145  21978841.2344                   21978836.7114
 -18951993.05547 -14757687.48044  23286436.2274                   23286434.2664
 -13314732.30947 -10362781.23445  21933462.1024                   21933460.5664
 11  8 23  2 35  0.0000000  0  9G21G29G12G26G05G25G02G15G30
 -15886103.84446 -12377071.05143  24888765.0474                   24888764.3554
 -22248616.77048 -17328675.45346  21574135.6644                   21574133.2384
  -5671492.15647  -4406495.16045  22202519.8984                   22202517.4344
 -21557743.22747 -16788695.93045  22440531.0164                   22440529.1334
 -15629731.03148 -12166166.57446  20760769.6414   20760766.4184
 -15862755.56648 -12348202.34446  21687480.6884                   21687480.0904
    472414.43047    372012.10945  21995984.4144                   21995979.2424
 -19000424.63347 -14795426.29344  23277219.4304                   23277218.2704
 -13222784.19147 -10291133.35945  21950959.5164                   21950957.6884
 11  8 23  2 35 30.0000000  0  9G21G29G12G26G05G25G02G15G30
 -15894305.83246 -12383462.07843  24887204.1724                   24887203.6844
 -22274729.39848 -17349022.93846  21569166.7734                   21569164.1094
  -5541107.81647  -4304896.99245  22227331.0704                   22227329.2664
 -21592994.77047 -16816164.61745  22433822.4774                   22433820.6054
 -15526851.00448 -12086000.32846  20780347.1954   20780344.2274
 -15781287.50448 -12284720.74246  21702983.3204                   21702983.3794
    562585.21147    442275.09845  22013143.1414                   22013138.3324
 -19048809.94147 -14833129.05944  23268012.3364                   23268011.2424
 -13130372.82447 -10219124.49645  21968544.9304                   21968543.2424
 11  8 23  2 36  0.0000000  0  9G21G29G12G26G05G25G02G15G30
 -15902507.06646 -12389852.51243  24885644.0554                   24885642.7274
 -22300633.31648 -17369207.78946  21564237.2974                   21564234.9774
  -5410465.51647  -4203097.81645  22252191.3364                   22252189.6024
 -21627943.32847 -16843397.21545  22427172.2344                   22427170.4384
 -15423584.98048 -12005533.28546  20799998.2424   20799994.8714
 -15699317.65248 -12220848.14546  21718581.4614                   21718581.1994
    652846.58247    512608.64145  22030319.0784                   22030314.6094
 -19097139.22347 -14870788.15244  23258815.0314                   23258813.8484
 -13037493.37947 -10146750.91845  21986219.2894                   21986217.1844
 11  8 23  2 36 30.0000000  0  9G21G29G12G26G05G25G02G15G30
 -15910716.62946 -12396249.43443  24884080.2274                   24884080.7854
 -22326334.50848 -17389234.66846  21559346.4454                   21559343.8054
  -5279576.51647  -4101106.42645  22277099.2664                   22277096.8674
 -21662593.38747 -16870397.23045  22420578.4384                   22420576.8244
 -15319943.35548 -11924773.58646  20819720.5554   20819717.4384
 -15616856.21948 -12156592.49646  21734273.5554                   21734273.4884
    743190.63347    583006.60245  22047511.3444                   22047506.5784
 -19145417.51247 -14908407.53144  23249628.5164                   23249627.0274
 -12944156.64547 -10074020.99645  22003980.4774                   22003979.1844
 11  8 23  2 37  0.0000000  0  9G21G29G12G26G05G25G02G15G30
 -15918931.93846 -12402650.87543  24882517.9774                   24882517.8134
 -22351827.35548 -17409099.20346  21554495.3134                   21554492.7854
  -5148440.52347  -3998922.55145  22302053.3594                   22302051.2624
 -21696938.22347 -16897159.39845  22414042.5554                   22414040.8054
 -15215925.09448 -11843720.39146  20839514.5394   20839511.1134
 -15533902.09848 -12091952.93846  21750059.0004                   21750059.3634
    833620.43048    653471.39545  22064719.4144                   22064714.8444
 -19193638.61747 -14945982.35244  23240451.9454                   23240450.3874
 -12850362.15648 -10000934.40245  22021829.2734                   22021827.4384
 11  8 23  2 37 30.0000000  0  9G21G29G12G26G05G25G02G15G30
 -15927150.84846 -12409055.13343  24880954.0784                   24880952.9694
 -22377106.59048 -17428797.27346  21549685.0944                   21549682.3054
  -5017057.97347  -3896546.55545  22327054.3524                   22327052.3364
 -21730971.43447 -16923678.73845  22407566.5704                   22407564.9184
 -15111530.03948 -11762373.58646  20859379.9144   20859376.8834
 -15450454.53948 -12026928.89546  21765938.7424                   21765938.6374
    924139.24248    724005.54745  22081944.5004                   22081939.9494
 -19241796.80547 -14983508.14544  23231288.3284                   23231286.3404
 -12756109.66048  -9927490.91045  22039764.7734                   22039762.8594
 11  8 23  2 38  0.0000000  0  9G21G29G12G26G05G25G02G15G30
 -15935391.73846 -12415476.56342  24879385.1484                   24879383.5984
 -22402188.41448 -17448341.52746  21544911.9064                   21544909.6414
  -4885449.94547  -3793994.86745  22352098.6804                   22352096.8674
 -21764707.51647 -16949966.55145  22401146.8134                   22401144.6914
 -15006778.82848 -11680749.27046  20879313.5944   20879310.5554
 -15366533.75848 -11961536.08246  21781908.3834                   21781908.4574
   1014729.07048    794595.04345  22099183.4304                   22099178.6414
 -19289907.41447 -15020996.85944  23222132.4384                   23222130.8364
 -12661419.83248  -9853706.64145  22057784.3594                   22057781.7854
 11  8 23  2 38 30.0000000  0  9G21G29G12G26G05G25G02G15G30
 -15943627.83246 -12421894.16442  24877817.9924                   24877817.0514
 -22427042.53948 -17467708.34446  21540182.5634                   21540179.7504
  -4753592.10547  -3691248.52345  22377190.8204                   22377188.3054
 -21798115.02047 -16975998.33245  22394789.2584                   22394787.7704
 -14901645.95348 -11598827.54346  20899319.8524   20899316.7194
 -15282113.94548 -11895754.42646  21797972.7424                   21797972.6024
   1105418.09848    865261.83245  22116440.9224                   22116436.2544
 -19337939.44547 -15058424.35544  23212992.1884                   23212991.4734
 -12566267.43848  -9779561.94145  22075890.5864                   22075888.7384
 11  8 23  2 39  0.0000000  0  9G21G29G12G26G05G25G02G15G30
 -15951881.47746 -12428325.44943  24876247.6414                   24876246.6844
 -22451688.65248 -17486913.07846  21535492.4774                   21535489.6024
  -4621509.35547  -3588326.91045  22402325.1564                   22402323.0314
 -21831212.17247 -17001788.28945  22388491.4534                   22388489.9064
 -14796155.88348 -11516627.50046  20919393.8834   20919390.8874
 -15197219.07048 -11829602.59046  21814127.9144                   21814127.6374
   1196184.50048    935988.91845  22133713.3364                   22133708.2774
 -19385911.83247 -15095805.36744  23203863.8524                   23203861.6094
 -12470676.97348  -9705075.87945  22094080.9304                   22094078.9574
 11  8 23  2 39 30.0000000  0  9G21G29G12G26G05G25G02G15G30
 -15960132.99646 -12434755.07843  24874676.8594                   24874677.1334
 -22476104.82048 -17505938.62546  21530845.9694                   21530843.3714
  -4489184.69147  -3485216.80545  22427505.4144                   22427503.3754
 -21863975.40247 -17027318.02745  22382256.9224                   22382254.7774
 -14690291.29348 -11434135.61746  20939539.2034   20939535.8244
 -15111831.25848 -11763066.64546  21830376.6884                   21830376.6994
   1287048.77348   1006792.26245  22151003.9384                   22150999.4534
 -19433801.52347 -15133121.96944  23194750.9384                   23194748.9924
 -12374631.10548  -9630234.96545  22112357.8914                   22112355.7034
 11  8 23  2 40  0.0000000  0  9G21G29G12G26G05G25G02G15G30
 -15968395.28146 -12441193.15243  24873104.4774                   24873104.2464
 -22500299.94548 -17524791.93846  21526241.8754                   21526239.4924
  -4356632.60247  -3381929.48045  22452730.0084                   22452727.4384
 -21896413.02747 -17052594.04745  22376083.9224                   22376082.4614
 -14584065.91848 -11351362.59846  20959753.1414   20959750.3984
 -15025964.53948 -11696157.53146  21846716.5164                   21846716.6604
   1377999.07048   1077662.64545  22168311.3834                   22168306.5634
 -19481617.32047 -15170380.97745  23185651.3594                   23185649.4184
 -12278144.33247  -9555050.48445  22130718.5944                   22130717.2344
 11  8 23  2 40 30.0000000  0  9G21G29G12G26G05G25G02G15G30
 -15976676.02346 -12447645.56642  24871528.9694                   24871527.5354
 -22524278.84848 -17543476.77346  21521679.0704                   21521676.0944
  -4223863.93447  -3278473.39545  22477994.5394                   22477992.1994
 -21928528.55947 -17077619.09845  22369972.5314                   22369970.9844
 -14477489.60248 -11268316.12546  20980033.9064   20980030.8594
 -14939628.10948 -11628882.41046  21863145.3054                   21863145.8914
   1469028.69547   1148594.82445  22185633.8364                   22185628.9144
 -19529363.28547 -15207585.57444  23176565.6174                   23176563.7974
 -12181226.44947  -9479530.08645  22149161.3444                   22149159.9184
 11  8 23  2 41  0.0000000  0  9G21G29G12G26G05G25G02G15G30
 -15984950.65646 -12454093.23442  24869954.3134                   24869952.5084
 -22548014.39148 -17561971.97346  21517162.0164                   21517159.2854
  -4090856.46147  -3174831.22745  22503305.3444                   22503302.7664
 -21960293.23847 -17102370.76245  22363927.5784                   22363926.0434
 -14370539.92248 -11184978.71546  21000385.7894   21000383.0554
 -14852799.15648 -11561223.49246  21879668.5474                   21879668.4804
   1560162.67248   1219608.32045  22202976.2034                   22202970.7424
 -19577011.53547 -15244714.04344  23167498.0084                   23167496.7424
 -12083855.05947  -9403656.30145  22167690.2274                   22167688.8834
 11  8 23  2 41 30.0000000  0  9G21G29G12G26G05G25G02G15G30
 -15993237.16846 -12460550.14843  24868376.8364                   24868376.7544
 -22571522.00848 -17580289.56646  21512688.5784                   21512686.2974
  -3957630.91047  -3071019.12545  22528656.7584                   22528654.5634
 -21991721.07847 -17126859.94145  22357947.0704                   22357945.6294
 -14263236.57448 -11101365.72746  21020805.0004   21020801.8134
 -14765497.35948 -11493196.11746  21896281.7664                   21896281.3204
   1651384.28948   1290690.11345  22220334.9384                   22220330.2854
 -19624576.84447 -15281777.86744  23158446.7194                   23158445.7504
 -11986050.39147  -9327444.87945  22186302.6414                   22186300.5864
 11  8 23  2 42  0.0000000  0  9G21G29G12G26G05G25G02G15G30
 -16001526.34846 -12467009.10543  24866799.8984                   24866799.9884
 -22594789.09848 -17598419.74646  21508261.2504                   21508258.4774
  -3824180.66047  -2967031.94545  22554051.7584                   22554049.2344
 -22022798.77347 -17151076.30145  22352033.0944                   22352031.6254
 -14155572.43048 -11017471.59446  21041292.8284   21041289.5704
 -14677715.19548 -11424794.44546  21912986.0234                   21912985.8834
   1742703.23448   1361847.74245  22237712.5314                   22237707.7814
 -19672046.14847 -15318766.88345  23149413.9064                   23149411.8244
 -11887805.42647  -9250890.37945  22204997.7734                   22204996.5314
 11  8 23  2 42 30.0000000  0  9G21G29G12G26G05G25G02G15G30
 -16009830.85546 -12473480.03943  24865219.0004                   24865218.5124
 -22617825.70748 -17616370.31346  21503877.6414                   21503874.9104
  -3690520.65647  -2862881.31345  22579486.2274                   22579484.4224
 -22053534.66047 -17175026.31345  22346184.1804                   22346182.6604
 -14047561.75848 -10933307.42646  21061846.4534   21061843.3554
 -14589466.74648 -11356029.42646  21929779.2034                   21929779.4654
   1834108.37148   1433072.53545  22255105.6334                   22255101.3954
 -19719428.24247 -15355687.92644  23140397.5314                   23140395.1914
 -11789134.79347  -9174004.19945  22223774.3754                   22223772.3404
 11  8 23  2 43  0.0000000  0  9G21G29G12G26G05G25G02G15G30
 -16018148.94546 -12479961.52743  24863636.3364                   24863634.7974
 -22640627.16448 -17634137.66046  21499538.2344                   21499535.8834
  -3556651.43447  -2758567.66045  22604961.0554                   22604959.0554
 -22083922.74647 -17198705.29745  22340401.6644                   22340399.9694
 -13939204.77748 -10848873.41446  21082466.1564   21082462.9574
 -14500751.93048 -11286901.00846  21946661.3524                   21946661.2664
   1925601.87948   1504366.18745  22272516.5864                   22272511.9414
 -19766718.00447 -15392537.04744  23131398.4694                   23131396.5824
 -11690038.84447  -9096786.58645  22242631.5394                   22242629.7544
 11  8 23  2 43 30.0000000  0  9G21G29G12G26G05G25G02G15G30
 -16026488.29346 -12486459.63343  24862049.3444                   24862047.4574
 -22663198.04748 -17651725.33246  21495243.3674                   21495240.5314
  -3422583.34047  -2654099.03545  22630473.3594                   22630470.9264
 -22113966.48447 -17222115.98045  22334684.2584                   22334682.7814
 -13830511.09048 -10764177.02046  21103149.7734   21103146.9384
 -14411580.18048 -11217416.53946  21963630.0864                   21963630.0744
   2017176.80147   1575723.28545  22289942.6254                   22289937.8444
 -19813919.30147 -15429317.21144  23122416.0634                   23122414.0944
 -11590527.54747  -9019245.34045  22261567.9534                   22261566.2624
 11  8 23  2 44  0.0000000  0  9G21G29G12G26G05G25G02G15G30
 -16034849.82846 -12492974.98043  24860457.7894                   24860456.9104
 -22685536.48848 -17669131.87946  21490992.5554                   21490989.5004
  -3288319.98047  -2549478.25445  22656022.8674                   22656020.5944
 -22143662.92647 -17245256.02345  22329033.4384                   22329032.0084
 -13721483.52348 -10679220.46946  21123897.2424   21123893.9344
 -14321954.14148 -11147578.05546  21980684.9844                   21980684.8364
   2108832.98047   1647143.69945  22307384.1254                   22307379.8204
 -19861029.70747 -15466026.56344  23113451.6884                   23113449.7544
 -11490603.91047  -8941382.78545  22280582.8444                   22280581.1134
 11  8 23  2 44 30.0000000  0  9G21G29G12G26G05G25G02G15G30
 -16043207.70346 -12499487.50443  24858867.5634                   24858866.6054
 -22707613.85548 -17686334.98446  21486791.3364                   21486788.2154
  -3153838.12947  -2444687.21545  22681613.4924                   22681611.5354
 -22172981.73447 -17268101.81345  22323454.4384                   22323452.8204
 -13612098.07448 -10593985.04346  21144712.6174   21144709.4964
 -14231849.50848 -11077366.66846  21997831.6094                   21997831.7194
   2200597.49247   1718648.52345  22324846.5944                   22324841.8244
 -19908019.48047 -15502641.90245  23104509.2504                   23104507.2774
 -11390244.40647  -8863180.58645  22299680.2584                   22299678.9184
 11  8 23  2 45  0.0000000  0  9G21G29G12G26G05G25G02G15G30
 -16051584.78946 -12506014.97743  24857272.9384                   24857272.2704
 -22729449.68448 -17703349.88346  21482636.5394                   21482633.5824
  -3019162.69947  -2339745.35245  22707241.8284                   22707239.9414
 -22201941.95747 -17290668.17645  22317942.7504                   22317941.8324
 -13502379.53148 -10508490.05546  21165591.2114   21165588.3054
 -14141290.95748 -11006801.57046  22015064.5554                   22015064.8594
   2292448.63747   1790220.85945  22342324.9774                   22342320.9384
 -19954907.99247 -15539178.35245  23095587.0234                   23095584.9494
 -11289473.84047  -8784658.09845  22318856.6724                   22318854.7854
 11  8 23  2 45 30.0000000  0  9G21G29G12G26G05G25G02G15G30
 -16059976.02046 -12512553.48843  24855676.9614                   24855674.8714
 -22751036.19948 -17720170.51246  21478528.2734                   21478525.5124
  -2884291.61747  -2234651.02745  22732906.5234                   22732904.5124
 -22230534.12948 -17312947.76645  22312502.1954                   22312500.4734
 -13392324.86348 -10422733.16046  21186533.5554   21186530.8404
 -14050275.20748 -10935880.19546  22032383.9454                   22032383.9344
   2384391.95747   1861865.00445  22359821.3674                   22359817.1604
 -20001686.68047 -15575629.21544  23086685.1094                   23086682.6524
 -11188289.60547  -8705813.25845  22338111.2584                   22338109.4144
 11  8 23  2 46  0.0000000  0  9G21G29G12G26G05G25G02G15G30
 -16068377.83246 -12519100.24243  24854077.8524                   24854077.0314
 -22772366.90648 -17736791.80546  21474468.8284                   21474466.3204
  -2749223.25047  -2129402.98045  22758609.3204                   22758607.6914
 -22258750.57448 -17334934.55945  22307133.1024                   22307130.6294
 -13281932.08248 -10336712.81346  21207541.3364   21207537.8984
 -13958800.30948 -10864601.06346  22049791.0164                   22049791.1684
   2476432.02748   1933584.56245  22377335.7114                   22377331.6094
 -20048347.82047 -15611988.46545  23077805.9924                   23077803.7304
 -11086690.20747  -8626644.91445  22357445.2424                   22357442.9104
 11  8 23  2 46 30.0000000  0  9G21G29G12G26G05G25G02G15G30
 -16076809.43846 -12525670.26243  24852473.7034                   24852471.4024
 -22793458.33248 -17753226.64146  21470455.5164                   21470452.6454
  -2613980.07447  -2024018.71945  22784345.3444                   22784343.4384
 -22286606.63347 -17356640.54745  22301832.3134                   22301829.7504
 -13171222.69548 -10250445.75046  21228608.1334   21228604.8324
 -13866887.57048 -10792980.75846  22067281.3674                   22067281.4344
   2568550.36348   2005365.10245  22394865.5004                   22394860.6994
 -20094907.69547 -15648268.83645  23068945.2894                   23068943.7234
 -10984697.35247  -8547169.98445  22376853.4774                   22376852.0864
 11  8 23  2 47  0.0000000  0  9G21G29G12G26G05G25G02G15G30
 -16085246.78946 -12532244.68443  24850867.2034                   24850865.6294
 -22814283.29348 -17769453.84446  21466492.5234                   21466489.5984
  -2478540.46147  -1918481.37545  22810118.5474                   22810116.7734
 -22314074.12948 -17378043.75045  22296605.1174                   22296603.1684
 -13060174.65248 -10163914.80546  21249739.8594   21249736.8364
 -13774514.69148 -10721001.88746  22084859.2114                   22084859.3324
   2660771.85947   2077226.02045  22412414.2974                   22412410.0594
 -20141338.35247 -15684448.48845  23060110.0864                   23060108.3244
 -10882289.28547  -8467371.51245  22396340.5864                   22396339.9304
 11  8 23  2 47 30.0000000  0  9G21G29G12G26G05G25G02G15G30
 -16093708.07846 -12538837.80143  24849256.6884                   24849255.8984
 -22834857.03948 -17785485.29746  21462577.5704                   21462574.6604
  -2342924.76647  -1812806.84845  22835925.6724                   22835923.5394
 -22341167.14547 -17399155.15645  22291449.7814                   22291447.8244
 -12948807.66448 -10077135.33246  21270932.8444   21270929.3834
 -13681701.56648 -10648679.96546  22102521.4304                   22102521.2464
   2753079.48847   2149154.03945  22429979.8284                   22429975.3404
 -20187654.34447 -15720538.81345  23051296.2194                   23051294.8484
 -10779486.32847  -8387265.34045  22415904.2114                   22415902.4224
 11  8 23  2 48  0.0000000  0 10G21G29G12G26G05G18G25G02G15G30
 -16102188.64546 -12545445.93443  24847643.6804                   24847642.5634
 -22855172.18048 -17801315.22746  21458711.6094                   21458708.5904
  -2207131.21947  -1706993.74245  22861766.7734                   22861764.6644
 -22367876.96948 -17419967.96545  22286366.4924                   22286365.0204
 -12837119.26248  -9990105.39146  21292186.0314   21292182.5664
 -15810788.07456 -12306512.92653  24781901.0704                   24781899.8284
 -13588445.53948 -10576012.93446  22120267.3054                   22120267.3094
   2845478.41847   2221153.20345  22447563.2664                   22447558.1684
 -20233847.66447 -15756533.53945  23042506.2274                   23042503.8834
 -10676286.25047  -8306849.70745  22435542.2734                   22435540.7304
 11  8 23  2 48 30.0000000  0 10G21G29G12G26G05G18G25G02G15G30
 -16110697.26246 -12552075.89143  24846024.4224                   24846022.8524
 -22875234.39848 -17816948.07446  21454894.0234                   21454891.2384
  -2071170.94547  -1601050.68045  22887638.5474                   22887636.9024
 -22394208.15247 -17440485.75045  22281355.6884                   22281354.1334
 -12725120.02048  -9902833.24246  21313498.6334   21313495.6024
 -15852577.33645 -12339075.68842  24773945.5784                   24773948.2074
 -13494757.00448 -10503008.88746  22138095.9614                   22138095.8014
   2937961.28547   2293217.78545  22465161.7814                   22465156.9144
 -20279922.88747 -15792436.25845  23033738.0704                   23033735.9734
 -10572699.90647  -8226133.09445  22455254.0314                   22455252.1844
 11  8 23  2 49  0.0000000  0 10G21G29G12G26G05G18G25G02G15G30
 -16119217.27746 -12558714.77043  24844401.7584                   24844400.6564
 -22895024.10948 -17832368.58246  21451127.9844                   21451125.3134
  -1935030.02047  -1494966.87145  22913545.3204                   22913543.4884
 -22420140.19947 -17460692.50845  22276421.3364                   22276419.5704
 -12612795.41048  -9815307.56346  21334873.2194   21334870.2854
 -15894193.16846 -12371503.50843  24766028.7274                   24766028.1764
 -13400621.41048 -10429656.46546  22156009.1414                   22156008.8984
   3030545.45747   2365361.30145  22482779.8594                   22482775.3444
 -20325860.06647 -15828231.40645  23024996.3754                   23024994.3834
 -10468713.21947  -8145104.53145  22475041.7114                   22475040.4774
 11  8 23  2 49 30.0000000  0 10G21G29G12G26G05G18G25G02G15G30
 -16127760.19546 -12565371.54343  24842777.2114                   24842775.0904
 -22914550.11748 -17847583.60246  21447412.2034                   21447409.8164
  -1798722.27347  -1388753.07045  22939483.6724                   22939482.0314
 -22445680.49247 -17480593.99245  22271561.5084                   22271559.3134
 -12500158.80948  -9727538.76646  21356307.2274   21356304.3244
 -15935645.46946 -12403803.80543  24758139.4924                   24758139.8094
 -13306052.12947 -10355966.10546  22174004.7424                   22174005.1454
   3123220.18747   2437575.38745  22500415.4454                   22500410.6954
 -20371667.14547 -15863925.17645  23016279.8914                   23016277.7154
 -10364339.94547  -8063774.71945  22494903.7344                   22494902.3164
 11  8 23  2 50  0.0000000  0 10G21G29G12G26G05G18G25G02G15G30
 -16136322.07446 -12572043.02043  24841147.3284                   24841146.0784
 -22933805.30948 -17862587.59846  21443747.9224                   21443745.6174
  -1662246.57847  -1282408.41045  22965454.9144                   22965452.3984
 -22470820.99247 -17500183.95345  22266777.0784                   22266774.8634
 -12387208.36748  -9639525.43446  21377801.3364   21377797.9574
 -15976928.56346 -12435972.19542  24750282.5474                   24750284.1564
 -13211047.15648 -10281936.25446  22192083.5314                   22192084.0234
   3215990.33647   2509863.81245  22518068.8674                   22518064.6804
 -20417336.69547 -15899511.79345  23007589.0784                   23007586.5434
 -10259578.53147  -7982142.45345  22514839.3594                   22514837.6484
 11  8 23  2 50 30.0000000  0 10G21G29G12G26G05G18G25G02G15G30
 -17720313.00046 -13806321.54743  24539724.0634                   24539723.1254
 -24528197.47348 -19104971.05146  21140345.3594                   21140342.3874
  -3101010.71147  -2403523.35245  22691666.8674                   22691664.4184
 -24070968.49647 -18747052.08645  21962278.8204                   21962276.9844
 -13849351.96148 -10778858.08646  21099564.2974   21099561.4494
 -17593451.18046 -13695600.06643  24442669.9454                   24442668.8364
 -14691015.04748 -11435157.98046  21910455.2194                   21910455.7544
   1733450.00447   1354637.57045  22235951.2274                   22235946.3914
 -22038276.20347 -17162581.48845  22699134.6414                   22699131.9574
 -11729837.67247  -9127798.94145  22235058.4224                   22235056.5204
 11  8 23  2 51  0.0000000  0 10G21G29G12G26G05G18G25G02G15G30
 -17728906.26646 -13813017.49643  24538088.8134                   24538087.2934
 -24546896.09848 -19119541.36346  21136787.0554                   21136783.9844
  -2964200.00047  -2296917.63345  22717701.0084                   22717698.8794
 -24095290.90247 -18766004.55545  21957650.7114                   21957648.9844
 -13735772.59848 -10690354.67646  21121177.7424   21121174.7074
 -17634382.59046 -13727494.39843  24434879.8204                   24434879.9494
 -14595137.90648 -11360448.50846  21928700.2114                   21928699.8594
   1826419.87547   1427081.61745  22253643.0084                   22253638.2734
 -22083652.88747 -17197939.90245  22690498.8914                   22690497.1374
 -11624300.55547  -9045562.23445  22255141.3444                   22255139.6764
 11  8 23  2 51 30.0000000  0 10G21G29G12G26G05G18G25G02G15G30
 -17737528.33646 -13819735.90243  24536447.2344                   24536446.2544
 -24565325.27348 -19133901.71146  21133279.8284                   21133277.1214
  -2827238.57047  -2190194.48045  22743763.6334                   22743761.9384
 -24119211.55548 -18784643.96945  21953098.4774                   21953096.8364
 -13621894.81348 -10601618.72746  21142848.0784   21142845.1994
 -17675148.91846 -13759260.10943  24427122.1564                   24427122.1564
 -14498840.75848 -11285411.76246  21947024.7034                   21947025.1884
   1919478.46947   1499594.80145  22271351.5314                   22271346.5824
 -22128890.99647 -17233190.31645  22681890.7664                   22681888.6294
 -11518392.24647  -8963036.28545  22275294.8284                   22275293.6334
 11  8 23  2 52  0.0000000  0 10G21G29G12G26G05G18G25G02G15G30
 -17746171.53946 -13826470.73043  24534802.0004                   24534801.3364
 -24583474.56348 -19148043.96146  21129826.1564                   21129823.7384
  -2690121.71147  -2083350.19945  22769856.2344                   22769854.7384
 -24142718.76247 -18802961.22345  21948625.2274                   21948623.4614
 -13507713.64548 -10512646.38746  21164575.9224   21164573.0944
 -17715741.13346 -13790890.24243  24419398.1804                   24419397.1884
 -14402118.25048 -11210043.57846  21965430.8594                   21965430.6884
   2012633.63747   1572183.23445  22289077.7664                   22289073.3364
 -22173979.07047 -17268323.81645  22673310.7274                   22673308.4844
 -11412107.88347  -8880217.31645  22295519.9774                   22295518.7544
 11  8 23  2 52 30.0000000  0 10G21G29G12G26G05G18G25G02G15G30
 -17754845.37546 -13833229.46143  24533153.0704                   24533151.0864
 -24601350.19548 -19161972.98846  21126424.3984                   21126421.7234
  -2552861.13747  -1976393.94145  22795976.2504                   22795974.2854
 -24165817.60547 -18820960.25445  21944229.7504                   21944227.8404
 -13393239.76248 -10423445.94146  21186359.5864   21186356.4264
 -17756166.58646 -13822390.34843  24411703.3834                   24411705.1564
 -14304981.36748 -11134352.49246  21983915.1724                   21983915.3364
   2105877.50847   1644840.77745  22306821.8204                   22306816.5824
 -22218922.78147 -17303344.84845  22664758.2344                   22664756.3484
 -11305458.84047  -8797114.16845  22315814.9454                   22315812.8244
 11  8 23  2 53  0.0000000  0 10G21G29G12G26G05G18G25G02G15G30
 -17763525.76646 -13839993.27043  24531500.7424                   24531499.2424
 -24618925.34048 -19175667.85946  21123080.2734                   21123077.2194
  -2415435.63747  -1869309.16445  22822127.6644                   22822125.9734
 -24188480.51247 -18838619.60545  21939917.0634                   21939915.1484
 -13278451.35248 -10334000.43046  21208203.1954   21208200.2464
 -17796399.27346 -13853740.30943  24404049.1484                   24404048.4654
 -14207408.35248 -11058321.56646  22002482.5784                   22002482.5944
   2199234.58647   1717586.55145  22324587.3134                   22324582.1764
 -22263694.74247 -17338232.02345  22656238.0704                   22656236.3204
 -11198423.68047  -8713710.15645  22336183.4454                   22336181.3874
 11  8 23  2 53 30.0000000  0 10G21G29G12G26G05G18G25G02G15G30
 -17772229.22346 -13846775.07043  24529844.0704                   24529842.4774
 -24636213.84848 -19189139.38346  21119790.1024                   21119787.3674
  -2277864.34847  -1762110.79745  22848306.5234                   22848304.6174
 -24210720.17247 -18855949.16045  21935684.7974                   21935683.0314
 -13163367.13348 -10244324.39846  21230103.2664   21230099.9144
 -17836454.42646 -13884951.85942  24396425.6414                   24396426.7584
 -14109417.97748 -10981965.44146  22021129.6644                   22021129.3324
   2292688.96548   1790408.13345  22342370.8284                   22342365.9774
 -22308308.02747 -17372995.55545  22647748.5944                   22647746.4924
 -11091021.68447  -8630020.28945  22356620.4384                   22356619.4384
 11  8 23  2 54  0.0000000  0 10G21G29G12G26G05G18G25G02G15G30
 -17780954.34846 -13853573.78543  24528183.9224                   24528181.3794
 -24653211.49248 -19202384.26246  21116555.4224                   21116552.4734
  -2140148.20347  -1654799.52745  22874512.7424                   22874510.9924
 -24232531.08248 -18872944.61745  21931534.6174                   21931532.5164
 -13047987.18848 -10154417.94546  21252059.0084   21252055.9924
 -17876328.45746 -13916022.34042  24388838.1644                   24388838.2384
 -14011010.66448 -10905284.42246  22039856.1414                   22039855.9884
   2386243.23048   1863307.53945  22360173.8524                   22360169.1054
 -22352757.36747 -17407631.35245  22639290.0394                   22639288.2274
 -10983253.63347  -8546045.19545  22377128.8754                   22377127.1454
 11  8 23  2 54 30.0000000  0 10G21G29G12G26G05G18G25G02G15G30
 -17789701.08646 -13860389.30943  24526519.5084                   24526517.4064
 -24669915.05148 -19215399.98446  21113377.2114                   21113374.4384
  -2002289.61747  -1547377.30145  22900746.5314                   22900744.9224
 -24253909.19947 -18889602.84045  21927466.5004                   21927464.0514
 -12932313.42648 -10064282.52346  21274070.8134   21274068.2624
 -17916019.51246 -13946950.22743  24381285.8204                   24381285.3674
 -13912188.38348 -10828280.04346  22058660.9924                   22058661.5164
   2479898.27047   1936285.47745  22377995.8204                   22377991.0474
 -22397039.07447 -17442136.50845  22630863.9924                   22630861.2194
 -10875121.89147  -8461786.67645  22397705.1414                   22397703.9264
 11  8 23  2 55  0.0000000  0 10G21G29G12G26G05G18G25G02G15G30
 -17798477.63346 -13867228.04743  24524849.4224                   24524847.8204
 -24686329.71148 -19228190.59446  21110253.4064                   21110250.4924
  -1864299.67247  -1439852.67645  22927005.1644                   22927003.5634
 -24274858.86347 -18905927.18445  21923479.6954                   21923477.6954
 -12816356.23048  -9973926.26646  21296136.7344   21296133.8524
 -17955534.53546 -13977740.88343  24373765.7974                   24373765.1374
 -13812961.49248 -10750960.39846  22077543.4694                   22077543.3984
   2573647.21947   2009336.59445  22395835.2814                   22395830.9304
 -22441157.64847 -17476514.54345  22622468.0314                   22622465.9454
 -10766637.18047  -8377253.15245  22418349.2194                   22418347.9184
 11  8 23  2 55 30.0000000  0 10G21G29G12G26G05G18G25G02G15G30
 -17807268.76246 -13874078.19143  24523174.9774                   24523174.2114
 -24702437.50048 -19240742.08246  21107188.0944                   21107185.0554
  -1726165.47347  -1332215.68445  22953291.7344                   22953289.3094
 -24295360.94548 -18921902.77345  21919578.2814                   21919576.4884
 -12700102.63748  -9883339.03546  21318259.2504   21318256.2344
 -17994856.26246 -14008380.98443  24366282.4144                   24366282.1884
 -13713316.90248 -10673315.27746  22096505.2894                   22096505.3324
   2667505.98047   2082473.28545  22413696.4694                   22413691.4694
 -22485094.34847 -17510750.87145  22614106.9224                   22614104.7424
 -10657786.87947  -8292434.73845  22439063.1484                   22439060.9614
 11  8 23  2 56  0.0000000  0 10G21G29G12G26G05G18G25G02G15G30
 -17816085.82046 -13880948.48443  24521498.5474                   24521497.0824
 -24718246.72748 -19253060.93846  21104179.7504                   21104176.8204
  -1587901.27347  -1224477.35245  22979602.1644                   22979600.2584
 -24315423.14548 -18937535.59845  21915760.6564                   21915758.2934
 -12583565.96948  -9792531.22746  21340435.3524   21340432.4344
 -18033994.65646 -14038878.19143  24358835.2274                   24358833.7194
 -13613268.32848 -10595355.35246  22115543.9384                   22115543.4734
   2761463.62947   2155687.03145  22431575.8914                   22431570.5554
 -22528857.23847 -17544851.76245  22605779.3914                   22605777.3134
 -10548585.08647  -8207342.44145  22459843.2974                   22459841.7584
 11  8 23  2 56 30.0000000  0 10G21G29G12G26G05G18G25G02G15G30
 -17824927.60546 -13887838.10943  24519815.9694                   24519813.3984
 -24733753.90248 -19265144.42646  21101228.7734                   21101226.1134
  -1449508.07447  -1116638.53945  23005937.4924                   23005935.7854
 -24335039.99647 -18952821.39845  21912027.4694                   21912025.2234
 -12466746.60248  -9701503.14146  21362665.3674   21362662.0634
 -18072946.53146 -14069230.04743  24351421.5634                   24351422.6054
 -13512816.53148 -10517081.23046  22134658.8834                   22134658.7934
   2855522.81648   2228979.90245  22449474.9224                   22449469.6294
 -22572441.31647 -17578813.34445  22597485.6954                   22597483.5164
 -10439032.87547  -8121977.10245  22480690.5784                   22480688.5704
 11  8 23  2 57  0.0000000  0 10G21G29G12G26G05G18G25G02G15G30
 -17833794.04346 -13894746.86743  24518128.0864                   24518126.2114
 -24748955.79347 -19276990.03146  21098335.8834                   21098333.0474
  -1310988.79347  -1008701.46945  23032296.9924                   23032295.1684
 -24354208.00447 -18967757.46945  21908380.2504                   21908377.9454
 -12349646.55948  -9610256.34046  21384948.9224   21384945.5594
 -18111710.38746 -14099435.52043  24344045.7274                   24344044.8874
 -13411963.57048 -10438494.53546  22153850.6174                   22153850.6644
   2949684.25047   2302352.44145  22467392.7274                   22467388.3054
 -22615842.89547 -17612632.70745  22589226.2424                   22589224.1644
 -10329132.72747  -8036340.63345  22501603.6884                   22501602.0394
 11  8 23  2 57 30.0000000  0 10G21G29G12G26G05G18G25G02G15G30
 -17842699.77746 -13901686.25843  24516433.2894                   24516431.3284
 -24763863.97348 -19288606.77746  21095499.1644                   21095495.7234
  -1172360.28947   -900679.28545  23058676.7734                   23058674.8134
 -24372937.77748 -18982352.03145  21904815.4064                   21904813.5554
 -12232282.51648  -9518803.82446  21407282.5704   21407279.5474
 -18150299.19546 -14129504.50843  24336702.7424                   24336701.7384
 -13310726.27048 -10359608.34046  22173115.6414                   22173116.0634
   3043934.10247   2375793.88345  22485328.3054                   22485323.5704
 -22659072.98047 -17646318.45745  22581000.0004                   22580998.1524
 -10218901.75847  -7950446.38745  22522580.1884                   22522578.3714
 11  8 23  2 58  0.0000000  0 10G21G29G12G26G05G18G25G02G15G30
 -17851637.25046 -13908650.39843  24514732.7974                   24514731.1334
 -24778468.55948 -19299986.96546  21092719.7424                   21092716.9024
  -1033617.87547   -792568.35544  23085078.8054                   23085077.0274
 -24391218.41447 -18996596.64145  21901336.6724                   21901334.9224
 -12114649.35248  -9427141.59846  21429667.2664   21429664.0984
 -18188704.18046 -14159430.25042  24329393.1414                   24329392.8984
 -13209099.57848 -10280418.73446  22192454.5394                   22192454.7074
   3138280.96547   2449310.91845  22503282.2504                   22503277.5634
 -22702120.53947 -17679861.95745  22572807.9384                   22572805.8404
 -10108335.37547  -7864290.77745  22543619.8674                   22543618.5864
 11  8 23  2 58 30.0000000  0 10G21G29G12G26G05G18G25G02G15G30
 -17860593.48046 -13915629.18043  24513028.3284                   24513025.9494
 -24792753.62948 -19311118.17246  21090001.5164                   21089998.6764
   -894751.32847   -684360.68445  23111504.4844                   23111502.4694
 -24409032.90247 -19010477.98845  21897946.8674                   21897944.6994
 -11996736.40248  -9335261.36346  21452105.4304   21452101.9884
 -18226910.35246 -14189201.13743  24322123.5944                   24322122.7424
 -13107072.70748 -10200917.29346  22211869.4064                   22211869.7344
   3232738.54747   2522914.21945  22521256.3444                   22521251.3484
 -22744969.08247 -17713250.38745  22564654.0314                   22564652.1844
  -9997423.06347  -7777865.62545  22564725.9454                   22564724.4024
 11  8 23  2 59  0.0000000  0 10G21G29G12G26G05G18G25G02G15G30
 -17869589.96546 -13922639.32043  24511316.5784                   24511314.4344
 -24806737.32848 -19322014.54746  21087340.1644                   21087337.6094
   -755784.26247   -576074.69545  23137948.8674                   23137946.7854
 -24426398.79348 -19024009.79345  21894642.5004                   21894639.9494
 -11878566.15648  -9243180.63746  21474592.5314   21474589.2854
 -18264937.28146 -14218832.34043  24314886.6644                   24314885.8054
 -13004669.12148 -10121122.30946  22231356.5474                   22231356.1804
   3327286.48847   2596587.91445  22539247.9064                   22539243.7234
 -22787636.39547 -17746497.59045  22556534.9064                   22556532.9774
  -9886188.70347  -7691189.52045  22585893.1644                   22585891.6254
 11  8 23  2 59 30.0000000  0 10G21G29G12G26G05G18G25G02G15G30
 -17878600.75846 -13929660.58243  24509601.2274                   24509599.5044
 -24820391.00048 -19332653.74646  21084742.0164                   21084739.1724
   -616693.16447   -467692.06345  23164417.3984                   23164415.1174
 -24443285.88348 -19037168.50845  21891429.0004                   21891426.4414
 -11760114.75448  -9150880.82846  21497132.9774   21497129.9774
 -18302756.98846 -14248302.09443  24307689.9614                   24307688.5904
 -12901864.86348 -10041015.11746  22250919.3834                   22250919.5554
   3421951.76647   2670353.05145  22557262.7814                   22557257.8134
 -22830092.57847 -17779580.30145  22548456.0634                   22548453.6604
  -9774608.62947  -7604244.03545  22607126.1884                   22607124.9414
 11  8 23  3  0  0.0000000  0 10G21G29G12G26G05G18G25G02G15G30
 -17887656.37546 -13936716.76243  24507877.9694                   24507876.0984
 -24833742.50848 -19343057.51246  21082201.3134                   21082198.6844
   -477511.57047   -359238.91044  23190902.5554                   23190900.5204
 -24459721.84047 -19049975.68845  21888300.7584                   21888298.7384
 -11641415.19548  -9058387.64846  21519720.9534   21519717.7114
 -18340399.30547 -14277633.65243  24300527.3914                   24300525.6024
 -12798693.19547  -9960621.62546  22270552.3914                   22270552.2934
   3516704.39147   2744186.25445  22575293.4454                   22575288.7154
 -22872365.15647 -17812519.92245  22540411.2584                   22540409.7814
  -9662716.46547  -7517055.36345  22628418.8284                   22628416.7114
 11  8 23  3  0 30.0000000  0 10G21G29G12G26G05G18G25G02G15G30
 -17896727.93046 -13943785.39543  24506151.8204                   24506149.8594
 -24846760.37148 -19353201.29346  21079724.1644                   21079721.5044
   -338213.48847   -250694.99245  23217410.1724                   23217408.6644
 -24475673.91047 -19062405.82845  21885265.6334                   21885263.3954
 -11522440.43048  -8965680.02046  21542361.0554   21542357.7504
 -18377833.92246 -14306803.27742  24293402.9694                   24293402.1524
 -12695127.61748  -9879921.20345  22290259.9844                   22290260.0984
   3611574.23847   2818110.79745  22593346.5164                   22593341.8754
 -22914421.55947 -17845291.11345  22532409.0314                   22532406.6764
  -9550486.11747  -7429603.16845  22649775.4924                   22649773.5044
 11  8 23  3  1  0.0000000  0 10G21G29G12G26G05G18G25G02G15G30
 -17905825.76246 -13950874.48043  24504421.0864                   24504418.1994
 -24859451.55147 -19363090.51246  21077309.0394                   21077306.7154
   -198811.46947   -142070.07444  23243937.0084                   23243935.4964
 -24491148.36747 -19074463.80545  21882320.5474                   21882318.9534
 -11403202.57848  -8872767.39546  21565051.0944   21565047.9844
 -18415068.98846 -14335817.53143  24286316.7504                   24286315.8164
 -12591180.38347  -9798923.37146  22310040.7664                   22310040.6804
   3706551.98047   2892119.41445  22611419.9534                   22611415.5744
 -22956268.33647 -17877898.95345  22524445.6644                   22524443.1914
  -9437930.11747  -7341897.20745  22671193.8444                   22671192.3404
 11  8 23  3  1 30.0000000  0 10G21G29G12G26G05G18G25G02G15G30
 -17914962.17646 -13957993.64543  24502681.6024                   24502679.6024
 -24871825.83248 -19372732.75846  21074954.5864                   21074951.6844
    -59320.53147    -33375.89545  23270482.0554                   23270479.7854
 -24506154.22347 -19086156.64545  21879465.1954                   21879462.5664
 -11283716.33248  -8779661.21146  21587788.6254   21587785.4534
 -18452115.56646 -14364684.81343  24279266.7274                   24279267.3134
 -12486866.35547  -9717639.74646  22329891.3444                   22329891.3324
   3801625.86747   2966202.93045  22629512.3284                   22629507.6604
 -22997914.21947 -17910350.25045  22516520.3674                   22516518.1724
  -9325063.66447  -7253949.35245  22692671.7814                   22692669.7974
 11  8 23  3  2  0.0000000  0 10G21G29G12G26G05G18G25G02G15G30
 -17924120.99646 -13965130.25043  24500938.5474                   24500936.5124
 -24883864.10247 -19382113.20746  21072663.4224                   21072660.4184
     80273.18047     75398.37945  23297045.7274                   23297044.1764
 -24520671.60247 -19097468.85245  21876702.6954                   21876700.2384
 -11163967.44148  -8686350.36746  21610575.7734   21610573.0044
 -18488955.72746 -14393391.36343  24272257.3754                   24272255.4024
 -12382171.57048  -9636059.40245  22349813.9454                   22349813.7854
   3896813.28147   3040374.91045  22647625.6644                   22647620.9454
 -23039339.78947 -17942629.86345  22508637.8594                   22508635.2074
  -9211873.17247  -7165748.99245  22714211.6024                   22714209.6484
 11  8 23  3  2 30.0000000  0 10G21G29G12G26G05G18G25G02G15G30
 -17933321.53147 -13972299.40244  24499188.1484                   24499185.2464
 -24895583.24248 -19391244.97746  21070433.5234                   21070430.4924
    219947.40647    184235.41844  23323624.6954                   23323622.6524
 -24534715.82847 -19108412.36745  21874029.9844                   21874027.6414
 -11043977.19948  -8592851.46546  21633409.2344   21633405.9804
 -18525607.66046 -14421951.16443  24265282.6024                   24265281.1254
 -12277117.89147  -9554199.41445  22369804.7424                   22369804.8244
   3992095.98047   3114621.12545  22665757.5474                   22665752.8674
 -23080560.66447 -17974749.98445  22500793.3674                   22500791.4694
  -9098380.75847  -7077313.34445  22735808.3754                   22735806.5164
 11  8 23  3  3  0.0000000  0 10G21G29G12G26G05G18G25G02G15G30
 -17942541.37546 -13979483.55543  24497432.8674                   24497430.7664
 -24906957.77047 -19400108.21546  21068269.0474                   21068266.3204
    359722.09047    293150.69544  23350222.6954                   23350220.6804
 -24548261.22347 -19118967.19545  21871452.4614                   21871450.2304
 -10923725.26248  -8499148.64146  21656292.3054   21656289.1954
 -18562047.17646 -14450345.48843  24258347.8204                   24258347.3794
 -12171685.07847  -9472044.00845  22389868.0234                   22389868.3954
   4087496.91447   3188959.48845  22683911.5474                   22683907.1294
 -23121550.91047 -18006690.40245  22492993.2344                   22492990.7584
  -8984566.52047  -6988626.94944  22757466.4924                   22757464.8164
 11  8 23  3  3 30.0000000  0 10G21G29G12G26G05G18G25G02G15G30
 -17951793.95746 -13986693.23043  24495672.7584                   24495669.5744
 -24917998.28548 -19408711.18046  21066167.8444                   21066164.8914
    499581.48847    402132.00844  23376837.2734                   23376835.6134
 -24561317.41447 -19129140.82845  21868968.1094                   21868965.3714
 -10803227.24648  -8405254.06646  21679222.5474   21679219.0944
 -18598286.00046 -14478583.35943  24251451.2584                   24251450.2704
 -12065888.89147  -9389605.43045  22410000.5474                   22410000.8324
   4183003.66047   3263380.29745  22702086.0944                   22702081.2194
 -23162319.97347 -18038458.44145  22485235.2114                   22485232.6054
  -8870446.52747  -6899702.30144  22779182.4924                   22779180.9614
 11  8 23  3  4  0.0000000  0 10G21G29G12G26G05G18G25G02G15G30
 -17961091.46547 -13993937.94143  24493903.2424                   24493900.1374
 -24928714.17247 -19417061.18446  21064129.0314                   21064125.8794
    639510.59047    511167.60244  23403465.4064                   23403463.4024
 -24573893.09847 -19138940.04345  21866574.8054                   21866572.5314
 -10682496.96548  -8311178.51246  21702196.6724   21702193.5274
 -18634334.87946 -14506673.32443  24244591.7034                   24244590.8364
 -11959743.87147  -9306895.05146  22430199.1644                   22430199.4494
   4278605.10547   3337874.91445  22720278.2344                   22720273.5514
 -23202876.83647 -18070061.16045  22477517.3364                   22477515.0904
  -8756035.64547  -6810550.96945  22800954.2974                   22800952.6024
 11  8 23  3  4 30.0000000  0 10G21G29G12G26G05G18G25G02G15G30
 -17970423.49246 -14001209.55943  24492127.3444                   24492124.1254
 -24939092.07048 -19425147.82446  21062154.1254                   21062150.9414
    779517.31247    620263.72344  23430107.8284                   23430105.8594
 -24585974.15647 -19148353.82845  21864275.7584                   21864273.6954
 -10561525.98048  -8216915.38346  21725216.6884   21725213.4454
 -18670181.90646 -14534605.88343  24237770.1254                   24237769.3134
 -11853242.11347  -9223906.69145  22450466.0944                   22450465.7114
   4374312.39147   3412451.99245  22738490.9064                   22738486.5824
 -23243207.59047 -18101487.67645  22469842.1484                   22469840.3914
  -8641326.27347  -6721167.07445  22822783.0784                   22822781.3634
 11  8 23  3  5  0.0000000  0 10G21G29G12G26G05G18G25G02G15G30
 -17979784.19147 -14008503.51243  24490345.9064                   24490343.5784
 -24949124.02048 -19432964.90246  21060244.9924                   21060242.0204
    919604.56647    729422.57445  23456765.3284                   23456763.4344
 -24597551.68447 -19157375.23845  21862072.6254                   21862070.5664
 -10440311.26248  -8122462.34046  21748283.1804   21748279.7934
 -18705820.35246 -14562376.02343  24230988.3674                   24230986.8984
 -11746380.59447  -9140638.00045  22470801.0634                   22470801.0084
   4470131.93047   3487116.54345  22756724.4144                   22756720.2424
 -23283303.28147 -18132731.02745  22462212.7664                   22462210.2854
  -8526315.73047  -6631548.48045  22844668.3914                   22844666.4774
 11  8 23  3  5 30.0000000  0 10G21G29G12G26G05G18G25G02G15G30
 -17989173.66046 -14015819.85243  24488558.3984                   24488556.7774
 -24958807.03148 -19440510.07046  21058402.4144                   21058399.2934
   1059769.67647    838642.09844  23483437.6564                   23483435.7504
 -24608621.74247 -19166001.23045  21859966.0634                   21859964.0984
 -10318854.31348  -8027820.54346  21771395.4064   21771392.4454
 -18741248.55547 -14589982.23443  24224246.7344                   24224245.5394
 -11639161.52747  -9057090.70745  22491204.5704                   22491203.9104
   4566064.48047   3561869.14145  22774980.0784                   22774975.2854
 -23323159.79347 -18163787.98845  22454628.7664                   22454626.1134
  -8411006.34047  -6541697.03545  22866611.0474                   22866609.6604
 11  8 23  3  6  0.0000000  0 10G21G29G12G26G05G18G25G02G15G30
 -17998590.59046 -14023157.65243  24486767.1254                   24486764.4184
 -24968137.06348 -19447780.20346  21056626.7814                   21056623.7544
   1200011.61347    947921.47344  23510124.7424                   23510123.0434
 -24619179.80547 -19174228.25845  21857957.0164                   21857954.9694
 -10197155.83648  -7932990.54346  21794554.2344   21794550.8244
 -18776463.61746 -14617422.43843  24217545.6644                   24217544.3634
 -11531585.97747  -8973265.62145  22511675.0314                   22511675.1454
   4662112.53147   3636711.75445  22793257.9844                   22793253.1414
 -23362772.71947 -18194655.16845  22447090.0314                   22447087.4534
  -8295399.61747  -6451613.89845  22888610.3914                   22888608.7344
 11  8 23  3  6 30.0000000  0 10G21G29G12G26G05G18G25G02G15G30
 -18008036.55147 -14030518.04343  24484969.6884                   24484966.8244
 -24977113.02348 -19454774.44546  21054918.8594                   21054915.5474
   1340325.95347   1057257.29344  23536825.7114                   23536824.1094
 -24629223.99247 -19182054.87545  21856045.5864                   21856043.4774
 -10075219.70348  -7837975.35246  21817757.7344   21817754.2734
 -18811466.00446 -14644696.83643  24210884.3364                   24210884.1134
 -11423658.06347  -8889165.97745  22532212.9454                   22532213.1024
   4758275.15647   3711643.64845  22811556.6174                   22811552.1054
 -23402140.23447 -18225331.10545  22439598.0864                   22439595.6914
  -8179499.95347  -6361302.48044  22910665.6484                   22910663.5864
 11  8 23  3  7  0.0000000  0 10G21G29G12G26G05G18G25G02G15G30
 -19592936.92246 -15265505.26644  24183372.8674                   24183370.4494
 -26561157.25448 -20689094.60946  20753484.9924                   20753482.3634
    -94710.12147    -60952.67244  23263748.1644                   23263746.3634
 -26214176.28547 -20417082.60945  21554439.0234                   21554436.8244
 -11528468.89848  -8970377.30946  21541213.5394                   21541209.8284
 -20421680.14846 -15899409.07843  23904470.8754                   23904469.5044
 -12890801.71547 -10032394.82446  22253025.1484                   22253024.8444
   3279131.43747   2559064.10545  22530085.4924                   22530080.6054
 -25016684.87147 -19483417.78545  22132360.7194                   22132358.3444
  -9638731.26247  -7498365.87144  22632982.7894                   22632981.3594
 11  8 23  3  7 30.0000000  0 10G21G29G12G26G05G18G25G02G15G30
 -19602454.64846 -15272921.57843  24181561.7814                   24181558.9774
 -26569430.44948 -20695541.22746  20751910.6954                   20751907.8524
     45727.66847     48479.33644  23290471.9614                   23290469.7774
 -26223196.09447 -20424111.00845  21552722.5944                   21552720.0164
 -11406077.46548  -8875007.34446  21564504.2114                   21564500.3134
 -20456266.31346 -15926359.19943  23897888.9144                   23897887.7424
 -12782190.50447  -9947762.73845  22273692.8674                   22273693.4574
   3375512.02347   2634165.85245  22548426.0164                   22548421.3674
 -25055564.66047 -19513713.67645  22124961.9694                   22124959.3324
  -9522268.00047  -7407615.30545  22655144.7424                   22655143.3834
 11  8 23  3  8  0.0000000  0 10G21G29G12G26G05G18G25G02G15G30
 -19612011.42246 -15280368.32443  24179742.7894                   24179740.3054
 -26577351.59848 -20701713.54346  20750403.2424                   20750400.2704
    186220.13347    157953.93044  23317206.9694                   23317205.0204
 -26231701.87947 -20430738.86745  21551103.9844                   21551102.2504
 -11283464.29748  -8779464.61346  21587836.4064                   21587832.9064
 -20490645.70346 -15953148.23043  23891346.7344                   23891344.9304
 -12673244.59447  -9862869.86345  22294424.8204                   22294425.1764
   3471999.99647   2709351.27345  22566786.4614                   22566781.6454
 -25094198.57447 -19543817.99645  22117610.3984                   22117608.0354
  -9405530.18047  -7316650.80545  22677359.7344                   22677358.6094
 11  8 23  3  8 30.0000000  0 10G21G29G12G26G05G18G25G02G15G30
 -19621604.54347 -15287843.40244  24177917.6334                   24177914.7074
 -26584915.16448 -20707607.21546  20748964.0784                   20748961.0354
    326767.07847    267470.97344  23343952.1644                   23343950.5554
 -26239687.54747 -20436961.44545  21549584.6414                   21549581.8134
 -11160628.82848  -8683748.64546  21611211.1174                   21611207.8094
 -20524814.24246 -15979772.93843  23884844.6804                   23884842.9384
 -12563963.67647  -9777715.93045  22315220.4454                   22315220.1994
   3568598.67647   2784622.95345  22585168.6254                   22585163.6884
 -25132580.14847 -19573725.67645  22110306.3754                   22110304.2114
  -9288517.96147  -7225472.48045  22699626.4844                   22699625.0434
 11  8 23  3  9  0.0000000  0 10G21G29G12G26G05G18G25G02G15G30
 -19631234.49646 -15295347.14543  24176084.6334                   24176082.4064
 -26592118.79348 -20713220.41846  20747593.3674                   20747590.0004
    467365.72346    377028.34444  23370707.7584                   23370705.1294
 -26247150.09047 -20442776.37545  21548164.1094                   21548161.9844
 -11037573.73448  -8587861.55946  21634627.3674                   21634624.3284
 -20558770.69546 -16006232.43843  23878382.9144                   23878382.1764
 -12454350.81347  -9692303.33245  22336078.3594                   22336079.1054
   3665308.30147   2859981.08645  22603572.1884                   22603566.7814
 -25170706.51247 -19603434.48045  22103051.3594                   22103049.0474
  -9171234.59047  -7134082.88345  22721944.6724                   22721942.6764
 11  8 23  3  9 30.0000000  0 10G21G29G12G26G05G18G25G02G15G30
 -19640910.13346 -15302886.49243  24174243.7814                   24174240.6604
 -26598968.62148 -20718557.91846  20746289.6724                   20746286.6914
    608004.69947    486617.11344  23397470.0554                   23397468.7154
 -26254094.84047 -20448187.84445  21546842.9064                   21546840.2894
 -10914309.60248  -8491811.58246  21658083.9614                   21658080.7624
 -20592522.77746 -16032532.61743  23871960.2814                   23871958.6024
 -12344417.28947  -9606640.89145  22356998.4844                   22356998.6454
   3762121.20747   2935419.69145  22621994.7274                   22621989.9534
 -25208583.03547 -19632948.61745  22095843.5234                   22095841.4614
  -9053691.51647  -7042490.91044  22744312.4694                   22744310.9024
 11  8 23  3 10  0.0000000  0 10G21G29G12G26G05G18G25G02G15G30
 -19650629.14146 -15310459.68843  24172393.3284                   24172390.9454
 -26605459.81648 -20723615.97746  20745054.4304                   20745051.5234
    748683.49647    596236.92244  23424240.3284                   23424238.4104
 -26260516.52347 -20453191.73445  21545621.0474                   21545618.3324
 -10790836.42248  -8395598.71546  21681579.8524                   21681577.1294
 -20626066.54746 -16058670.53143  23865576.2034                   23865575.3794
 -12234163.48447  -9520728.85545  22377978.9304                   22377979.6254
   3859040.40247   3010941.12945  22640438.3594                   22640433.3164
 -25246204.21547 -19662263.77745  22088684.5634                   22088681.8634
  -8935889.41847  -6950697.10545  22766729.5004                   22766727.8094
 11  8 23  3 10 30.0000000  0 10G21G29G12G26G05G18G25G02G15G30
 -19660371.54746 -15318051.07043  24170539.4614                   24170537.2384
 -26611569.77348 -20728376.97746  20743891.6094                   20743888.7664
    889419.27746    705901.16044  23451021.2734                   23451020.0904
 -26266391.96547 -20457769.97345  21544502.7894                   21544500.8634
 -10667136.40248  -8299209.09846  21705119.2424                   21705116.1564
 -20659381.38346 -16084629.98843  23859237.0554                   23859235.4414
 -12123572.18047  -9434553.84045  22399023.3834                   22399024.2504
   3956086.28147   3086561.27344  22658905.5474                   22658900.6484
 -25283546.48047 -19691361.59845  22081578.7734                   22081576.1024
  -8817811.34447  -6858688.26244  22789198.9384                   22789197.3164
 11  8 23  3 11  0.0000000  0 10G21G29G12G26G05G18G25G02G15G30
 -19670167.32846 -15325684.04343  24168675.8834                   24168673.4414
 -26617325.62948 -20732862.03946  20742796.6414                   20742793.6334
   1030179.66047    815584.52744  23477807.1954                   23477805.5354
 -26271747.68447 -20461943.25445  21543483.1884                   21543481.0704
 -10543241.27348  -8202667.44946  21728696.2194                   21728692.7734
 -20692495.83246 -16110433.33243  23852935.0554                   23852934.4344
 -12012675.83247  -9348141.13345  22420126.4304                   22420126.9144
   4053229.93447   3162257.60245  22677391.3364                   22677386.8014
 -25320636.41847 -19720262.80945  22074520.7344                   22074518.2154
  -8699489.94147  -6766489.79344  22811714.7034                   22811713.0004
 11  8 23  3 11 30.0000000  0 10G21G29G12G26G05G18G25G02G15G30
 -19679992.98046 -15333340.29743  24166805.5164                   24166803.4884
 -26622701.71148 -20737051.17646  20741773.4304                   20741770.6684
   1170985.53547    925303.35244  23504602.0234                   23504600.4654
 -26276556.91847 -20465690.69145  21542568.1644                   21542566.0204
 -10419130.02348  -8105957.39846  21752313.9384                   21752310.4144
 -20725384.72346 -16136060.92643  23846676.2344                   23846674.6174
 -11901453.53947  -9261474.43045  22441291.3914                   22441292.0784
   4150495.80947   3238049.16844  22695899.9844                   22695895.6214
 -25357447.12547 -19748946.43845  22067515.4844                   22067513.0474
  -8580904.61747  -6674085.67644  22834281.1024                   22834279.6994
 11  8 23  3 12  0.0000000  0 10G21G29G12G26G05G18G25G02G15G30
 -19689852.87946 -15341023.24243  24164929.6644                   24164926.9224
 -26627699.17648 -20740945.28146  20740822.2814                   20740819.4924
   1311830.16847   1035052.36744  23531403.7504                   23531401.7384
 -26280820.89847 -20469013.26645  21541756.8914                   21541754.8954
 -10294808.43048  -8009083.43446  21775971.4384                   21775967.9734
 -20758051.37546 -16161515.35243  23840460.1254                   23840459.3954
 -11789912.12947  -9174559.08245  22462517.3054                   22462517.7814
   4247880.64147   3313933.42644  22714431.7974                   22714427.1604
 -25393979.35947 -19777413.06645  22060563.5004                   22060561.0354
  -8462062.47747  -6581481.45744  22856895.9304                   22856894.5084
 11  8 23  3 12 30.0000000  0 10G21G29G12G26G05G18G25G02G15G30
 -19699759.95746 -15348742.92244  24163044.2424                   24163041.2544
 -26632329.01648 -20744552.93846  20739941.2274                   20739938.4654
   1452697.40247   1144818.99644  23558210.3594                   23558207.8524
 -26284549.75047 -20471918.84445  21541047.2664                   21541044.8204
 -10170292.10248  -7912057.73046  21799665.7734                   21799663.0394
 -20790507.71146 -16186805.85943  23834283.7584                   23834282.8524
 -11678067.64847  -9087407.57045  22483800.7274                   22483801.2934
   4345371.73847   3389900.48044  22732983.9454                   22732979.1054
 -25430243.06647 -19805670.45345  22053663.0704                   22053660.2194
  -8342979.67247  -6488689.68044  22879556.5474                   22879555.5164
 11  8 23  3 13  0.0000000  0 10G21G29G12G26G05G18G25G02G15G30
 -19709703.43847 -15356491.00044  24161151.6564                   24161149.2854
 -26636577.28548 -20747863.27046  20739132.8984                   20739129.7774
   1593595.93447   1254610.03144  23585022.0784                   23585020.6884
 -26287728.96148 -20474396.12945  21540442.2274                   21540439.8714
 -10045571.76648  -7814873.07046  21823399.6724                   21823396.0204
 -20822741.39846 -16211922.95743  23828150.3054                   23828148.0744
 -11565911.41447  -9000013.12545  22505143.0634                   22505143.0704
   4442981.11347   3465959.71944  22751558.4454                   22751553.3134
 -25466223.73447 -19833707.29345  22046815.7894                   22046813.2974
  -8223647.75047  -6395703.80145  22902264.5314                   22902263.3244
 11  8 23  3 13 30.0000000  0 10G21G29G12G26G05G18G25G02G15G30
 -19719686.60546 -15364270.00044  24159252.3754                   24159249.6414
 -26640444.67248 -20750876.80146  20738397.3284                   20738394.0044
   1734519.77747   1364420.80144  23611839.0234                   23611837.5554
 -26290358.73047 -20476445.28145  21539942.1564                   21539939.6884
  -9920652.86748  -7717533.67646  21847170.4844                   21847167.1844
 -20854754.44146 -16236868.06643  23822058.6024                   23822056.0944
 -11453449.44147  -8912380.44145  22526543.9614                   22526544.4304
   4540706.22347   3542109.13344  22770154.6484                   22770149.9104
 -25501921.15647 -19861523.43045  22040023.1724                   22040020.7424
  -8104073.05547  -6302528.74244  22925018.9694                   22925017.8244
 11  8 23  3 14  0.0000000  0 10G21G29G12G26G05G18G25G02G15G30
 -19729704.99246 -15372076.43044  24157345.9844                   24157342.9844
 -26643924.32848 -20753588.21146  20737734.8834                   20737731.7624
   1875470.79747   1474252.70344  23638660.6254                   23638659.1604
 -26292431.66848 -20478060.54745  21539547.6334                   21539545.3444
  -9795533.32848  -7620037.94546  21870980.3134                   21870976.8634
 -20886541.37946 -16261637.01243  23816009.1254                   23816007.4574
 -11340680.05147  -8824508.22345  22548003.7034                   22548004.0824
   4638552.16847   3618352.70744  22788774.7664                   22788770.0744
 -25537327.57047 -19889112.78545  22033285.3984                   22033282.8984
  -7984254.10247  -6209163.35244  22947819.9144                   22947818.3554
 11  8 23  3 14 30.0000000  0 10G21G29G12G26G05G18G25G02G15G30
 -19739762.55547 -15379913.39843  24155431.2344                   24155428.9734
 -26647017.52748 -20755998.46946  20737146.3054                   20737143.3364
   2016442.50047   1584100.75444  23665487.6884                   23665485.7704
 -26293948.66048 -20479242.60945  21539258.5004                   21539256.2304
  -9670218.91848  -7522390.35946  21894827.0784                   21894823.1174
 -20918104.98047 -16286231.89543  23810003.0394                   23810001.4104
 -11227609.89547  -8736401.63345  22569519.8754                   22569520.2544
   4736516.00847   3694688.14844  22807416.1094                   22807412.2624
 -25572443.86747 -19916476.07845  22026602.3594                   22026600.1094
  -7864197.66047  -6115612.91444  22970666.1334                   22970664.2734
 11  8 23  3 15  0.0000000  0 10G21G29G12G26G05G18G25G02G15G30
 -19749861.43047 -15387782.59444  24153509.9774                   24153507.1764
 -26649723.91047 -20758107.32446  20736631.2424                   20736628.1684
   2157429.78147   1693960.91444  23692316.4224                   23692314.7074
 -26294908.80547 -20479990.76645  21539076.1174                   21539073.5984
  -9544713.59048  -7424594.00846  21918709.5004                   21918706.5944
 -20949446.27046 -16310653.55943  23804038.4534                   23804037.8524
 -11114243.87147  -8648064.50445  22591092.9064                   22591093.1214
   4834596.00047   3771114.07444  22826080.4774                   22826076.2584
 -25607268.65247 -19943612.20345  22019975.6644                   22019973.1174
  -7743909.00047  -6021881.52344  22993556.2584                   22993554.6054
 11  8 23  3 15 30.0000000  0 10G21G29G12G26G05G18G25G02G15G30
 -19760017.32847 -15395696.18044  24151577.2894                   24151574.9614
 -26652056.98048 -20759925.27746  20736187.2734                   20736184.1484
   2298414.41847   1803819.01244  23719144.5784                   23719143.3914
 -26295324.91448 -20480314.98845  21538996.6954                   21538994.6254
  -9419035.61748  -7326663.12546  21942625.2664                   21942622.1644
 -20980579.68846 -16334913.26243  23798113.7584                   23798112.5084
 -11000600.50847  -8559511.27045  22612718.5474                   22612718.8164
   4932777.49247   3847619.09845  22844763.2974                   22844759.2584
 -25641814.41847 -19970530.92245  22013402.3054                   22013399.9694
  -7623406.71947  -5927983.66444  23016487.0554                   23016485.4734
